<?xml version="1.0" encoding="UTF-8" standalone="no" ?>
<gpx xmlns="http://www.topografix.com/GPX/1/1" xmlns:xsi="http://www.w3.org/2001/XMLSchema-instance" xsi:schemaLocation="http://www.topografix.com/GPX/1/1 http://www.topografix.com/GPX/1/1/gpx.xsd" version="1.1" creator="VisuGPX - https://www.visugpx.com">
  <metadata>
    <name>gr20nord - j4 : refuge de Vergio - bergerie de Ballone</name>
    <desc><![CDATA[Les choses sérieuses reprennent, on quitte le feuillus pour le minéral : légère descente jusqu\'à la bergerie de Radule avant d\'attaquer la montée jusqu\'au refuge de Ciuttulu di Mori proche de la source du Golo ; descente à travers Bocca di Foggiale jusqu\'à la bergerie de Ballone.]]></desc>
  </metadata>
  <trk>
    <name><![CDATA[GR20N-J4 vergio refuge - ballone bergerie 2015-06-24]]></name>
    <trkseg>
      <trkpt lat="42.28666" lon="8.89353">
        <ele>1394.05</ele>
        <time>2015-06-24T04:16:43Z</time>
      </trkpt>
      <trkpt lat="42.2869" lon="8.89395">
        <ele>1394.05</ele>
        <time>2015-06-24T04:16:44Z</time>
      </trkpt>
      <trkpt lat="42.28685" lon="8.89372">
        <ele>1393.57</ele>
        <time>2015-06-24T04:17:05Z</time>
      </trkpt>
      <trkpt lat="42.28657" lon="8.89206">
        <ele>1395.49</ele>
        <time>2015-06-24T05:22:55Z</time>
      </trkpt>
      <trkpt lat="42.28665" lon="8.89205">
        <ele>1395.97</ele>
        <time>2015-06-24T05:23:02Z</time>
      </trkpt>
      <trkpt lat="42.28669" lon="8.89189">
        <ele>1395.97</ele>
        <time>2015-06-24T05:23:14Z</time>
      </trkpt>
      <trkpt lat="42.28679" lon="8.89182">
        <ele>1399.34</ele>
        <time>2015-06-24T05:23:27Z</time>
      </trkpt>
      <trkpt lat="42.28684" lon="8.89177">
        <ele>1402.7</ele>
        <time>2015-06-24T05:23:33Z</time>
      </trkpt>
      <trkpt lat="42.28693" lon="8.89171">
        <ele>1406.07</ele>
        <time>2015-06-24T05:23:43Z</time>
      </trkpt>
      <trkpt lat="42.28695" lon="8.89171">
        <ele>1406.55</ele>
        <time>2015-06-24T05:23:45Z</time>
      </trkpt>
      <trkpt lat="42.28705" lon="8.89171">
        <ele>1409.91</ele>
        <time>2015-06-24T05:23:55Z</time>
      </trkpt>
      <trkpt lat="42.28732" lon="8.89179">
        <ele>1420.97</ele>
        <time>2015-06-24T05:39:24Z</time>
      </trkpt>
      <trkpt lat="42.2874" lon="8.89181">
        <ele>1421.45</ele>
        <time>2015-06-24T05:39:31Z</time>
      </trkpt>
      <trkpt lat="42.28761" lon="8.8918">
        <ele>1422.89</ele>
        <time>2015-06-24T05:39:49Z</time>
      </trkpt>
      <trkpt lat="42.28772" lon="8.89168">
        <ele>1423.85</ele>
        <time>2015-06-24T05:40:01Z</time>
      </trkpt>
      <trkpt lat="42.28783" lon="8.89161">
        <ele>1423.37</ele>
        <time>2015-06-24T05:40:14Z</time>
      </trkpt>
      <trkpt lat="42.28796" lon="8.89152">
        <ele>1420.97</ele>
        <time>2015-06-24T05:40:27Z</time>
      </trkpt>
      <trkpt lat="42.28798" lon="8.89147">
        <ele>1420</ele>
        <time>2015-06-24T05:40:31Z</time>
      </trkpt>
      <trkpt lat="42.28802" lon="8.89135">
        <ele>1419.52</ele>
        <time>2015-06-24T05:40:39Z</time>
      </trkpt>
      <trkpt lat="42.28806" lon="8.89114">
        <ele>1418.56</ele>
        <time>2015-06-24T05:40:54Z</time>
      </trkpt>
      <trkpt lat="42.28811" lon="8.89101">
        <ele>1416.16</ele>
        <time>2015-06-24T05:41:08Z</time>
      </trkpt>
      <trkpt lat="42.28809" lon="8.89094">
        <ele>1417.12</ele>
        <time>2015-06-24T05:41:19Z</time>
      </trkpt>
      <trkpt lat="42.2881" lon="8.89093">
        <ele>1417.6</ele>
        <time>2015-06-24T05:41:20Z</time>
      </trkpt>
      <trkpt lat="42.28812" lon="8.8908">
        <ele>1416.64</ele>
        <time>2015-06-24T05:41:33Z</time>
      </trkpt>
      <trkpt lat="42.28815" lon="8.89062">
        <ele>1416.16</ele>
        <time>2015-06-24T05:41:46Z</time>
      </trkpt>
      <trkpt lat="42.28812" lon="8.8905">
        <ele>1416.64</ele>
        <time>2015-06-24T05:41:54Z</time>
      </trkpt>
      <trkpt lat="42.28816" lon="8.89033">
        <ele>1415.68</ele>
        <time>2015-06-24T05:42:04Z</time>
      </trkpt>
      <trkpt lat="42.28818" lon="8.89025">
        <ele>1415.2</ele>
        <time>2015-06-24T05:42:09Z</time>
      </trkpt>
      <trkpt lat="42.28822" lon="8.89004">
        <ele>1416.64</ele>
        <time>2015-06-24T05:42:26Z</time>
      </trkpt>
      <trkpt lat="42.28823" lon="8.89003">
        <ele>1416.16</ele>
        <time>2015-06-24T05:42:27Z</time>
      </trkpt>
      <trkpt lat="42.28835" lon="8.88991">
        <ele>1415.68</ele>
        <time>2015-06-24T05:42:41Z</time>
      </trkpt>
      <trkpt lat="42.28842" lon="8.88986">
        <ele>1416.64</ele>
        <time>2015-06-24T05:42:50Z</time>
      </trkpt>
      <trkpt lat="42.2885" lon="8.88975">
        <ele>1417.6</ele>
        <time>2015-06-24T05:43:01Z</time>
      </trkpt>
      <trkpt lat="42.28862" lon="8.88954">
        <ele>1418.56</ele>
        <time>2015-06-24T05:43:17Z</time>
      </trkpt>
      <trkpt lat="42.28869" lon="8.88943">
        <ele>1418.56</ele>
        <time>2015-06-24T05:43:26Z</time>
      </trkpt>
      <trkpt lat="42.28873" lon="8.8894">
        <ele>1418.56</ele>
        <time>2015-06-24T05:43:30Z</time>
      </trkpt>
      <trkpt lat="42.2889" lon="8.88922">
        <ele>1415.2</ele>
        <time>2015-06-24T05:43:48Z</time>
      </trkpt>
      <trkpt lat="42.28898" lon="8.88914">
        <ele>1413.28</ele>
        <time>2015-06-24T05:43:57Z</time>
      </trkpt>
      <trkpt lat="42.289" lon="8.88912">
        <ele>1412.31</ele>
        <time>2015-06-24T05:43:59Z</time>
      </trkpt>
      <trkpt lat="42.28904" lon="8.88908">
        <ele>1412.31</ele>
        <time>2015-06-24T05:44:03Z</time>
      </trkpt>
      <trkpt lat="42.28912" lon="8.88903">
        <ele>1410.39</ele>
        <time>2015-06-24T05:44:11Z</time>
      </trkpt>
      <trkpt lat="42.28918" lon="8.88883">
        <ele>1407.51</ele>
        <time>2015-06-24T05:44:27Z</time>
      </trkpt>
      <trkpt lat="42.28922" lon="8.88865">
        <ele>1405.58</ele>
        <time>2015-06-24T05:44:38Z</time>
      </trkpt>
      <trkpt lat="42.28922" lon="8.8886">
        <ele>1405.58</ele>
        <time>2015-06-24T05:44:41Z</time>
      </trkpt>
      <trkpt lat="42.28918" lon="8.88847">
        <ele>1406.55</ele>
        <time>2015-06-24T05:44:50Z</time>
      </trkpt>
      <trkpt lat="42.28917" lon="8.88839">
        <ele>1407.03</ele>
        <time>2015-06-24T05:44:55Z</time>
      </trkpt>
      <trkpt lat="42.28923" lon="8.88816">
        <ele>1405.58</ele>
        <time>2015-06-24T05:45:10Z</time>
      </trkpt>
      <trkpt lat="42.28923" lon="8.88814">
        <ele>1406.07</ele>
        <time>2015-06-24T05:45:11Z</time>
      </trkpt>
      <trkpt lat="42.28921" lon="8.88801">
        <ele>1407.99</ele>
        <time>2015-06-24T05:45:22Z</time>
      </trkpt>
      <trkpt lat="42.28928" lon="8.88783">
        <ele>1407.99</ele>
        <time>2015-06-24T05:45:34Z</time>
      </trkpt>
      <trkpt lat="42.28933" lon="8.88763">
        <ele>1409.43</ele>
        <time>2015-06-24T05:45:49Z</time>
      </trkpt>
      <trkpt lat="42.28936" lon="8.8875">
        <ele>1412.79</ele>
        <time>2015-06-24T05:46:05Z</time>
      </trkpt>
      <trkpt lat="42.28937" lon="8.88736">
        <ele>1414.24</ele>
        <time>2015-06-24T05:46:20Z</time>
      </trkpt>
      <trkpt lat="42.28944" lon="8.88719">
        <ele>1412.79</ele>
        <time>2015-06-24T05:46:32Z</time>
      </trkpt>
      <trkpt lat="42.28943" lon="8.88716">
        <ele>1412.79</ele>
        <time>2015-06-24T05:46:35Z</time>
      </trkpt>
      <trkpt lat="42.28943" lon="8.88702">
        <ele>1410.39</ele>
        <time>2015-06-24T05:46:49Z</time>
      </trkpt>
      <trkpt lat="42.28938" lon="8.88689">
        <ele>1409.43</ele>
        <time>2015-06-24T05:47:03Z</time>
      </trkpt>
      <trkpt lat="42.28932" lon="8.88673">
        <ele>1410.87</ele>
        <time>2015-06-24T05:47:18Z</time>
      </trkpt>
      <trkpt lat="42.28923" lon="8.88659">
        <ele>1409.91</ele>
        <time>2015-06-24T05:47:32Z</time>
      </trkpt>
      <trkpt lat="42.28921" lon="8.88655">
        <ele>1409.91</ele>
        <time>2015-06-24T05:47:37Z</time>
      </trkpt>
      <trkpt lat="42.28918" lon="8.88653">
        <ele>1409.91</ele>
        <time>2015-06-24T05:47:40Z</time>
      </trkpt>
      <trkpt lat="42.28903" lon="8.88639">
        <ele>1411.35</ele>
        <time>2015-06-24T05:47:55Z</time>
      </trkpt>
      <trkpt lat="42.28891" lon="8.88631">
        <ele>1412.31</ele>
        <time>2015-06-24T05:48:07Z</time>
      </trkpt>
      <trkpt lat="42.28884" lon="8.88625">
        <ele>1411.35</ele>
        <time>2015-06-24T05:48:14Z</time>
      </trkpt>
      <trkpt lat="42.28882" lon="8.8861">
        <ele>1413.28</ele>
        <time>2015-06-24T05:48:25Z</time>
      </trkpt>
      <trkpt lat="42.28884" lon="8.88603">
        <ele>1413.76</ele>
        <time>2015-06-24T05:48:29Z</time>
      </trkpt>
      <trkpt lat="42.28887" lon="8.88594">
        <ele>1413.76</ele>
        <time>2015-06-24T05:48:35Z</time>
      </trkpt>
      <trkpt lat="42.28889" lon="8.8858">
        <ele>1411.35</ele>
        <time>2015-06-24T05:48:49Z</time>
      </trkpt>
      <trkpt lat="42.28904" lon="8.88564">
        <ele>1412.31</ele>
        <time>2015-06-24T05:49:03Z</time>
      </trkpt>
      <trkpt lat="42.28914" lon="8.88548">
        <ele>1413.76</ele>
        <time>2015-06-24T05:49:17Z</time>
      </trkpt>
      <trkpt lat="42.28926" lon="8.88534">
        <ele>1415.2</ele>
        <time>2015-06-24T05:49:31Z</time>
      </trkpt>
      <trkpt lat="42.28928" lon="8.88531">
        <ele>1415.68</ele>
        <time>2015-06-24T05:49:34Z</time>
      </trkpt>
      <trkpt lat="42.28934" lon="8.88508">
        <ele>1418.08</ele>
        <time>2015-06-24T05:49:52Z</time>
      </trkpt>
      <trkpt lat="42.28936" lon="8.88505">
        <ele>1418.56</ele>
        <time>2015-06-24T05:49:55Z</time>
      </trkpt>
      <trkpt lat="42.28941" lon="8.88501">
        <ele>1418.56</ele>
        <time>2015-06-24T05:50:01Z</time>
      </trkpt>
      <trkpt lat="42.28946" lon="8.8849">
        <ele>1417.12</ele>
        <time>2015-06-24T05:50:10Z</time>
      </trkpt>
      <trkpt lat="42.28954" lon="8.88474">
        <ele>1416.64</ele>
        <time>2015-06-24T05:50:22Z</time>
      </trkpt>
      <trkpt lat="42.28965" lon="8.88457">
        <ele>1417.6</ele>
        <time>2015-06-24T05:50:39Z</time>
      </trkpt>
      <trkpt lat="42.28979" lon="8.88442">
        <ele>1416.16</ele>
        <time>2015-06-24T05:50:56Z</time>
      </trkpt>
      <trkpt lat="42.28992" lon="8.88429">
        <ele>1415.68</ele>
        <time>2015-06-24T05:51:10Z</time>
      </trkpt>
      <trkpt lat="42.29003" lon="8.88413">
        <ele>1416.16</ele>
        <time>2015-06-24T05:51:25Z</time>
      </trkpt>
      <trkpt lat="42.29009" lon="8.88404">
        <ele>1416.16</ele>
        <time>2015-06-24T05:51:34Z</time>
      </trkpt>
      <trkpt lat="42.29011" lon="8.88393">
        <ele>1417.6</ele>
        <time>2015-06-24T05:51:44Z</time>
      </trkpt>
      <trkpt lat="42.29021" lon="8.88378">
        <ele>1417.12</ele>
        <time>2015-06-24T05:52:00Z</time>
      </trkpt>
      <trkpt lat="42.29024" lon="8.88367">
        <ele>1417.12</ele>
        <time>2015-06-24T05:52:07Z</time>
      </trkpt>
      <trkpt lat="42.29027" lon="8.88362">
        <ele>1417.12</ele>
        <time>2015-06-24T05:52:11Z</time>
      </trkpt>
      <trkpt lat="42.29033" lon="8.8834">
        <ele>1418.56</ele>
        <time>2015-06-24T05:52:26Z</time>
      </trkpt>
      <trkpt lat="42.29033" lon="8.88339">
        <ele>1418.56</ele>
        <time>2015-06-24T05:52:27Z</time>
      </trkpt>
      <trkpt lat="42.29035" lon="8.88319">
        <ele>1418.08</ele>
        <time>2015-06-24T05:52:40Z</time>
      </trkpt>
      <trkpt lat="42.29038" lon="8.88313">
        <ele>1417.6</ele>
        <time>2015-06-24T05:52:44Z</time>
      </trkpt>
      <trkpt lat="42.2904" lon="8.88291">
        <ele>1419.04</ele>
        <time>2015-06-24T05:53:01Z</time>
      </trkpt>
      <trkpt lat="42.29043" lon="8.8828">
        <ele>1418.08</ele>
        <time>2015-06-24T05:53:08Z</time>
      </trkpt>
      <trkpt lat="42.29054" lon="8.88262">
        <ele>1415.68</ele>
        <time>2015-06-24T05:53:25Z</time>
      </trkpt>
      <trkpt lat="42.2906" lon="8.88246">
        <ele>1416.64</ele>
        <time>2015-06-24T05:53:37Z</time>
      </trkpt>
      <trkpt lat="42.29062" lon="8.88244">
        <ele>1417.12</ele>
        <time>2015-06-24T05:53:40Z</time>
      </trkpt>
      <trkpt lat="42.29063" lon="8.88238">
        <ele>1417.6</ele>
        <time>2015-06-24T05:53:44Z</time>
      </trkpt>
      <trkpt lat="42.29078" lon="8.88218">
        <ele>1415.68</ele>
        <time>2015-06-24T05:54:00Z</time>
      </trkpt>
      <trkpt lat="42.29091" lon="8.88211">
        <ele>1413.76</ele>
        <time>2015-06-24T05:54:14Z</time>
      </trkpt>
      <trkpt lat="42.29093" lon="8.88211">
        <ele>1414.24</ele>
        <time>2015-06-24T05:54:16Z</time>
      </trkpt>
      <trkpt lat="42.29101" lon="8.88211">
        <ele>1414.72</ele>
        <time>2015-06-24T05:54:22Z</time>
      </trkpt>
      <trkpt lat="42.29106" lon="8.88218">
        <ele>1415.2</ele>
        <time>2015-06-24T05:54:27Z</time>
      </trkpt>
      <trkpt lat="42.29121" lon="8.88232">
        <ele>1415.2</ele>
        <time>2015-06-24T05:54:43Z</time>
      </trkpt>
      <trkpt lat="42.29125" lon="8.88233">
        <ele>1415.2</ele>
        <time>2015-06-24T05:54:47Z</time>
      </trkpt>
      <trkpt lat="42.29129" lon="8.88231">
        <ele>1416.16</ele>
        <time>2015-06-24T05:54:52Z</time>
      </trkpt>
      <trkpt lat="42.29144" lon="8.8824">
        <ele>1418.56</ele>
        <time>2015-06-24T05:55:09Z</time>
      </trkpt>
      <trkpt lat="42.29153" lon="8.88247">
        <ele>1420.97</ele>
        <time>2015-06-24T05:55:25Z</time>
      </trkpt>
      <trkpt lat="42.29162" lon="8.88257">
        <ele>1419.52</ele>
        <time>2015-06-24T05:55:37Z</time>
      </trkpt>
      <trkpt lat="42.29169" lon="8.8827">
        <ele>1420</ele>
        <time>2015-06-24T05:55:49Z</time>
      </trkpt>
      <trkpt lat="42.29182" lon="8.88277">
        <ele>1420.49</ele>
        <time>2015-06-24T05:56:06Z</time>
      </trkpt>
      <trkpt lat="42.29188" lon="8.88267">
        <ele>1422.89</ele>
        <time>2015-06-24T05:56:17Z</time>
      </trkpt>
      <trkpt lat="42.29191" lon="8.88264">
        <ele>1422.89</ele>
        <time>2015-06-24T05:56:21Z</time>
      </trkpt>
      <trkpt lat="42.29193" lon="8.88262">
        <ele>1423.37</ele>
        <time>2015-06-24T05:56:25Z</time>
      </trkpt>
      <trkpt lat="42.29195" lon="8.88259">
        <ele>1423.37</ele>
        <time>2015-06-24T05:56:28Z</time>
      </trkpt>
      <trkpt lat="42.29204" lon="8.88258">
        <ele>1423.37</ele>
        <time>2015-06-24T05:56:36Z</time>
      </trkpt>
      <trkpt lat="42.29214" lon="8.88255">
        <ele>1423.37</ele>
        <time>2015-06-24T05:56:48Z</time>
      </trkpt>
      <trkpt lat="42.29224" lon="8.88252">
        <ele>1424.33</ele>
        <time>2015-06-24T05:56:59Z</time>
      </trkpt>
      <trkpt lat="42.2923" lon="8.88249">
        <ele>1424.33</ele>
        <time>2015-06-24T05:57:04Z</time>
      </trkpt>
      <trkpt lat="42.29243" lon="8.8824">
        <ele>1426.25</ele>
        <time>2015-06-24T05:57:18Z</time>
      </trkpt>
      <trkpt lat="42.29245" lon="8.88238">
        <ele>1426.25</ele>
        <time>2015-06-24T05:57:20Z</time>
      </trkpt>
      <trkpt lat="42.29248" lon="8.88233">
        <ele>1427.7</ele>
        <time>2015-06-24T05:57:27Z</time>
      </trkpt>
      <trkpt lat="42.29264" lon="8.88235">
        <ele>1426.25</ele>
        <time>2015-06-24T05:57:42Z</time>
      </trkpt>
      <trkpt lat="42.29266" lon="8.88236">
        <ele>1425.77</ele>
        <time>2015-06-24T05:57:44Z</time>
      </trkpt>
      <trkpt lat="42.29281" lon="8.88238">
        <ele>1423.37</ele>
        <time>2015-06-24T05:57:58Z</time>
      </trkpt>
      <trkpt lat="42.29286" lon="8.88228">
        <ele>1424.33</ele>
        <time>2015-06-24T05:58:11Z</time>
      </trkpt>
      <trkpt lat="42.293" lon="8.88219">
        <ele>1425.77</ele>
        <time>2015-06-24T05:58:26Z</time>
      </trkpt>
      <trkpt lat="42.29318" lon="8.88218">
        <ele>1426.73</ele>
        <time>2015-06-24T05:58:41Z</time>
      </trkpt>
      <trkpt lat="42.29319" lon="8.88219">
        <ele>1426.25</ele>
        <time>2015-06-24T05:58:42Z</time>
      </trkpt>
      <trkpt lat="42.29327" lon="8.88223">
        <ele>1425.77</ele>
        <time>2015-06-24T05:58:50Z</time>
      </trkpt>
      <trkpt lat="42.29339" lon="8.88227">
        <ele>1425.29</ele>
        <time>2015-06-24T05:59:01Z</time>
      </trkpt>
      <trkpt lat="42.29353" lon="8.88233">
        <ele>1424.81</ele>
        <time>2015-06-24T05:59:15Z</time>
      </trkpt>
      <trkpt lat="42.29365" lon="8.88233">
        <ele>1425.77</ele>
        <time>2015-06-24T05:59:28Z</time>
      </trkpt>
      <trkpt lat="42.2938" lon="8.88225">
        <ele>1427.7</ele>
        <time>2015-06-24T05:59:45Z</time>
      </trkpt>
      <trkpt lat="42.29382" lon="8.88225">
        <ele>1427.7</ele>
        <time>2015-06-24T05:59:47Z</time>
      </trkpt>
      <trkpt lat="42.29394" lon="8.88221">
        <ele>1426.73</ele>
        <time>2015-06-24T05:59:57Z</time>
      </trkpt>
      <trkpt lat="42.29408" lon="8.88209">
        <ele>1427.7</ele>
        <time>2015-06-24T06:00:12Z</time>
      </trkpt>
      <trkpt lat="42.29421" lon="8.88201">
        <ele>1424.81</ele>
        <time>2015-06-24T06:00:28Z</time>
      </trkpt>
      <trkpt lat="42.29433" lon="8.88197">
        <ele>1422.41</ele>
        <time>2015-06-24T06:00:43Z</time>
      </trkpt>
      <trkpt lat="42.29441" lon="8.88187">
        <ele>1421.45</ele>
        <time>2015-06-24T06:00:58Z</time>
      </trkpt>
      <trkpt lat="42.29451" lon="8.8818">
        <ele>1418.56</ele>
        <time>2015-06-24T06:01:11Z</time>
      </trkpt>
      <trkpt lat="42.29466" lon="8.88176">
        <ele>1420</ele>
        <time>2015-06-24T06:01:26Z</time>
      </trkpt>
      <trkpt lat="42.2948" lon="8.88177">
        <ele>1419.04</ele>
        <time>2015-06-24T06:01:39Z</time>
      </trkpt>
      <trkpt lat="42.29493" lon="8.88187">
        <ele>1418.56</ele>
        <time>2015-06-24T06:01:54Z</time>
      </trkpt>
      <trkpt lat="42.29494" lon="8.88188">
        <ele>1418.56</ele>
        <time>2015-06-24T06:01:55Z</time>
      </trkpt>
      <trkpt lat="42.29507" lon="8.88199">
        <ele>1419.04</ele>
        <time>2015-06-24T06:02:08Z</time>
      </trkpt>
      <trkpt lat="42.29511" lon="8.88207">
        <ele>1417.12</ele>
        <time>2015-06-24T06:02:15Z</time>
      </trkpt>
      <trkpt lat="42.29517" lon="8.8821">
        <ele>1416.16</ele>
        <time>2015-06-24T06:02:22Z</time>
      </trkpt>
      <trkpt lat="42.2952" lon="8.88214">
        <ele>1414.72</ele>
        <time>2015-06-24T06:02:26Z</time>
      </trkpt>
      <trkpt lat="42.29535" lon="8.88226">
        <ele>1413.76</ele>
        <time>2015-06-24T06:02:43Z</time>
      </trkpt>
      <trkpt lat="42.2955" lon="8.88238">
        <ele>1412.79</ele>
        <time>2015-06-24T06:02:57Z</time>
      </trkpt>
      <trkpt lat="42.29564" lon="8.88245">
        <ele>1410.87</ele>
        <time>2015-06-24T06:03:10Z</time>
      </trkpt>
      <trkpt lat="42.29583" lon="8.88252">
        <ele>1408.47</ele>
        <time>2015-06-24T06:03:27Z</time>
      </trkpt>
      <trkpt lat="42.29597" lon="8.88253">
        <ele>1407.51</ele>
        <time>2015-06-24T06:03:41Z</time>
      </trkpt>
      <trkpt lat="42.29607" lon="8.88243">
        <ele>1406.07</ele>
        <time>2015-06-24T06:03:53Z</time>
      </trkpt>
      <trkpt lat="42.29609" lon="8.88239">
        <ele>1405.1</ele>
        <time>2015-06-24T06:03:57Z</time>
      </trkpt>
      <trkpt lat="42.29624" lon="8.88221">
        <ele>1404.14</ele>
        <time>2015-06-24T06:04:13Z</time>
      </trkpt>
      <trkpt lat="42.29628" lon="8.88218">
        <ele>1403.66</ele>
        <time>2015-06-24T06:04:17Z</time>
      </trkpt>
      <trkpt lat="42.29639" lon="8.88205">
        <ele>1402.22</ele>
        <time>2015-06-24T06:04:30Z</time>
      </trkpt>
      <trkpt lat="42.29649" lon="8.88194">
        <ele>1401.74</ele>
        <time>2015-06-24T06:04:40Z</time>
      </trkpt>
      <trkpt lat="42.29663" lon="8.88179">
        <ele>1399.82</ele>
        <time>2015-06-24T06:04:55Z</time>
      </trkpt>
      <trkpt lat="42.2968" lon="8.88164">
        <ele>1395.97</ele>
        <time>2015-06-24T06:05:13Z</time>
      </trkpt>
      <trkpt lat="42.29691" lon="8.88155">
        <ele>1392.61</ele>
        <time>2015-06-24T06:05:26Z</time>
      </trkpt>
      <trkpt lat="42.297" lon="8.88143">
        <ele>1390.68</ele>
        <time>2015-06-24T06:05:37Z</time>
      </trkpt>
      <trkpt lat="42.29709" lon="8.8813">
        <ele>1388.28</ele>
        <time>2015-06-24T06:05:49Z</time>
      </trkpt>
      <trkpt lat="42.29709" lon="8.88119">
        <ele>1389.72</ele>
        <time>2015-06-24T06:05:59Z</time>
      </trkpt>
      <trkpt lat="42.29709" lon="8.88091">
        <ele>1389.24</ele>
        <time>2015-06-24T06:06:16Z</time>
      </trkpt>
      <trkpt lat="42.29709" lon="8.88089">
        <ele>1389.24</ele>
        <time>2015-06-24T06:06:17Z</time>
      </trkpt>
      <trkpt lat="42.29711" lon="8.88086">
        <ele>1388.28</ele>
        <time>2015-06-24T06:06:19Z</time>
      </trkpt>
      <trkpt lat="42.29715" lon="8.88066">
        <ele>1389.24</ele>
        <time>2015-06-24T06:06:35Z</time>
      </trkpt>
      <trkpt lat="42.29723" lon="8.88054">
        <ele>1389.24</ele>
        <time>2015-06-24T06:06:50Z</time>
      </trkpt>
      <trkpt lat="42.29725" lon="8.88054">
        <ele>1389.24</ele>
        <time>2015-06-24T06:06:52Z</time>
      </trkpt>
      <trkpt lat="42.2973" lon="8.88051">
        <ele>1390.2</ele>
        <time>2015-06-24T06:06:58Z</time>
      </trkpt>
      <trkpt lat="42.29741" lon="8.88043">
        <ele>1391.65</ele>
        <time>2015-06-24T06:07:12Z</time>
      </trkpt>
      <trkpt lat="42.29754" lon="8.88036">
        <ele>1393.57</ele>
        <time>2015-06-24T06:07:26Z</time>
      </trkpt>
      <trkpt lat="42.29767" lon="8.88039">
        <ele>1392.61</ele>
        <time>2015-06-24T06:07:39Z</time>
      </trkpt>
      <trkpt lat="42.29769" lon="8.88039">
        <ele>1392.61</ele>
        <time>2015-06-24T06:07:42Z</time>
      </trkpt>
      <trkpt lat="42.29778" lon="8.88055">
        <ele>1390.68</ele>
        <time>2015-06-24T06:07:57Z</time>
      </trkpt>
      <trkpt lat="42.2978" lon="8.88062">
        <ele>1389.24</ele>
        <time>2015-06-24T06:08:03Z</time>
      </trkpt>
      <trkpt lat="42.29791" lon="8.88066">
        <ele>1387.8</ele>
        <time>2015-06-24T06:08:17Z</time>
      </trkpt>
      <trkpt lat="42.29799" lon="8.88066">
        <ele>1388.28</ele>
        <time>2015-06-24T06:08:26Z</time>
      </trkpt>
      <trkpt lat="42.29803" lon="8.88064">
        <ele>1388.76</ele>
        <time>2015-06-24T06:08:30Z</time>
      </trkpt>
      <trkpt lat="42.29812" lon="8.88066">
        <ele>1387.8</ele>
        <time>2015-06-24T06:08:43Z</time>
      </trkpt>
      <trkpt lat="42.29818" lon="8.88063">
        <ele>1386.84</ele>
        <time>2015-06-24T06:08:53Z</time>
      </trkpt>
      <trkpt lat="42.2982" lon="8.88061">
        <ele>1387.32</ele>
        <time>2015-06-24T06:08:55Z</time>
      </trkpt>
      <trkpt lat="42.2983" lon="8.88064">
        <ele>1386.36</ele>
        <time>2015-06-24T06:09:09Z</time>
      </trkpt>
      <trkpt lat="42.29837" lon="8.88078">
        <ele>1384.44</ele>
        <time>2015-06-24T06:09:24Z</time>
      </trkpt>
      <trkpt lat="42.29849" lon="8.88085">
        <ele>1382.03</ele>
        <time>2015-06-24T06:09:41Z</time>
      </trkpt>
      <trkpt lat="42.29853" lon="8.88088">
        <ele>1381.55</ele>
        <time>2015-06-24T06:09:46Z</time>
      </trkpt>
      <trkpt lat="42.29866" lon="8.88098">
        <ele>1380.11</ele>
        <time>2015-06-24T06:10:02Z</time>
      </trkpt>
      <trkpt lat="42.29868" lon="8.88099">
        <ele>1380.11</ele>
        <time>2015-06-24T06:10:04Z</time>
      </trkpt>
      <trkpt lat="42.29878" lon="8.88111">
        <ele>1378.67</ele>
        <time>2015-06-24T06:10:19Z</time>
      </trkpt>
      <trkpt lat="42.29888" lon="8.8812">
        <ele>1378.19</ele>
        <time>2015-06-24T06:10:32Z</time>
      </trkpt>
      <trkpt lat="42.29892" lon="8.88122">
        <ele>1377.71</ele>
        <time>2015-06-24T06:10:37Z</time>
      </trkpt>
      <trkpt lat="42.29901" lon="8.88116">
        <ele>1377.23</ele>
        <time>2015-06-24T06:10:51Z</time>
      </trkpt>
      <trkpt lat="42.29908" lon="8.88121">
        <ele>1377.23</ele>
        <time>2015-06-24T06:11:04Z</time>
      </trkpt>
      <trkpt lat="42.2991" lon="8.8812">
        <ele>1378.19</ele>
        <time>2015-06-24T06:11:08Z</time>
      </trkpt>
      <trkpt lat="42.29912" lon="8.88119">
        <ele>1377.71</ele>
        <time>2015-06-24T06:11:10Z</time>
      </trkpt>
      <trkpt lat="42.29918" lon="8.88124">
        <ele>1377.71</ele>
        <time>2015-06-24T06:11:18Z</time>
      </trkpt>
      <trkpt lat="42.29926" lon="8.88134">
        <ele>1376.75</ele>
        <time>2015-06-24T06:11:32Z</time>
      </trkpt>
      <trkpt lat="42.29937" lon="8.88134">
        <ele>1375.78</ele>
        <time>2015-06-24T06:11:46Z</time>
      </trkpt>
      <trkpt lat="42.29946" lon="8.88148">
        <ele>1374.34</ele>
        <time>2015-06-24T06:12:00Z</time>
      </trkpt>
      <trkpt lat="42.29953" lon="8.88157">
        <ele>1372.42</ele>
        <time>2015-06-24T06:12:13Z</time>
      </trkpt>
      <trkpt lat="42.29955" lon="8.88158">
        <ele>1371.46</ele>
        <time>2015-06-24T06:12:17Z</time>
      </trkpt>
      <trkpt lat="42.29958" lon="8.88158">
        <ele>1371.46</ele>
        <time>2015-06-24T06:12:20Z</time>
      </trkpt>
      <trkpt lat="42.29965" lon="8.88172">
        <ele>1370.5</ele>
        <time>2015-06-24T06:12:33Z</time>
      </trkpt>
      <trkpt lat="42.29977" lon="8.88185">
        <ele>1371.94</ele>
        <time>2015-06-24T06:12:47Z</time>
      </trkpt>
      <trkpt lat="42.29987" lon="8.882">
        <ele>1375.78</ele>
        <time>2015-06-24T06:13:03Z</time>
      </trkpt>
      <trkpt lat="42.29998" lon="8.8821">
        <ele>1378.67</ele>
        <time>2015-06-24T06:13:19Z</time>
      </trkpt>
      <trkpt lat="42.30003" lon="8.88228">
        <ele>1381.07</ele>
        <time>2015-06-24T06:13:33Z</time>
      </trkpt>
      <trkpt lat="42.30003" lon="8.88231">
        <ele>1381.07</ele>
        <time>2015-06-24T06:13:35Z</time>
      </trkpt>
      <trkpt lat="42.30013" lon="8.8824">
        <ele>1384.44</ele>
        <time>2015-06-24T06:13:51Z</time>
      </trkpt>
      <trkpt lat="42.30015" lon="8.88236">
        <ele>1384.92</ele>
        <time>2015-06-24T06:13:55Z</time>
      </trkpt>
      <trkpt lat="42.30014" lon="8.88222">
        <ele>1386.36</ele>
        <time>2015-06-24T06:14:08Z</time>
      </trkpt>
      <trkpt lat="42.30021" lon="8.88205">
        <ele>1387.8</ele>
        <time>2015-06-24T06:14:23Z</time>
      </trkpt>
      <trkpt lat="42.30024" lon="8.88193">
        <ele>1387.32</ele>
        <time>2015-06-24T06:14:37Z</time>
      </trkpt>
      <trkpt lat="42.30025" lon="8.88186">
        <ele>1387.32</ele>
        <time>2015-06-24T06:14:42Z</time>
      </trkpt>
      <trkpt lat="42.30027" lon="8.88178">
        <ele>1387.32</ele>
        <time>2015-06-24T06:14:48Z</time>
      </trkpt>
      <trkpt lat="42.30032" lon="8.8817">
        <ele>1385.88</ele>
        <time>2015-06-24T06:14:55Z</time>
      </trkpt>
      <trkpt lat="42.30035" lon="8.88165">
        <ele>1384.92</ele>
        <time>2015-06-24T06:14:59Z</time>
      </trkpt>
      <trkpt lat="42.30046" lon="8.88147">
        <ele>1382.99</ele>
        <time>2015-06-24T06:15:15Z</time>
      </trkpt>
      <trkpt lat="42.30051" lon="8.88138">
        <ele>1380.59</ele>
        <time>2015-06-24T06:15:25Z</time>
      </trkpt>
      <trkpt lat="42.30058" lon="8.88117">
        <ele>1378.19</ele>
        <time>2015-06-24T06:15:40Z</time>
      </trkpt>
      <trkpt lat="42.30064" lon="8.881">
        <ele>1379.15</ele>
        <time>2015-06-24T06:15:55Z</time>
      </trkpt>
      <trkpt lat="42.30075" lon="8.8809">
        <ele>1375.78</ele>
        <time>2015-06-24T06:16:09Z</time>
      </trkpt>
      <trkpt lat="42.30081" lon="8.8808">
        <ele>1374.82</ele>
        <time>2015-06-24T06:16:18Z</time>
      </trkpt>
      <trkpt lat="42.30081" lon="8.88076">
        <ele>1374.82</ele>
        <time>2015-06-24T06:16:21Z</time>
      </trkpt>
      <trkpt lat="42.30084" lon="8.8807">
        <ele>1374.82</ele>
        <time>2015-06-24T06:16:27Z</time>
      </trkpt>
      <trkpt lat="42.30091" lon="8.88051">
        <ele>1375.3</ele>
        <time>2015-06-24T06:16:41Z</time>
      </trkpt>
      <trkpt lat="42.30099" lon="8.88032">
        <ele>1377.23</ele>
        <time>2015-06-24T06:16:57Z</time>
      </trkpt>
      <trkpt lat="42.30108" lon="8.88013">
        <ele>1376.26</ele>
        <time>2015-06-24T06:17:13Z</time>
      </trkpt>
      <trkpt lat="42.3012" lon="8.87997">
        <ele>1374.82</ele>
        <time>2015-06-24T06:17:28Z</time>
      </trkpt>
      <trkpt lat="42.30129" lon="8.87981">
        <ele>1375.78</ele>
        <time>2015-06-24T06:17:43Z</time>
      </trkpt>
      <trkpt lat="42.3013" lon="8.87979">
        <ele>1375.78</ele>
        <time>2015-06-24T06:17:45Z</time>
      </trkpt>
      <trkpt lat="42.30144" lon="8.87958">
        <ele>1375.3</ele>
        <time>2015-06-24T06:18:02Z</time>
      </trkpt>
      <trkpt lat="42.3015" lon="8.87943">
        <ele>1373.86</ele>
        <time>2015-06-24T06:18:17Z</time>
      </trkpt>
      <trkpt lat="42.30151" lon="8.87928">
        <ele>1375.3</ele>
        <time>2015-06-24T06:18:31Z</time>
      </trkpt>
      <trkpt lat="42.30155" lon="8.87921">
        <ele>1376.26</ele>
        <time>2015-06-24T06:18:37Z</time>
      </trkpt>
      <trkpt lat="42.30164" lon="8.87906">
        <ele>1373.86</ele>
        <time>2015-06-24T06:18:52Z</time>
      </trkpt>
      <trkpt lat="42.30168" lon="8.87899">
        <ele>1373.38</ele>
        <time>2015-06-24T06:18:57Z</time>
      </trkpt>
      <trkpt lat="42.30176" lon="8.87879">
        <ele>1371.46</ele>
        <time>2015-06-24T06:19:14Z</time>
      </trkpt>
      <trkpt lat="42.30177" lon="8.87876">
        <ele>1371.94</ele>
        <time>2015-06-24T06:19:17Z</time>
      </trkpt>
      <trkpt lat="42.30182" lon="8.87858">
        <ele>1372.9</ele>
        <time>2015-06-24T06:19:30Z</time>
      </trkpt>
      <trkpt lat="42.30186" lon="8.87838">
        <ele>1372.9</ele>
        <time>2015-06-24T06:19:43Z</time>
      </trkpt>
      <trkpt lat="42.30188" lon="8.87817">
        <ele>1370.5</ele>
        <time>2015-06-24T06:19:58Z</time>
      </trkpt>
      <trkpt lat="42.30185" lon="8.87801">
        <ele>1368.57</ele>
        <time>2015-06-24T06:20:12Z</time>
      </trkpt>
      <trkpt lat="42.30185" lon="8.87792">
        <ele>1369.05</ele>
        <time>2015-06-24T06:20:18Z</time>
      </trkpt>
      <trkpt lat="42.30189" lon="8.87785">
        <ele>1369.05</ele>
        <time>2015-06-24T06:20:24Z</time>
      </trkpt>
      <trkpt lat="42.302" lon="8.87781">
        <ele>1369.54</ele>
        <time>2015-06-24T06:20:33Z</time>
      </trkpt>
      <trkpt lat="42.30204" lon="8.87779">
        <ele>1370.02</ele>
        <time>2015-06-24T06:20:37Z</time>
      </trkpt>
      <trkpt lat="42.3021" lon="8.87776">
        <ele>1369.05</ele>
        <time>2015-06-24T06:20:42Z</time>
      </trkpt>
      <trkpt lat="42.30215" lon="8.87758">
        <ele>1370.02</ele>
        <time>2015-06-24T06:20:56Z</time>
      </trkpt>
      <trkpt lat="42.30222" lon="8.87739">
        <ele>1369.54</ele>
        <time>2015-06-24T06:21:11Z</time>
      </trkpt>
      <trkpt lat="42.30231" lon="8.8772">
        <ele>1370.02</ele>
        <time>2015-06-24T06:21:25Z</time>
      </trkpt>
      <trkpt lat="42.30241" lon="8.87709">
        <ele>1370.5</ele>
        <time>2015-06-24T06:21:39Z</time>
      </trkpt>
      <trkpt lat="42.30246" lon="8.87705">
        <ele>1371.46</ele>
        <time>2015-06-24T06:21:45Z</time>
      </trkpt>
      <trkpt lat="42.30262" lon="8.87697">
        <ele>1371.46</ele>
        <time>2015-06-24T06:22:02Z</time>
      </trkpt>
      <trkpt lat="42.30277" lon="8.87692">
        <ele>1370.98</ele>
        <time>2015-06-24T06:22:18Z</time>
      </trkpt>
      <trkpt lat="42.3028" lon="8.8768">
        <ele>1372.9</ele>
        <time>2015-06-24T06:22:33Z</time>
      </trkpt>
      <trkpt lat="42.30287" lon="8.87668">
        <ele>1374.82</ele>
        <time>2015-06-24T06:22:47Z</time>
      </trkpt>
      <trkpt lat="42.30291" lon="8.8766">
        <ele>1374.82</ele>
        <time>2015-06-24T06:23:01Z</time>
      </trkpt>
      <trkpt lat="42.30298" lon="8.87654">
        <ele>1371.94</ele>
        <time>2015-06-24T06:23:15Z</time>
      </trkpt>
      <trkpt lat="42.30299" lon="8.87652">
        <ele>1371.46</ele>
        <time>2015-06-24T06:23:17Z</time>
      </trkpt>
      <trkpt lat="42.30302" lon="8.87632">
        <ele>1371.46</ele>
        <time>2015-06-24T06:23:32Z</time>
      </trkpt>
      <trkpt lat="42.30305" lon="8.87615">
        <ele>1373.38</ele>
        <time>2015-06-24T06:23:48Z</time>
      </trkpt>
      <trkpt lat="42.30308" lon="8.87601">
        <ele>1375.3</ele>
        <time>2015-06-24T06:24:03Z</time>
      </trkpt>
      <trkpt lat="42.30311" lon="8.87589">
        <ele>1376.75</ele>
        <time>2015-06-24T06:24:18Z</time>
      </trkpt>
      <trkpt lat="42.30313" lon="8.87583">
        <ele>1376.75</ele>
        <time>2015-06-24T06:24:30Z</time>
      </trkpt>
      <trkpt lat="42.30315" lon="8.87587">
        <ele>1376.75</ele>
        <time>2015-06-24T06:24:58Z</time>
      </trkpt>
      <trkpt lat="42.30309" lon="8.87587">
        <ele>1377.23</ele>
        <time>2015-06-24T06:25:12Z</time>
      </trkpt>
      <trkpt lat="42.30313" lon="8.87585">
        <ele>1376.75</ele>
        <time>2015-06-24T06:25:31Z</time>
      </trkpt>
      <trkpt lat="42.30312" lon="8.87585">
        <ele>1376.26</ele>
        <time>2015-06-24T06:25:52Z</time>
      </trkpt>
      <trkpt lat="42.30314" lon="8.8758">
        <ele>1375.78</ele>
        <time>2015-06-24T06:26:06Z</time>
      </trkpt>
      <trkpt lat="42.30314" lon="8.87563">
        <ele>1377.23</ele>
        <time>2015-06-24T06:26:21Z</time>
      </trkpt>
      <trkpt lat="42.30309" lon="8.87555">
        <ele>1379.63</ele>
        <time>2015-06-24T06:26:38Z</time>
      </trkpt>
      <trkpt lat="42.30309" lon="8.87548">
        <ele>1381.55</ele>
        <time>2015-06-24T06:26:53Z</time>
      </trkpt>
      <trkpt lat="42.30305" lon="8.87547">
        <ele>1383.96</ele>
        <time>2015-06-24T06:27:08Z</time>
      </trkpt>
      <trkpt lat="42.30299" lon="8.87552">
        <ele>1384.92</ele>
        <time>2015-06-24T06:27:26Z</time>
      </trkpt>
      <trkpt lat="42.30307" lon="8.87538">
        <ele>1385.4</ele>
        <time>2015-06-24T06:27:44Z</time>
      </trkpt>
      <trkpt lat="42.30313" lon="8.87533">
        <ele>1387.8</ele>
        <time>2015-06-24T06:28:03Z</time>
      </trkpt>
      <trkpt lat="42.30321" lon="8.87525">
        <ele>1389.72</ele>
        <time>2015-06-24T06:28:18Z</time>
      </trkpt>
      <trkpt lat="42.30326" lon="8.87516">
        <ele>1390.68</ele>
        <time>2015-06-24T06:28:30Z</time>
      </trkpt>
      <trkpt lat="42.30335" lon="8.8751">
        <ele>1393.09</ele>
        <time>2015-06-24T06:28:44Z</time>
      </trkpt>
      <trkpt lat="42.3034" lon="8.87496">
        <ele>1393.09</ele>
        <time>2015-06-24T06:28:58Z</time>
      </trkpt>
      <trkpt lat="42.30349" lon="8.87489">
        <ele>1392.13</ele>
        <time>2015-06-24T06:29:14Z</time>
      </trkpt>
      <trkpt lat="42.30352" lon="8.87499">
        <ele>1393.09</ele>
        <time>2015-06-24T06:29:29Z</time>
      </trkpt>
      <trkpt lat="42.30357" lon="8.8751">
        <ele>1394.05</ele>
        <time>2015-06-24T06:29:42Z</time>
      </trkpt>
      <trkpt lat="42.30359" lon="8.87515">
        <ele>1393.57</ele>
        <time>2015-06-24T06:29:55Z</time>
      </trkpt>
      <trkpt lat="42.30366" lon="8.87521">
        <ele>1394.53</ele>
        <time>2015-06-24T06:30:09Z</time>
      </trkpt>
      <trkpt lat="42.30373" lon="8.87531">
        <ele>1393.57</ele>
        <time>2015-06-24T06:30:21Z</time>
      </trkpt>
      <trkpt lat="42.30377" lon="8.87529">
        <ele>1394.53</ele>
        <time>2015-06-24T06:30:27Z</time>
      </trkpt>
      <trkpt lat="42.30385" lon="8.87531">
        <ele>1395.97</ele>
        <time>2015-06-24T06:30:37Z</time>
      </trkpt>
      <trkpt lat="42.3039" lon="8.87543">
        <ele>1393.57</ele>
        <time>2015-06-24T06:30:49Z</time>
      </trkpt>
      <trkpt lat="42.30392" lon="8.87553">
        <ele>1390.2</ele>
        <time>2015-06-24T06:31:03Z</time>
      </trkpt>
      <trkpt lat="42.30398" lon="8.87562">
        <ele>1387.8</ele>
        <time>2015-06-24T06:31:16Z</time>
      </trkpt>
      <trkpt lat="42.30403" lon="8.8756">
        <ele>1386.84</ele>
        <time>2015-06-24T06:31:28Z</time>
      </trkpt>
      <trkpt lat="42.30404" lon="8.87557">
        <ele>1386.84</ele>
        <time>2015-06-24T06:31:32Z</time>
      </trkpt>
      <trkpt lat="42.3041" lon="8.87561">
        <ele>1384.92</ele>
        <time>2015-06-24T06:31:43Z</time>
      </trkpt>
      <trkpt lat="42.30417" lon="8.87566">
        <ele>1382.51</ele>
        <time>2015-06-24T06:31:57Z</time>
      </trkpt>
      <trkpt lat="42.30418" lon="8.87568">
        <ele>1381.55</ele>
        <time>2015-06-24T06:32:00Z</time>
      </trkpt>
      <trkpt lat="42.30425" lon="8.87567">
        <ele>1382.51</ele>
        <time>2015-06-24T06:32:08Z</time>
      </trkpt>
      <trkpt lat="42.30435" lon="8.87568">
        <ele>1382.03</ele>
        <time>2015-06-24T06:32:22Z</time>
      </trkpt>
      <trkpt lat="42.30436" lon="8.87569">
        <ele>1381.55</ele>
        <time>2015-06-24T06:32:23Z</time>
      </trkpt>
      <trkpt lat="42.30446" lon="8.87582">
        <ele>1379.15</ele>
        <time>2015-06-24T06:32:38Z</time>
      </trkpt>
      <trkpt lat="42.30453" lon="8.87597">
        <ele>1379.63</ele>
        <time>2015-06-24T06:32:50Z</time>
      </trkpt>
      <trkpt lat="42.30463" lon="8.8761">
        <ele>1380.59</ele>
        <time>2015-06-24T06:33:03Z</time>
      </trkpt>
      <trkpt lat="42.30468" lon="8.87615">
        <ele>1382.99</ele>
        <time>2015-06-24T06:33:15Z</time>
      </trkpt>
      <trkpt lat="42.30467" lon="8.87614">
        <ele>1382.99</ele>
        <time>2015-06-24T06:33:16Z</time>
      </trkpt>
      <trkpt lat="42.30468" lon="8.87613">
        <ele>1383.47</ele>
        <time>2015-06-24T06:33:21Z</time>
      </trkpt>
      <trkpt lat="42.3047" lon="8.87619">
        <ele>1384.44</ele>
        <time>2015-06-24T06:33:25Z</time>
      </trkpt>
      <trkpt lat="42.30474" lon="8.87637">
        <ele>1385.88</ele>
        <time>2015-06-24T06:33:40Z</time>
      </trkpt>
      <trkpt lat="42.30476" lon="8.87639">
        <ele>1385.4</ele>
        <time>2015-06-24T06:33:44Z</time>
      </trkpt>
      <trkpt lat="42.30491" lon="8.8765">
        <ele>1386.36</ele>
        <time>2015-06-24T06:33:59Z</time>
      </trkpt>
      <trkpt lat="42.30494" lon="8.8765">
        <ele>1386.84</ele>
        <time>2015-06-24T06:34:03Z</time>
      </trkpt>
      <trkpt lat="42.30506" lon="8.87655">
        <ele>1388.28</ele>
        <time>2015-06-24T06:34:16Z</time>
      </trkpt>
      <trkpt lat="42.30511" lon="8.87666">
        <ele>1386.84</ele>
        <time>2015-06-24T06:34:24Z</time>
      </trkpt>
      <trkpt lat="42.30525" lon="8.87676">
        <ele>1388.28</ele>
        <time>2015-06-24T06:34:39Z</time>
      </trkpt>
      <trkpt lat="42.30531" lon="8.87681">
        <ele>1389.72</ele>
        <time>2015-06-24T06:34:47Z</time>
      </trkpt>
      <trkpt lat="42.30542" lon="8.87691">
        <ele>1392.13</ele>
        <time>2015-06-24T06:35:03Z</time>
      </trkpt>
      <trkpt lat="42.30547" lon="8.87705">
        <ele>1395.49</ele>
        <time>2015-06-24T06:35:18Z</time>
      </trkpt>
      <trkpt lat="42.30551" lon="8.87708">
        <ele>1395.97</ele>
        <time>2015-06-24T06:35:23Z</time>
      </trkpt>
      <trkpt lat="42.3056" lon="8.8771">
        <ele>1396.93</ele>
        <time>2015-06-24T06:35:32Z</time>
      </trkpt>
      <trkpt lat="42.30574" lon="8.87711">
        <ele>1396.93</ele>
        <time>2015-06-24T06:35:47Z</time>
      </trkpt>
      <trkpt lat="42.30584" lon="8.87707">
        <ele>1396.93</ele>
        <time>2015-06-24T06:35:59Z</time>
      </trkpt>
      <trkpt lat="42.30594" lon="8.87709">
        <ele>1396.93</ele>
        <time>2015-06-24T06:36:10Z</time>
      </trkpt>
      <trkpt lat="42.30606" lon="8.87712">
        <ele>1395.97</ele>
        <time>2015-06-24T06:36:22Z</time>
      </trkpt>
      <trkpt lat="42.30617" lon="8.8772">
        <ele>1395.49</ele>
        <time>2015-06-24T06:36:36Z</time>
      </trkpt>
      <trkpt lat="42.30627" lon="8.87722">
        <ele>1396.93</ele>
        <time>2015-06-24T06:36:49Z</time>
      </trkpt>
      <trkpt lat="42.30631" lon="8.87725">
        <ele>1397.41</ele>
        <time>2015-06-24T06:36:54Z</time>
      </trkpt>
      <trkpt lat="42.30636" lon="8.87741">
        <ele>1397.41</ele>
        <time>2015-06-24T06:37:07Z</time>
      </trkpt>
      <trkpt lat="42.30641" lon="8.87758">
        <ele>1397.89</ele>
        <time>2015-06-24T06:37:22Z</time>
      </trkpt>
      <trkpt lat="42.30645" lon="8.87766">
        <ele>1399.82</ele>
        <time>2015-06-24T06:37:35Z</time>
      </trkpt>
      <trkpt lat="42.30648" lon="8.87769">
        <ele>1402.7</ele>
        <time>2015-06-24T06:37:50Z</time>
      </trkpt>
      <trkpt lat="42.30648" lon="8.87774">
        <ele>1404.14</ele>
        <time>2015-06-24T06:38:03Z</time>
      </trkpt>
      <trkpt lat="42.30649" lon="8.87771">
        <ele>1405.1</ele>
        <time>2015-06-24T06:38:15Z</time>
      </trkpt>
      <trkpt lat="42.30657" lon="8.87769">
        <ele>1407.03</ele>
        <time>2015-06-24T06:38:27Z</time>
      </trkpt>
      <trkpt lat="42.30665" lon="8.87766">
        <ele>1408.47</ele>
        <time>2015-06-24T06:38:38Z</time>
      </trkpt>
      <trkpt lat="42.30673" lon="8.87764">
        <ele>1408.95</ele>
        <time>2015-06-24T06:38:50Z</time>
      </trkpt>
      <trkpt lat="42.30678" lon="8.87761">
        <ele>1409.43</ele>
        <time>2015-06-24T06:38:57Z</time>
      </trkpt>
      <trkpt lat="42.30688" lon="8.87761">
        <ele>1411.35</ele>
        <time>2015-06-24T06:39:11Z</time>
      </trkpt>
      <trkpt lat="42.30696" lon="8.87759">
        <ele>1413.28</ele>
        <time>2015-06-24T06:39:26Z</time>
      </trkpt>
      <trkpt lat="42.30704" lon="8.87757">
        <ele>1415.68</ele>
        <time>2015-06-24T06:39:42Z</time>
      </trkpt>
      <trkpt lat="42.3071" lon="8.87757">
        <ele>1417.6</ele>
        <time>2015-06-24T06:39:55Z</time>
      </trkpt>
      <trkpt lat="42.3072" lon="8.87752">
        <ele>1419.04</ele>
        <time>2015-06-24T06:40:09Z</time>
      </trkpt>
      <trkpt lat="42.3073" lon="8.87747">
        <ele>1420.49</ele>
        <time>2015-06-24T06:40:22Z</time>
      </trkpt>
      <trkpt lat="42.30739" lon="8.87746">
        <ele>1421.45</ele>
        <time>2015-06-24T06:40:35Z</time>
      </trkpt>
      <trkpt lat="42.3074" lon="8.87746">
        <ele>1421.93</ele>
        <time>2015-06-24T06:40:36Z</time>
      </trkpt>
      <trkpt lat="42.30749" lon="8.87741">
        <ele>1422.89</ele>
        <time>2015-06-24T06:40:49Z</time>
      </trkpt>
      <trkpt lat="42.30761" lon="8.87737">
        <ele>1423.85</ele>
        <time>2015-06-24T06:41:02Z</time>
      </trkpt>
      <trkpt lat="42.30769" lon="8.87735">
        <ele>1427.21</ele>
        <time>2015-06-24T06:41:19Z</time>
      </trkpt>
      <trkpt lat="42.30777" lon="8.87734">
        <ele>1428.66</ele>
        <time>2015-06-24T06:41:32Z</time>
      </trkpt>
      <trkpt lat="42.30789" lon="8.87726">
        <ele>1430.58</ele>
        <time>2015-06-24T06:41:47Z</time>
      </trkpt>
      <trkpt lat="42.30797" lon="8.87718">
        <ele>1431.54</ele>
        <time>2015-06-24T06:42:01Z</time>
      </trkpt>
      <trkpt lat="42.30806" lon="8.87719">
        <ele>1432.98</ele>
        <time>2015-06-24T06:42:13Z</time>
      </trkpt>
      <trkpt lat="42.30806" lon="8.87721">
        <ele>1433.46</ele>
        <time>2015-06-24T06:42:14Z</time>
      </trkpt>
      <trkpt lat="42.30804" lon="8.87736">
        <ele>1435.87</ele>
        <time>2015-06-24T06:42:31Z</time>
      </trkpt>
      <trkpt lat="42.30809" lon="8.87728">
        <ele>1438.27</ele>
        <time>2015-06-24T06:42:44Z</time>
      </trkpt>
      <trkpt lat="42.30818" lon="8.87717">
        <ele>1438.75</ele>
        <time>2015-06-24T06:42:57Z</time>
      </trkpt>
      <trkpt lat="42.30827" lon="8.87701">
        <ele>1440.67</ele>
        <time>2015-06-24T06:43:14Z</time>
      </trkpt>
      <trkpt lat="42.30833" lon="8.87705">
        <ele>1442.11</ele>
        <time>2015-06-24T06:43:26Z</time>
      </trkpt>
      <trkpt lat="42.30834" lon="8.87708">
        <ele>1444.52</ele>
        <time>2015-06-24T06:43:40Z</time>
      </trkpt>
      <trkpt lat="42.30839" lon="8.87699">
        <ele>1446.44</ele>
        <time>2015-06-24T06:43:53Z</time>
      </trkpt>
      <trkpt lat="42.30846" lon="8.8769">
        <ele>1449.32</ele>
        <time>2015-06-24T06:44:08Z</time>
      </trkpt>
      <trkpt lat="42.30854" lon="8.87687">
        <ele>1451.25</ele>
        <time>2015-06-24T06:44:22Z</time>
      </trkpt>
      <trkpt lat="42.30862" lon="8.87679">
        <ele>1452.69</ele>
        <time>2015-06-24T06:44:38Z</time>
      </trkpt>
      <trkpt lat="42.30867" lon="8.87678">
        <ele>1454.13</ele>
        <time>2015-06-24T06:44:51Z</time>
      </trkpt>
      <trkpt lat="42.30874" lon="8.87672">
        <ele>1455.57</ele>
        <time>2015-06-24T06:45:05Z</time>
      </trkpt>
      <trkpt lat="42.30879" lon="8.8766">
        <ele>1457.98</ele>
        <time>2015-06-24T06:45:21Z</time>
      </trkpt>
      <trkpt lat="42.30887" lon="8.8765">
        <ele>1458.94</ele>
        <time>2015-06-24T06:45:35Z</time>
      </trkpt>
      <trkpt lat="42.30894" lon="8.87649">
        <ele>1460.86</ele>
        <time>2015-06-24T06:45:50Z</time>
      </trkpt>
      <trkpt lat="42.30896" lon="8.87638">
        <ele>1463.26</ele>
        <time>2015-06-24T06:46:04Z</time>
      </trkpt>
      <trkpt lat="42.309" lon="8.87635">
        <ele>1466.15</ele>
        <time>2015-06-24T06:46:17Z</time>
      </trkpt>
      <trkpt lat="42.30906" lon="8.87622">
        <ele>1467.11</ele>
        <time>2015-06-24T06:46:32Z</time>
      </trkpt>
      <trkpt lat="42.30916" lon="8.8761">
        <ele>1467.11</ele>
        <time>2015-06-24T06:46:45Z</time>
      </trkpt>
      <trkpt lat="42.30919" lon="8.87597">
        <ele>1466.15</ele>
        <time>2015-06-24T06:46:59Z</time>
      </trkpt>
      <trkpt lat="42.30923" lon="8.87593">
        <ele>1465.19</ele>
        <time>2015-06-24T06:47:04Z</time>
      </trkpt>
      <trkpt lat="42.30933" lon="8.87579">
        <ele>1467.11</ele>
        <time>2015-06-24T06:47:20Z</time>
      </trkpt>
      <trkpt lat="42.30938" lon="8.87578">
        <ele>1468.55</ele>
        <time>2015-06-24T06:47:32Z</time>
      </trkpt>
      <trkpt lat="42.30946" lon="8.87569">
        <ele>1470.95</ele>
        <time>2015-06-24T06:47:48Z</time>
      </trkpt>
      <trkpt lat="42.30952" lon="8.87558">
        <ele>1472.4</ele>
        <time>2015-06-24T06:48:01Z</time>
      </trkpt>
      <trkpt lat="42.30956" lon="8.87541">
        <ele>1471.92</ele>
        <time>2015-06-24T06:48:16Z</time>
      </trkpt>
      <trkpt lat="42.30965" lon="8.87535">
        <ele>1473.84</ele>
        <time>2015-06-24T06:48:30Z</time>
      </trkpt>
      <trkpt lat="42.3097" lon="8.87532">
        <ele>1476.24</ele>
        <time>2015-06-24T06:48:43Z</time>
      </trkpt>
      <trkpt lat="42.30973" lon="8.87528">
        <ele>1477.68</ele>
        <time>2015-06-24T06:48:56Z</time>
      </trkpt>
      <trkpt lat="42.30973" lon="8.87533">
        <ele>1478.65</ele>
        <time>2015-06-24T06:49:15Z</time>
      </trkpt>
      <trkpt lat="42.30973" lon="8.8753">
        <ele>1478.65</ele>
        <time>2015-06-24T06:49:46Z</time>
      </trkpt>
      <trkpt lat="42.30973" lon="8.87533">
        <ele>1478.65</ele>
        <time>2015-06-24T06:50:14Z</time>
      </trkpt>
      <trkpt lat="42.30976" lon="8.87534">
        <ele>1478.16</ele>
        <time>2015-06-24T06:50:46Z</time>
      </trkpt>
      <trkpt lat="42.30978" lon="8.87536">
        <ele>1478.65</ele>
        <time>2015-06-24T06:51:12Z</time>
      </trkpt>
      <trkpt lat="42.3098" lon="8.87531">
        <ele>1480.09</ele>
        <time>2015-06-24T06:51:28Z</time>
      </trkpt>
      <trkpt lat="42.30983" lon="8.87527">
        <ele>1482.01</ele>
        <time>2015-06-24T06:51:42Z</time>
      </trkpt>
      <trkpt lat="42.30988" lon="8.87518">
        <ele>1484.89</ele>
        <time>2015-06-24T06:51:58Z</time>
      </trkpt>
      <trkpt lat="42.30992" lon="8.87507">
        <ele>1486.82</ele>
        <time>2015-06-24T06:52:13Z</time>
      </trkpt>
      <trkpt lat="42.30998" lon="8.87498">
        <ele>1489.22</ele>
        <time>2015-06-24T06:52:28Z</time>
      </trkpt>
      <trkpt lat="42.31" lon="8.87492">
        <ele>1491.14</ele>
        <time>2015-06-24T06:52:42Z</time>
      </trkpt>
      <trkpt lat="42.30996" lon="8.87484">
        <ele>1492.58</ele>
        <time>2015-06-24T06:52:56Z</time>
      </trkpt>
      <trkpt lat="42.31" lon="8.87463">
        <ele>1493.55</ele>
        <time>2015-06-24T06:53:11Z</time>
      </trkpt>
      <trkpt lat="42.31003" lon="8.87452">
        <ele>1495.47</ele>
        <time>2015-06-24T06:53:24Z</time>
      </trkpt>
      <trkpt lat="42.31004" lon="8.87448">
        <ele>1496.91</ele>
        <time>2015-06-24T06:53:32Z</time>
      </trkpt>
      <trkpt lat="42.31004" lon="8.87441">
        <ele>1496.91</ele>
        <time>2015-06-24T06:53:39Z</time>
      </trkpt>
      <trkpt lat="42.31001" lon="8.87419">
        <ele>1498.35</ele>
        <time>2015-06-24T06:53:57Z</time>
      </trkpt>
      <trkpt lat="42.31001" lon="8.87406">
        <ele>1499.79</ele>
        <time>2015-06-24T06:54:11Z</time>
      </trkpt>
      <trkpt lat="42.30998" lon="8.87391">
        <ele>1501.24</ele>
        <time>2015-06-24T06:54:25Z</time>
      </trkpt>
      <trkpt lat="42.31001" lon="8.87385">
        <ele>1502.2</ele>
        <time>2015-06-24T06:54:32Z</time>
      </trkpt>
      <trkpt lat="42.31" lon="8.87381">
        <ele>1503.64</ele>
        <time>2015-06-24T06:54:39Z</time>
      </trkpt>
      <trkpt lat="42.30995" lon="8.87364">
        <ele>1504.6</ele>
        <time>2015-06-24T06:54:56Z</time>
      </trkpt>
      <trkpt lat="42.30991" lon="8.87356">
        <ele>1505.56</ele>
        <time>2015-06-24T06:55:05Z</time>
      </trkpt>
      <trkpt lat="42.30987" lon="8.87338">
        <ele>1507.97</ele>
        <time>2015-06-24T06:55:22Z</time>
      </trkpt>
      <trkpt lat="42.30989" lon="8.87327">
        <ele>1509.41</ele>
        <time>2015-06-24T06:55:36Z</time>
      </trkpt>
      <trkpt lat="42.30986" lon="8.87317">
        <ele>1511.81</ele>
        <time>2015-06-24T06:55:54Z</time>
      </trkpt>
      <trkpt lat="42.30985" lon="8.873">
        <ele>1513.25</ele>
        <time>2015-06-24T06:56:10Z</time>
      </trkpt>
      <trkpt lat="42.30994" lon="8.87294">
        <ele>1514.69</ele>
        <time>2015-06-24T06:56:22Z</time>
      </trkpt>
      <trkpt lat="42.30997" lon="8.87285">
        <ele>1516.62</ele>
        <time>2015-06-24T06:56:36Z</time>
      </trkpt>
      <trkpt lat="42.31001" lon="8.87279">
        <ele>1519.02</ele>
        <time>2015-06-24T06:56:50Z</time>
      </trkpt>
      <trkpt lat="42.31003" lon="8.87268">
        <ele>1519.98</ele>
        <time>2015-06-24T06:57:06Z</time>
      </trkpt>
      <trkpt lat="42.31002" lon="8.87254">
        <ele>1521.42</ele>
        <time>2015-06-24T06:57:22Z</time>
      </trkpt>
      <trkpt lat="42.31004" lon="8.87243">
        <ele>1523.35</ele>
        <time>2015-06-24T06:57:34Z</time>
      </trkpt>
      <trkpt lat="42.30998" lon="8.8723">
        <ele>1524.31</ele>
        <time>2015-06-24T06:57:48Z</time>
      </trkpt>
      <trkpt lat="42.30999" lon="8.87217">
        <ele>1525.27</ele>
        <time>2015-06-24T06:58:01Z</time>
      </trkpt>
      <trkpt lat="42.30999" lon="8.87207">
        <ele>1527.67</ele>
        <time>2015-06-24T06:58:15Z</time>
      </trkpt>
      <trkpt lat="42.31003" lon="8.872">
        <ele>1530.08</ele>
        <time>2015-06-24T06:58:30Z</time>
      </trkpt>
      <trkpt lat="42.31008" lon="8.87191">
        <ele>1532</ele>
        <time>2015-06-24T06:58:43Z</time>
      </trkpt>
      <trkpt lat="42.31008" lon="8.87182">
        <ele>1533.92</ele>
        <time>2015-06-24T06:58:59Z</time>
      </trkpt>
      <trkpt lat="42.31013" lon="8.87173">
        <ele>1535.36</ele>
        <time>2015-06-24T06:59:14Z</time>
      </trkpt>
      <trkpt lat="42.31019" lon="8.87165">
        <ele>1537.29</ele>
        <time>2015-06-24T06:59:29Z</time>
      </trkpt>
      <trkpt lat="42.31022" lon="8.87158">
        <ele>1539.21</ele>
        <time>2015-06-24T06:59:44Z</time>
      </trkpt>
      <trkpt lat="42.31019" lon="8.87148">
        <ele>1540.65</ele>
        <time>2015-06-24T06:59:58Z</time>
      </trkpt>
      <trkpt lat="42.31017" lon="8.87142">
        <ele>1541.61</ele>
        <time>2015-06-24T07:00:04Z</time>
      </trkpt>
      <trkpt lat="42.3102" lon="8.87126">
        <ele>1543.05</ele>
        <time>2015-06-24T07:00:18Z</time>
      </trkpt>
      <trkpt lat="42.31022" lon="8.87117">
        <ele>1544.5</ele>
        <time>2015-06-24T07:00:29Z</time>
      </trkpt>
      <trkpt lat="42.31021" lon="8.87111">
        <ele>1545.46</ele>
        <time>2015-06-24T07:00:35Z</time>
      </trkpt>
      <trkpt lat="42.31023" lon="8.87109">
        <ele>1545.94</ele>
        <time>2015-06-24T07:00:38Z</time>
      </trkpt>
      <trkpt lat="42.31025" lon="8.87096">
        <ele>1546.42</ele>
        <time>2015-06-24T07:00:49Z</time>
      </trkpt>
      <trkpt lat="42.31025" lon="8.87094">
        <ele>1547.38</ele>
        <time>2015-06-24T07:00:51Z</time>
      </trkpt>
      <trkpt lat="42.31023" lon="8.87084">
        <ele>1547.86</ele>
        <time>2015-06-24T07:00:59Z</time>
      </trkpt>
      <trkpt lat="42.31017" lon="8.87073">
        <ele>1548.34</ele>
        <time>2015-06-24T07:01:13Z</time>
      </trkpt>
      <trkpt lat="42.31017" lon="8.87061">
        <ele>1550.26</ele>
        <time>2015-06-24T07:01:26Z</time>
      </trkpt>
      <trkpt lat="42.31026" lon="8.87054">
        <ele>1551.22</ele>
        <time>2015-06-24T07:01:40Z</time>
      </trkpt>
      <trkpt lat="42.31026" lon="8.87055">
        <ele>1550.74</ele>
        <time>2015-06-24T07:02:01Z</time>
      </trkpt>
      <trkpt lat="42.31027" lon="8.87055">
        <ele>1551.22</ele>
        <time>2015-06-24T07:02:23Z</time>
      </trkpt>
      <trkpt lat="42.31028" lon="8.87057">
        <ele>1551.22</ele>
        <time>2015-06-24T07:02:43Z</time>
      </trkpt>
      <trkpt lat="42.31027" lon="8.87054">
        <ele>1551.22</ele>
        <time>2015-06-24T07:03:02Z</time>
      </trkpt>
      <trkpt lat="42.31023" lon="8.87056">
        <ele>1551.71</ele>
        <time>2015-06-24T07:03:28Z</time>
      </trkpt>
      <trkpt lat="42.31024" lon="8.8706">
        <ele>1551.71</ele>
        <time>2015-06-24T07:04:01Z</time>
      </trkpt>
      <trkpt lat="42.31026" lon="8.87053">
        <ele>1551.71</ele>
        <time>2015-06-24T07:04:25Z</time>
      </trkpt>
      <trkpt lat="42.31034" lon="8.87054">
        <ele>1551.22</ele>
        <time>2015-06-24T07:04:46Z</time>
      </trkpt>
      <trkpt lat="42.31031" lon="8.87054">
        <ele>1552.19</ele>
        <time>2015-06-24T07:05:11Z</time>
      </trkpt>
      <trkpt lat="42.31034" lon="8.87057">
        <ele>1551.71</ele>
        <time>2015-06-24T07:05:34Z</time>
      </trkpt>
      <trkpt lat="42.31032" lon="8.87057">
        <ele>1551.71</ele>
        <time>2015-06-24T07:06:04Z</time>
      </trkpt>
      <trkpt lat="42.31031" lon="8.87054">
        <ele>1551.71</ele>
        <time>2015-06-24T07:06:30Z</time>
      </trkpt>
      <trkpt lat="42.31031" lon="8.87056">
        <ele>1551.71</ele>
        <time>2015-06-24T07:07:07Z</time>
      </trkpt>
      <trkpt lat="42.31034" lon="8.87057">
        <ele>1552.19</ele>
        <time>2015-06-24T07:07:42Z</time>
      </trkpt>
      <trkpt lat="42.31032" lon="8.8706">
        <ele>1552.19</ele>
        <time>2015-06-24T07:08:08Z</time>
      </trkpt>
      <trkpt lat="42.31032" lon="8.87067">
        <ele>1552.19</ele>
        <time>2015-06-24T07:08:42Z</time>
      </trkpt>
      <trkpt lat="42.31033" lon="8.87054">
        <ele>1552.67</ele>
        <time>2015-06-24T07:09:07Z</time>
      </trkpt>
      <trkpt lat="42.31042" lon="8.87051">
        <ele>1553.63</ele>
        <time>2015-06-24T07:09:21Z</time>
      </trkpt>
      <trkpt lat="42.31048" lon="8.87047">
        <ele>1554.59</ele>
        <time>2015-06-24T07:09:35Z</time>
      </trkpt>
      <trkpt lat="42.31055" lon="8.87038">
        <ele>1555.55</ele>
        <time>2015-06-24T07:09:51Z</time>
      </trkpt>
      <trkpt lat="42.31057" lon="8.87035">
        <ele>1556.51</ele>
        <time>2015-06-24T07:10:02Z</time>
      </trkpt>
      <trkpt lat="42.31066" lon="8.87026">
        <ele>1558.92</ele>
        <time>2015-06-24T07:10:17Z</time>
      </trkpt>
      <trkpt lat="42.31075" lon="8.87021">
        <ele>1560.84</ele>
        <time>2015-06-24T07:10:35Z</time>
      </trkpt>
      <trkpt lat="42.31081" lon="8.87017">
        <ele>1561.8</ele>
        <time>2015-06-24T07:10:51Z</time>
      </trkpt>
      <trkpt lat="42.31083" lon="8.87013">
        <ele>1562.76</ele>
        <time>2015-06-24T07:10:58Z</time>
      </trkpt>
      <trkpt lat="42.31094" lon="8.87008">
        <ele>1564.68</ele>
        <time>2015-06-24T07:11:12Z</time>
      </trkpt>
      <trkpt lat="42.31102" lon="8.87003">
        <ele>1566.12</ele>
        <time>2015-06-24T07:11:25Z</time>
      </trkpt>
      <trkpt lat="42.31109" lon="8.86999">
        <ele>1567.57</ele>
        <time>2015-06-24T07:11:38Z</time>
      </trkpt>
      <trkpt lat="42.31116" lon="8.86989">
        <ele>1569.01</ele>
        <time>2015-06-24T07:11:52Z</time>
      </trkpt>
      <trkpt lat="42.31116" lon="8.86987">
        <ele>1569.01</ele>
        <time>2015-06-24T07:11:54Z</time>
      </trkpt>
      <trkpt lat="42.31128" lon="8.86979">
        <ele>1570.45</ele>
        <time>2015-06-24T07:12:10Z</time>
      </trkpt>
      <trkpt lat="42.31136" lon="8.8697">
        <ele>1571.41</ele>
        <time>2015-06-24T07:12:25Z</time>
      </trkpt>
      <trkpt lat="42.31143" lon="8.86958">
        <ele>1572.85</ele>
        <time>2015-06-24T07:12:40Z</time>
      </trkpt>
      <trkpt lat="42.31148" lon="8.86945">
        <ele>1573.82</ele>
        <time>2015-06-24T07:12:53Z</time>
      </trkpt>
      <trkpt lat="42.31154" lon="8.86939">
        <ele>1574.3</ele>
        <time>2015-06-24T07:13:01Z</time>
      </trkpt>
      <trkpt lat="42.31164" lon="8.86931">
        <ele>1575.74</ele>
        <time>2015-06-24T07:13:17Z</time>
      </trkpt>
      <trkpt lat="42.31176" lon="8.86927">
        <ele>1577.18</ele>
        <time>2015-06-24T07:13:32Z</time>
      </trkpt>
      <trkpt lat="42.31182" lon="8.86927">
        <ele>1577.66</ele>
        <time>2015-06-24T07:13:39Z</time>
      </trkpt>
      <trkpt lat="42.31196" lon="8.86924">
        <ele>1578.14</ele>
        <time>2015-06-24T07:13:55Z</time>
      </trkpt>
      <trkpt lat="42.31208" lon="8.86916">
        <ele>1578.62</ele>
        <time>2015-06-24T07:14:09Z</time>
      </trkpt>
      <trkpt lat="42.31213" lon="8.86913">
        <ele>1579.58</ele>
        <time>2015-06-24T07:14:16Z</time>
      </trkpt>
      <trkpt lat="42.31214" lon="8.86909">
        <ele>1580.06</ele>
        <time>2015-06-24T07:14:19Z</time>
      </trkpt>
      <trkpt lat="42.31223" lon="8.86905">
        <ele>1581.51</ele>
        <time>2015-06-24T07:14:30Z</time>
      </trkpt>
      <trkpt lat="42.31235" lon="8.86897">
        <ele>1583.43</ele>
        <time>2015-06-24T07:14:47Z</time>
      </trkpt>
      <trkpt lat="42.3124" lon="8.86892">
        <ele>1584.39</ele>
        <time>2015-06-24T07:14:56Z</time>
      </trkpt>
      <trkpt lat="42.31244" lon="8.8688">
        <ele>1585.83</ele>
        <time>2015-06-24T07:15:11Z</time>
      </trkpt>
      <trkpt lat="42.31254" lon="8.86878">
        <ele>1586.31</ele>
        <time>2015-06-24T07:15:24Z</time>
      </trkpt>
      <trkpt lat="42.31256" lon="8.86877">
        <ele>1586.31</ele>
        <time>2015-06-24T07:15:26Z</time>
      </trkpt>
      <trkpt lat="42.31266" lon="8.86873">
        <ele>1586.31</ele>
        <time>2015-06-24T07:15:36Z</time>
      </trkpt>
      <trkpt lat="42.31285" lon="8.86862">
        <ele>1586.79</ele>
        <time>2015-06-24T07:15:55Z</time>
      </trkpt>
      <trkpt lat="42.31299" lon="8.86852">
        <ele>1586.79</ele>
        <time>2015-06-24T07:16:11Z</time>
      </trkpt>
      <trkpt lat="42.3131" lon="8.86847">
        <ele>1587.75</ele>
        <time>2015-06-24T07:16:26Z</time>
      </trkpt>
      <trkpt lat="42.31325" lon="8.86839">
        <ele>1587.27</ele>
        <time>2015-06-24T07:16:42Z</time>
      </trkpt>
      <trkpt lat="42.31329" lon="8.86832">
        <ele>1587.75</ele>
        <time>2015-06-24T07:16:50Z</time>
      </trkpt>
      <trkpt lat="42.31339" lon="8.86823">
        <ele>1588.24</ele>
        <time>2015-06-24T07:17:05Z</time>
      </trkpt>
      <trkpt lat="42.31349" lon="8.86817">
        <ele>1588.72</ele>
        <time>2015-06-24T07:17:16Z</time>
      </trkpt>
      <trkpt lat="42.31364" lon="8.86816">
        <ele>1589.68</ele>
        <time>2015-06-24T07:17:31Z</time>
      </trkpt>
      <trkpt lat="42.31371" lon="8.86818">
        <ele>1590.64</ele>
        <time>2015-06-24T07:17:44Z</time>
      </trkpt>
      <trkpt lat="42.31376" lon="8.8682">
        <ele>1590.64</ele>
        <time>2015-06-24T07:17:50Z</time>
      </trkpt>
      <trkpt lat="42.31391" lon="8.86821">
        <ele>1591.12</ele>
        <time>2015-06-24T07:18:05Z</time>
      </trkpt>
      <trkpt lat="42.31392" lon="8.86819">
        <ele>1591.12</ele>
        <time>2015-06-24T07:18:07Z</time>
      </trkpt>
      <trkpt lat="42.31407" lon="8.86817">
        <ele>1592.08</ele>
        <time>2015-06-24T07:18:22Z</time>
      </trkpt>
      <trkpt lat="42.31419" lon="8.86817">
        <ele>1592.56</ele>
        <time>2015-06-24T07:18:36Z</time>
      </trkpt>
      <trkpt lat="42.3142" lon="8.86817">
        <ele>1593.04</ele>
        <time>2015-06-24T07:18:38Z</time>
      </trkpt>
      <trkpt lat="42.31432" lon="8.86812">
        <ele>1594</ele>
        <time>2015-06-24T07:18:51Z</time>
      </trkpt>
      <trkpt lat="42.31446" lon="8.86816">
        <ele>1594.96</ele>
        <time>2015-06-24T07:19:06Z</time>
      </trkpt>
      <trkpt lat="42.31446" lon="8.86817">
        <ele>1594.96</ele>
        <time>2015-06-24T07:19:07Z</time>
      </trkpt>
      <trkpt lat="42.31458" lon="8.86815">
        <ele>1596.89</ele>
        <time>2015-06-24T07:19:22Z</time>
      </trkpt>
      <trkpt lat="42.31459" lon="8.86815">
        <ele>1596.89</ele>
        <time>2015-06-24T07:19:24Z</time>
      </trkpt>
      <trkpt lat="42.31471" lon="8.86818">
        <ele>1598.81</ele>
        <time>2015-06-24T07:19:39Z</time>
      </trkpt>
      <trkpt lat="42.31475" lon="8.86815">
        <ele>1599.29</ele>
        <time>2015-06-24T07:19:48Z</time>
      </trkpt>
      <trkpt lat="42.3148" lon="8.86815">
        <ele>1600.25</ele>
        <time>2015-06-24T07:19:54Z</time>
      </trkpt>
      <trkpt lat="42.31496" lon="8.8682">
        <ele>1601.69</ele>
        <time>2015-06-24T07:20:10Z</time>
      </trkpt>
      <trkpt lat="42.31498" lon="8.86818">
        <ele>1602.17</ele>
        <time>2015-06-24T07:20:12Z</time>
      </trkpt>
      <trkpt lat="42.31508" lon="8.86815">
        <ele>1603.62</ele>
        <time>2015-06-24T07:20:25Z</time>
      </trkpt>
      <trkpt lat="42.31523" lon="8.86817">
        <ele>1605.06</ele>
        <time>2015-06-24T07:20:40Z</time>
      </trkpt>
      <trkpt lat="42.31526" lon="8.86817">
        <ele>1605.06</ele>
        <time>2015-06-24T07:20:43Z</time>
      </trkpt>
      <trkpt lat="42.31529" lon="8.86814">
        <ele>1605.06</ele>
        <time>2015-06-24T07:20:47Z</time>
      </trkpt>
      <trkpt lat="42.3154" lon="8.86801">
        <ele>1606.02</ele>
        <time>2015-06-24T07:21:03Z</time>
      </trkpt>
      <trkpt lat="42.31541" lon="8.86801">
        <ele>1606.5</ele>
        <time>2015-06-24T07:21:04Z</time>
      </trkpt>
      <trkpt lat="42.31544" lon="8.86798">
        <ele>1606.98</ele>
        <time>2015-06-24T07:21:08Z</time>
      </trkpt>
      <trkpt lat="42.31557" lon="8.86796">
        <ele>1606.98</ele>
        <time>2015-06-24T07:21:22Z</time>
      </trkpt>
      <trkpt lat="42.31571" lon="8.86797">
        <ele>1607.94</ele>
        <time>2015-06-24T07:21:37Z</time>
      </trkpt>
      <trkpt lat="42.31573" lon="8.86796">
        <ele>1607.94</ele>
        <time>2015-06-24T07:21:40Z</time>
      </trkpt>
      <trkpt lat="42.3158" lon="8.86794">
        <ele>1608.42</ele>
        <time>2015-06-24T07:21:49Z</time>
      </trkpt>
      <trkpt lat="42.31594" lon="8.86789">
        <ele>1609.38</ele>
        <time>2015-06-24T07:22:05Z</time>
      </trkpt>
      <trkpt lat="42.31596" lon="8.86789">
        <ele>1609.86</ele>
        <time>2015-06-24T07:22:07Z</time>
      </trkpt>
      <trkpt lat="42.3161" lon="8.86795">
        <ele>1611.31</ele>
        <time>2015-06-24T07:22:21Z</time>
      </trkpt>
      <trkpt lat="42.31622" lon="8.868">
        <ele>1612.27</ele>
        <time>2015-06-24T07:22:36Z</time>
      </trkpt>
      <trkpt lat="42.31631" lon="8.86799">
        <ele>1612.75</ele>
        <time>2015-06-24T07:22:45Z</time>
      </trkpt>
      <trkpt lat="42.3164" lon="8.86796">
        <ele>1613.23</ele>
        <time>2015-06-24T07:23:00Z</time>
      </trkpt>
      <trkpt lat="42.31646" lon="8.86802">
        <ele>1615.63</ele>
        <time>2015-06-24T07:23:13Z</time>
      </trkpt>
      <trkpt lat="42.31654" lon="8.86804">
        <ele>1616.59</ele>
        <time>2015-06-24T07:23:22Z</time>
      </trkpt>
      <trkpt lat="42.3166" lon="8.86809">
        <ele>1618.04</ele>
        <time>2015-06-24T07:23:32Z</time>
      </trkpt>
      <trkpt lat="42.31671" lon="8.86817">
        <ele>1619.48</ele>
        <time>2015-06-24T07:23:48Z</time>
      </trkpt>
      <trkpt lat="42.31681" lon="8.86818">
        <ele>1621.4</ele>
        <time>2015-06-24T07:24:02Z</time>
      </trkpt>
      <trkpt lat="42.31684" lon="8.86814">
        <ele>1622.36</ele>
        <time>2015-06-24T07:24:08Z</time>
      </trkpt>
      <trkpt lat="42.31695" lon="8.86813">
        <ele>1624.77</ele>
        <time>2015-06-24T07:24:22Z</time>
      </trkpt>
      <trkpt lat="42.31697" lon="8.86814">
        <ele>1624.77</ele>
        <time>2015-06-24T07:24:24Z</time>
      </trkpt>
      <trkpt lat="42.31701" lon="8.86813">
        <ele>1625.73</ele>
        <time>2015-06-24T07:24:32Z</time>
      </trkpt>
      <trkpt lat="42.31709" lon="8.86811">
        <ele>1626.69</ele>
        <time>2015-06-24T07:24:41Z</time>
      </trkpt>
      <trkpt lat="42.31713" lon="8.86811">
        <ele>1626.69</ele>
        <time>2015-06-24T07:24:44Z</time>
      </trkpt>
      <trkpt lat="42.31727" lon="8.86811">
        <ele>1627.17</ele>
        <time>2015-06-24T07:24:59Z</time>
      </trkpt>
      <trkpt lat="42.31733" lon="8.86811">
        <ele>1627.65</ele>
        <time>2015-06-24T07:25:05Z</time>
      </trkpt>
      <trkpt lat="42.31745" lon="8.86811">
        <ele>1629.09</ele>
        <time>2015-06-24T07:25:19Z</time>
      </trkpt>
      <trkpt lat="42.31753" lon="8.86812">
        <ele>1630.05</ele>
        <time>2015-06-24T07:25:29Z</time>
      </trkpt>
      <trkpt lat="42.31759" lon="8.86812">
        <ele>1630.05</ele>
        <time>2015-06-24T07:25:35Z</time>
      </trkpt>
      <trkpt lat="42.31768" lon="8.86809">
        <ele>1631.01</ele>
        <time>2015-06-24T07:25:45Z</time>
      </trkpt>
      <trkpt lat="42.31772" lon="8.8681">
        <ele>1631.01</ele>
        <time>2015-06-24T07:25:48Z</time>
      </trkpt>
      <trkpt lat="42.3178" lon="8.86816">
        <ele>1631.98</ele>
        <time>2015-06-24T07:26:01Z</time>
      </trkpt>
      <trkpt lat="42.31792" lon="8.86823">
        <ele>1633.42</ele>
        <time>2015-06-24T07:26:17Z</time>
      </trkpt>
      <trkpt lat="42.31793" lon="8.86827">
        <ele>1633.9</ele>
        <time>2015-06-24T07:26:21Z</time>
      </trkpt>
      <trkpt lat="42.31794" lon="8.8683">
        <ele>1634.38</ele>
        <time>2015-06-24T07:26:24Z</time>
      </trkpt>
      <trkpt lat="42.31802" lon="8.86838">
        <ele>1635.82</ele>
        <time>2015-06-24T07:26:38Z</time>
      </trkpt>
      <trkpt lat="42.31808" lon="8.86845">
        <ele>1636.3</ele>
        <time>2015-06-24T07:26:48Z</time>
      </trkpt>
      <trkpt lat="42.31813" lon="8.86849">
        <ele>1636.3</ele>
        <time>2015-06-24T07:26:53Z</time>
      </trkpt>
      <trkpt lat="42.31826" lon="8.86858">
        <ele>1636.78</ele>
        <time>2015-06-24T07:27:08Z</time>
      </trkpt>
      <trkpt lat="42.31837" lon="8.86867">
        <ele>1638.22</ele>
        <time>2015-06-24T07:27:19Z</time>
      </trkpt>
      <trkpt lat="42.31845" lon="8.86886">
        <ele>1639.67</ele>
        <time>2015-06-24T07:27:35Z</time>
      </trkpt>
      <trkpt lat="42.31853" lon="8.86895">
        <ele>1641.11</ele>
        <time>2015-06-24T07:27:47Z</time>
      </trkpt>
      <trkpt lat="42.31861" lon="8.869">
        <ele>1642.55</ele>
        <time>2015-06-24T07:28:01Z</time>
      </trkpt>
      <trkpt lat="42.31866" lon="8.86903">
        <ele>1643.99</ele>
        <time>2015-06-24T07:28:07Z</time>
      </trkpt>
      <trkpt lat="42.31875" lon="8.8692">
        <ele>1644.47</ele>
        <time>2015-06-24T07:28:24Z</time>
      </trkpt>
      <trkpt lat="42.31884" lon="8.86921">
        <ele>1645.43</ele>
        <time>2015-06-24T07:28:36Z</time>
      </trkpt>
      <trkpt lat="42.31895" lon="8.86927">
        <ele>1645.91</ele>
        <time>2015-06-24T07:28:50Z</time>
      </trkpt>
      <trkpt lat="42.31909" lon="8.86932">
        <ele>1647.36</ele>
        <time>2015-06-24T07:29:05Z</time>
      </trkpt>
      <trkpt lat="42.31921" lon="8.86944">
        <ele>1647.84</ele>
        <time>2015-06-24T07:29:21Z</time>
      </trkpt>
      <trkpt lat="42.31927" lon="8.86947">
        <ele>1648.8</ele>
        <time>2015-06-24T07:29:29Z</time>
      </trkpt>
      <trkpt lat="42.31932" lon="8.86949">
        <ele>1648.8</ele>
        <time>2015-06-24T07:29:33Z</time>
      </trkpt>
      <trkpt lat="42.31934" lon="8.86949">
        <ele>1649.28</ele>
        <time>2015-06-24T07:29:35Z</time>
      </trkpt>
      <trkpt lat="42.31937" lon="8.8695">
        <ele>1649.28</ele>
        <time>2015-06-24T07:29:37Z</time>
      </trkpt>
      <trkpt lat="42.31945" lon="8.8695">
        <ele>1649.76</ele>
        <time>2015-06-24T07:29:45Z</time>
      </trkpt>
      <trkpt lat="42.31961" lon="8.8695">
        <ele>1651.2</ele>
        <time>2015-06-24T07:30:02Z</time>
      </trkpt>
      <trkpt lat="42.31974" lon="8.8695">
        <ele>1651.68</ele>
        <time>2015-06-24T07:30:18Z</time>
      </trkpt>
      <trkpt lat="42.31987" lon="8.86954">
        <ele>1652.64</ele>
        <time>2015-06-24T07:30:34Z</time>
      </trkpt>
      <trkpt lat="42.32" lon="8.86951">
        <ele>1653.12</ele>
        <time>2015-06-24T07:30:48Z</time>
      </trkpt>
      <trkpt lat="42.32016" lon="8.86945">
        <ele>1655.05</ele>
        <time>2015-06-24T07:31:03Z</time>
      </trkpt>
      <trkpt lat="42.32027" lon="8.86943">
        <ele>1655.05</ele>
        <time>2015-06-24T07:31:14Z</time>
      </trkpt>
      <trkpt lat="42.32039" lon="8.8694">
        <ele>1656.97</ele>
        <time>2015-06-24T07:31:28Z</time>
      </trkpt>
      <trkpt lat="42.32053" lon="8.86941">
        <ele>1656.97</ele>
        <time>2015-06-24T07:31:39Z</time>
      </trkpt>
      <trkpt lat="42.32061" lon="8.86939">
        <ele>1657.93</ele>
        <time>2015-06-24T07:31:47Z</time>
      </trkpt>
      <trkpt lat="42.32076" lon="8.86937">
        <ele>1658.89</ele>
        <time>2015-06-24T07:32:02Z</time>
      </trkpt>
      <trkpt lat="42.32092" lon="8.86934">
        <ele>1660.33</ele>
        <time>2015-06-24T07:32:18Z</time>
      </trkpt>
      <trkpt lat="42.32105" lon="8.86936">
        <ele>1661.3</ele>
        <time>2015-06-24T07:32:33Z</time>
      </trkpt>
      <trkpt lat="42.3212" lon="8.86932">
        <ele>1663.22</ele>
        <time>2015-06-24T07:32:49Z</time>
      </trkpt>
      <trkpt lat="42.32132" lon="8.86926">
        <ele>1665.14</ele>
        <time>2015-06-24T07:33:03Z</time>
      </trkpt>
      <trkpt lat="42.32142" lon="8.86922">
        <ele>1665.62</ele>
        <time>2015-06-24T07:33:16Z</time>
      </trkpt>
      <trkpt lat="42.32155" lon="8.86917">
        <ele>1666.58</ele>
        <time>2015-06-24T07:33:31Z</time>
      </trkpt>
      <trkpt lat="42.32166" lon="8.86915">
        <ele>1668.51</ele>
        <time>2015-06-24T07:33:47Z</time>
      </trkpt>
      <trkpt lat="42.32177" lon="8.86913">
        <ele>1669.47</ele>
        <time>2015-06-24T07:33:58Z</time>
      </trkpt>
      <trkpt lat="42.32191" lon="8.86911">
        <ele>1670.43</ele>
        <time>2015-06-24T07:34:13Z</time>
      </trkpt>
      <trkpt lat="42.32206" lon="8.86909">
        <ele>1671.87</ele>
        <time>2015-06-24T07:34:29Z</time>
      </trkpt>
      <trkpt lat="42.32217" lon="8.86908">
        <ele>1673.31</ele>
        <time>2015-06-24T07:34:43Z</time>
      </trkpt>
      <trkpt lat="42.32225" lon="8.86909">
        <ele>1675.23</ele>
        <time>2015-06-24T07:34:57Z</time>
      </trkpt>
      <trkpt lat="42.32235" lon="8.8691">
        <ele>1676.68</ele>
        <time>2015-06-24T07:35:12Z</time>
      </trkpt>
      <trkpt lat="42.32244" lon="8.86916">
        <ele>1677.16</ele>
        <time>2015-06-24T07:35:23Z</time>
      </trkpt>
      <trkpt lat="42.32254" lon="8.86914">
        <ele>1678.6</ele>
        <time>2015-06-24T07:35:38Z</time>
      </trkpt>
      <trkpt lat="42.32261" lon="8.86908">
        <ele>1680.52</ele>
        <time>2015-06-24T07:35:52Z</time>
      </trkpt>
      <trkpt lat="42.32271" lon="8.869">
        <ele>1682.44</ele>
        <time>2015-06-24T07:36:07Z</time>
      </trkpt>
      <trkpt lat="42.32278" lon="8.86895">
        <ele>1684.37</ele>
        <time>2015-06-24T07:36:21Z</time>
      </trkpt>
      <trkpt lat="42.32286" lon="8.86886">
        <ele>1685.33</ele>
        <time>2015-06-24T07:36:35Z</time>
      </trkpt>
      <trkpt lat="42.3229" lon="8.86885">
        <ele>1685.33</ele>
        <time>2015-06-24T07:36:39Z</time>
      </trkpt>
      <trkpt lat="42.32302" lon="8.86881">
        <ele>1686.29</ele>
        <time>2015-06-24T07:36:55Z</time>
      </trkpt>
      <trkpt lat="42.32312" lon="8.86879">
        <ele>1687.73</ele>
        <time>2015-06-24T07:37:10Z</time>
      </trkpt>
      <trkpt lat="42.32319" lon="8.8687">
        <ele>1689.65</ele>
        <time>2015-06-24T07:37:25Z</time>
      </trkpt>
      <trkpt lat="42.32325" lon="8.86861">
        <ele>1691.58</ele>
        <time>2015-06-24T07:37:38Z</time>
      </trkpt>
      <trkpt lat="42.32329" lon="8.86851">
        <ele>1693.5</ele>
        <time>2015-06-24T07:37:54Z</time>
      </trkpt>
      <trkpt lat="42.32334" lon="8.86844">
        <ele>1695.42</ele>
        <time>2015-06-24T07:38:09Z</time>
      </trkpt>
      <trkpt lat="42.3234" lon="8.86839">
        <ele>1696.86</ele>
        <time>2015-06-24T07:38:23Z</time>
      </trkpt>
      <trkpt lat="42.32341" lon="8.86838">
        <ele>1696.86</ele>
        <time>2015-06-24T07:38:36Z</time>
      </trkpt>
      <trkpt lat="42.32341" lon="8.8684">
        <ele>1696.86</ele>
        <time>2015-06-24T07:39:05Z</time>
      </trkpt>
      <trkpt lat="42.32341" lon="8.86836">
        <ele>1696.86</ele>
        <time>2015-06-24T07:39:28Z</time>
      </trkpt>
      <trkpt lat="42.32342" lon="8.86839">
        <ele>1696.86</ele>
        <time>2015-06-24T07:39:46Z</time>
      </trkpt>
      <trkpt lat="42.32343" lon="8.86839">
        <ele>1696.86</ele>
        <time>2015-06-24T07:40:08Z</time>
      </trkpt>
      <trkpt lat="42.32343" lon="8.8684">
        <ele>1696.86</ele>
        <time>2015-06-24T07:40:35Z</time>
      </trkpt>
      <trkpt lat="42.32341" lon="8.86837">
        <ele>1696.38</ele>
        <time>2015-06-24T07:40:54Z</time>
      </trkpt>
      <trkpt lat="42.32339" lon="8.86833">
        <ele>1698.79</ele>
        <time>2015-06-24T07:41:08Z</time>
      </trkpt>
      <trkpt lat="42.32338" lon="8.86825">
        <ele>1700.71</ele>
        <time>2015-06-24T07:41:21Z</time>
      </trkpt>
      <trkpt lat="42.32334" lon="8.86819">
        <ele>1702.15</ele>
        <time>2015-06-24T07:41:33Z</time>
      </trkpt>
      <trkpt lat="42.32335" lon="8.86812">
        <ele>1704.07</ele>
        <time>2015-06-24T07:41:50Z</time>
      </trkpt>
      <trkpt lat="42.32335" lon="8.86805">
        <ele>1706</ele>
        <time>2015-06-24T07:42:04Z</time>
      </trkpt>
      <trkpt lat="42.32336" lon="8.86796">
        <ele>1708.4</ele>
        <time>2015-06-24T07:42:18Z</time>
      </trkpt>
      <trkpt lat="42.32337" lon="8.86789">
        <ele>1711.76</ele>
        <time>2015-06-24T07:42:31Z</time>
      </trkpt>
      <trkpt lat="42.32339" lon="8.86782">
        <ele>1713.69</ele>
        <time>2015-06-24T07:42:44Z</time>
      </trkpt>
      <trkpt lat="42.32347" lon="8.86775">
        <ele>1715.61</ele>
        <time>2015-06-24T07:42:58Z</time>
      </trkpt>
      <trkpt lat="42.32353" lon="8.86771">
        <ele>1717.53</ele>
        <time>2015-06-24T07:43:11Z</time>
      </trkpt>
      <trkpt lat="42.32352" lon="8.8677">
        <ele>1718.49</ele>
        <time>2015-06-24T07:43:17Z</time>
      </trkpt>
      <trkpt lat="42.32348" lon="8.86765">
        <ele>1720.42</ele>
        <time>2015-06-24T07:43:25Z</time>
      </trkpt>
      <trkpt lat="42.32351" lon="8.86759">
        <ele>1721.38</ele>
        <time>2015-06-24T07:43:33Z</time>
      </trkpt>
      <trkpt lat="42.3236" lon="8.86753">
        <ele>1723.3</ele>
        <time>2015-06-24T07:43:46Z</time>
      </trkpt>
      <trkpt lat="42.32363" lon="8.86745">
        <ele>1726.18</ele>
        <time>2015-06-24T07:44:00Z</time>
      </trkpt>
      <trkpt lat="42.32352" lon="8.86743">
        <ele>1728.11</ele>
        <time>2015-06-24T07:44:14Z</time>
      </trkpt>
      <trkpt lat="42.32346" lon="8.86735">
        <ele>1730.99</ele>
        <time>2015-06-24T07:44:27Z</time>
      </trkpt>
      <trkpt lat="42.32349" lon="8.86726">
        <ele>1732.91</ele>
        <time>2015-06-24T07:44:39Z</time>
      </trkpt>
      <trkpt lat="42.32351" lon="8.86717">
        <ele>1734.36</ele>
        <time>2015-06-24T07:44:52Z</time>
      </trkpt>
      <trkpt lat="42.32346" lon="8.86711">
        <ele>1736.76</ele>
        <time>2015-06-24T07:45:04Z</time>
      </trkpt>
      <trkpt lat="42.32348" lon="8.86701">
        <ele>1739.16</ele>
        <time>2015-06-24T07:45:19Z</time>
      </trkpt>
      <trkpt lat="42.32343" lon="8.86696">
        <ele>1742.53</ele>
        <time>2015-06-24T07:45:31Z</time>
      </trkpt>
      <trkpt lat="42.32344" lon="8.86694">
        <ele>1743.01</ele>
        <time>2015-06-24T07:45:33Z</time>
      </trkpt>
      <trkpt lat="42.32346" lon="8.86683">
        <ele>1744.93</ele>
        <time>2015-06-24T07:45:49Z</time>
      </trkpt>
      <trkpt lat="42.32345" lon="8.86676">
        <ele>1745.89</ele>
        <time>2015-06-24T07:46:02Z</time>
      </trkpt>
      <trkpt lat="42.32342" lon="8.86674">
        <ele>1746.85</ele>
        <time>2015-06-24T07:46:07Z</time>
      </trkpt>
      <trkpt lat="42.32345" lon="8.86663">
        <ele>1749.74</ele>
        <time>2015-06-24T07:46:20Z</time>
      </trkpt>
      <trkpt lat="42.32342" lon="8.86659">
        <ele>1751.18</ele>
        <time>2015-06-24T07:46:28Z</time>
      </trkpt>
      <trkpt lat="42.32344" lon="8.86648">
        <ele>1752.62</ele>
        <time>2015-06-24T07:46:43Z</time>
      </trkpt>
      <trkpt lat="42.32346" lon="8.8664">
        <ele>1755.02</ele>
        <time>2015-06-24T07:46:57Z</time>
      </trkpt>
      <trkpt lat="42.32337" lon="8.86634">
        <ele>1757.91</ele>
        <time>2015-06-24T07:47:12Z</time>
      </trkpt>
      <trkpt lat="42.32343" lon="8.86624">
        <ele>1760.31</ele>
        <time>2015-06-24T07:47:26Z</time>
      </trkpt>
      <trkpt lat="42.32348" lon="8.86615">
        <ele>1762.23</ele>
        <time>2015-06-24T07:47:40Z</time>
      </trkpt>
      <trkpt lat="42.32349" lon="8.86604">
        <ele>1765.12</ele>
        <time>2015-06-24T07:47:55Z</time>
      </trkpt>
      <trkpt lat="42.32348" lon="8.86596">
        <ele>1767.52</ele>
        <time>2015-06-24T07:48:08Z</time>
      </trkpt>
      <trkpt lat="42.32345" lon="8.86584">
        <ele>1769.44</ele>
        <time>2015-06-24T07:48:24Z</time>
      </trkpt>
      <trkpt lat="42.32336" lon="8.86582">
        <ele>1770.89</ele>
        <time>2015-06-24T07:48:37Z</time>
      </trkpt>
      <trkpt lat="42.32325" lon="8.86576">
        <ele>1772.33</ele>
        <time>2015-06-24T07:48:52Z</time>
      </trkpt>
      <trkpt lat="42.32311" lon="8.86572">
        <ele>1774.25</ele>
        <time>2015-06-24T07:49:07Z</time>
      </trkpt>
      <trkpt lat="42.32301" lon="8.86568">
        <ele>1776.65</ele>
        <time>2015-06-24T07:49:22Z</time>
      </trkpt>
      <trkpt lat="42.32296" lon="8.86566">
        <ele>1778.1</ele>
        <time>2015-06-24T07:49:28Z</time>
      </trkpt>
      <trkpt lat="42.323" lon="8.86556">
        <ele>1780.02</ele>
        <time>2015-06-24T07:49:40Z</time>
      </trkpt>
      <trkpt lat="42.32301" lon="8.86552">
        <ele>1781.46</ele>
        <time>2015-06-24T07:49:53Z</time>
      </trkpt>
      <trkpt lat="42.32301" lon="8.86544">
        <ele>1784.34</ele>
        <time>2015-06-24T07:50:07Z</time>
      </trkpt>
      <trkpt lat="42.323" lon="8.86539">
        <ele>1786.75</ele>
        <time>2015-06-24T07:50:19Z</time>
      </trkpt>
      <trkpt lat="42.32307" lon="8.86532">
        <ele>1789.15</ele>
        <time>2015-06-24T07:50:33Z</time>
      </trkpt>
      <trkpt lat="42.32304" lon="8.86526">
        <ele>1791.55</ele>
        <time>2015-06-24T07:50:47Z</time>
      </trkpt>
      <trkpt lat="42.323" lon="8.86522">
        <ele>1792.52</ele>
        <time>2015-06-24T07:50:55Z</time>
      </trkpt>
      <trkpt lat="42.32306" lon="8.86514">
        <ele>1795.4</ele>
        <time>2015-06-24T07:51:10Z</time>
      </trkpt>
      <trkpt lat="42.3231" lon="8.86505">
        <ele>1797.8</ele>
        <time>2015-06-24T07:51:26Z</time>
      </trkpt>
      <trkpt lat="42.3231" lon="8.86496">
        <ele>1800.21</ele>
        <time>2015-06-24T07:51:40Z</time>
      </trkpt>
      <trkpt lat="42.32309" lon="8.86485">
        <ele>1802.61</ele>
        <time>2015-06-24T07:51:54Z</time>
      </trkpt>
      <trkpt lat="42.32305" lon="8.86478">
        <ele>1803.57</ele>
        <time>2015-06-24T07:52:08Z</time>
      </trkpt>
      <trkpt lat="42.32298" lon="8.86469">
        <ele>1805.97</ele>
        <time>2015-06-24T07:52:23Z</time>
      </trkpt>
      <trkpt lat="42.32293" lon="8.86467">
        <ele>1807.42</ele>
        <time>2015-06-24T07:52:30Z</time>
      </trkpt>
      <trkpt lat="42.3229" lon="8.86459">
        <ele>1810.3</ele>
        <time>2015-06-24T07:52:43Z</time>
      </trkpt>
      <trkpt lat="42.32288" lon="8.86453">
        <ele>1811.74</ele>
        <time>2015-06-24T07:52:55Z</time>
      </trkpt>
      <trkpt lat="42.3229" lon="8.86442">
        <ele>1815.11</ele>
        <time>2015-06-24T07:53:08Z</time>
      </trkpt>
      <trkpt lat="42.32294" lon="8.86431">
        <ele>1817.03</ele>
        <time>2015-06-24T07:53:22Z</time>
      </trkpt>
      <trkpt lat="42.32293" lon="8.86419">
        <ele>1819.43</ele>
        <time>2015-06-24T07:53:37Z</time>
      </trkpt>
      <trkpt lat="42.32295" lon="8.86412">
        <ele>1819.91</ele>
        <time>2015-06-24T07:53:43Z</time>
      </trkpt>
      <trkpt lat="42.323" lon="8.864">
        <ele>1822.8</ele>
        <time>2015-06-24T07:53:57Z</time>
      </trkpt>
      <trkpt lat="42.32304" lon="8.86388">
        <ele>1825.68</ele>
        <time>2015-06-24T07:54:12Z</time>
      </trkpt>
      <trkpt lat="42.32309" lon="8.86377">
        <ele>1828.56</ele>
        <time>2015-06-24T07:54:26Z</time>
      </trkpt>
      <trkpt lat="42.32314" lon="8.86368">
        <ele>1830.97</ele>
        <time>2015-06-24T07:54:39Z</time>
      </trkpt>
      <trkpt lat="42.32318" lon="8.86357">
        <ele>1833.37</ele>
        <time>2015-06-24T07:54:52Z</time>
      </trkpt>
      <trkpt lat="42.32321" lon="8.86343">
        <ele>1835.77</ele>
        <time>2015-06-24T07:55:07Z</time>
      </trkpt>
      <trkpt lat="42.32324" lon="8.86328">
        <ele>1838.18</ele>
        <time>2015-06-24T07:55:22Z</time>
      </trkpt>
      <trkpt lat="42.32328" lon="8.86315">
        <ele>1840.58</ele>
        <time>2015-06-24T07:55:37Z</time>
      </trkpt>
      <trkpt lat="42.32335" lon="8.86305">
        <ele>1843.47</ele>
        <time>2015-06-24T07:55:50Z</time>
      </trkpt>
      <trkpt lat="42.3234" lon="8.8629">
        <ele>1845.87</ele>
        <time>2015-06-24T07:56:05Z</time>
      </trkpt>
      <trkpt lat="42.3234" lon="8.86289">
        <ele>1845.87</ele>
        <time>2015-06-24T07:56:06Z</time>
      </trkpt>
      <trkpt lat="42.32342" lon="8.86284">
        <ele>1846.35</ele>
        <time>2015-06-24T07:56:10Z</time>
      </trkpt>
      <trkpt lat="42.32343" lon="8.86274">
        <ele>1847.31</ele>
        <time>2015-06-24T07:56:18Z</time>
      </trkpt>
      <trkpt lat="42.32348" lon="8.86258">
        <ele>1849.23</ele>
        <time>2015-06-24T07:56:32Z</time>
      </trkpt>
      <trkpt lat="42.32349" lon="8.86255">
        <ele>1849.71</ele>
        <time>2015-06-24T07:56:34Z</time>
      </trkpt>
      <trkpt lat="42.32354" lon="8.86243">
        <ele>1851.16</ele>
        <time>2015-06-24T07:56:48Z</time>
      </trkpt>
      <trkpt lat="42.32362" lon="8.8623">
        <ele>1851.64</ele>
        <time>2015-06-24T07:57:02Z</time>
      </trkpt>
      <trkpt lat="42.32364" lon="8.86216">
        <ele>1852.6</ele>
        <time>2015-06-24T07:57:14Z</time>
      </trkpt>
      <trkpt lat="42.32375" lon="8.86204">
        <ele>1852.6</ele>
        <time>2015-06-24T07:57:27Z</time>
      </trkpt>
      <trkpt lat="42.32382" lon="8.86183">
        <ele>1853.08</ele>
        <time>2015-06-24T07:57:42Z</time>
      </trkpt>
      <trkpt lat="42.32384" lon="8.86177">
        <ele>1853.08</ele>
        <time>2015-06-24T07:57:47Z</time>
      </trkpt>
      <trkpt lat="42.32396" lon="8.86159">
        <ele>1853.56</ele>
        <time>2015-06-24T07:58:02Z</time>
      </trkpt>
      <trkpt lat="42.32405" lon="8.86145">
        <ele>1854.52</ele>
        <time>2015-06-24T07:58:16Z</time>
      </trkpt>
      <trkpt lat="42.32408" lon="8.86136">
        <ele>1854.52</ele>
        <time>2015-06-24T07:58:31Z</time>
      </trkpt>
      <trkpt lat="42.3241" lon="8.8613">
        <ele>1855.48</ele>
        <time>2015-06-24T07:58:37Z</time>
      </trkpt>
      <trkpt lat="42.32413" lon="8.86125">
        <ele>1856.44</ele>
        <time>2015-06-24T07:58:44Z</time>
      </trkpt>
      <trkpt lat="42.32426" lon="8.86119">
        <ele>1855.96</ele>
        <time>2015-06-24T07:58:59Z</time>
      </trkpt>
      <trkpt lat="42.32441" lon="8.86114">
        <ele>1855.48</ele>
        <time>2015-06-24T07:59:14Z</time>
      </trkpt>
      <trkpt lat="42.32457" lon="8.86105">
        <ele>1856.44</ele>
        <time>2015-06-24T07:59:30Z</time>
      </trkpt>
      <trkpt lat="42.32459" lon="8.86103">
        <ele>1857.4</ele>
        <time>2015-06-24T07:59:33Z</time>
      </trkpt>
      <trkpt lat="42.3246" lon="8.86099">
        <ele>1857.89</ele>
        <time>2015-06-24T07:59:37Z</time>
      </trkpt>
      <trkpt lat="42.32469" lon="8.8609">
        <ele>1861.25</ele>
        <time>2015-06-24T07:59:52Z</time>
      </trkpt>
      <trkpt lat="42.32477" lon="8.86083">
        <ele>1864.13</ele>
        <time>2015-06-24T08:00:05Z</time>
      </trkpt>
      <trkpt lat="42.32483" lon="8.8608">
        <ele>1866.06</ele>
        <time>2015-06-24T08:00:14Z</time>
      </trkpt>
      <trkpt lat="42.3249" lon="8.86074">
        <ele>1867.5</ele>
        <time>2015-06-24T08:00:26Z</time>
      </trkpt>
      <trkpt lat="42.32503" lon="8.86067">
        <ele>1869.9</ele>
        <time>2015-06-24T08:00:42Z</time>
      </trkpt>
      <trkpt lat="42.32514" lon="8.8606">
        <ele>1872.79</ele>
        <time>2015-06-24T08:00:58Z</time>
      </trkpt>
      <trkpt lat="42.32526" lon="8.86058">
        <ele>1874.71</ele>
        <time>2015-06-24T08:01:13Z</time>
      </trkpt>
      <trkpt lat="42.32529" lon="8.8606">
        <ele>1875.67</ele>
        <time>2015-06-24T08:01:34Z</time>
      </trkpt>
      <trkpt lat="42.32537" lon="8.86059">
        <ele>1877.59</ele>
        <time>2015-06-24T08:01:47Z</time>
      </trkpt>
      <trkpt lat="42.3255" lon="8.86057">
        <ele>1880</ele>
        <time>2015-06-24T08:02:01Z</time>
      </trkpt>
      <trkpt lat="42.32567" lon="8.86057">
        <ele>1880.96</ele>
        <time>2015-06-24T08:02:18Z</time>
      </trkpt>
      <trkpt lat="42.32571" lon="8.86057">
        <ele>1881.44</ele>
        <time>2015-06-24T08:02:22Z</time>
      </trkpt>
      <trkpt lat="42.32573" lon="8.86047">
        <ele>1880</ele>
        <time>2015-06-24T08:02:36Z</time>
      </trkpt>
      <trkpt lat="42.32575" lon="8.86046">
        <ele>1879.51</ele>
        <time>2015-06-24T08:02:52Z</time>
      </trkpt>
      <trkpt lat="42.32577" lon="8.86047">
        <ele>1880</ele>
        <time>2015-06-24T08:03:17Z</time>
      </trkpt>
      <trkpt lat="42.32578" lon="8.86047">
        <ele>1880</ele>
        <time>2015-06-24T08:03:42Z</time>
      </trkpt>
      <trkpt lat="42.32578" lon="8.86048">
        <ele>1880</ele>
        <time>2015-06-24T08:04:06Z</time>
      </trkpt>
      <trkpt lat="42.32574" lon="8.86048">
        <ele>1880.48</ele>
        <time>2015-06-24T08:04:20Z</time>
      </trkpt>
      <trkpt lat="42.32584" lon="8.86059">
        <ele>1881.44</ele>
        <time>2015-06-24T08:04:37Z</time>
      </trkpt>
      <trkpt lat="42.32595" lon="8.86061">
        <ele>1883.36</ele>
        <time>2015-06-24T08:04:50Z</time>
      </trkpt>
      <trkpt lat="42.32605" lon="8.86069">
        <ele>1885.76</ele>
        <time>2015-06-24T08:05:06Z</time>
      </trkpt>
      <trkpt lat="42.32615" lon="8.86067">
        <ele>1887.69</ele>
        <time>2015-06-24T08:05:21Z</time>
      </trkpt>
      <trkpt lat="42.32627" lon="8.86076">
        <ele>1889.61</ele>
        <time>2015-06-24T08:05:37Z</time>
      </trkpt>
      <trkpt lat="42.32636" lon="8.86077">
        <ele>1891.05</ele>
        <time>2015-06-24T08:05:51Z</time>
      </trkpt>
      <trkpt lat="42.32645" lon="8.86075">
        <ele>1892.97</ele>
        <time>2015-06-24T08:06:06Z</time>
      </trkpt>
      <trkpt lat="42.32655" lon="8.86072">
        <ele>1895.86</ele>
        <time>2015-06-24T08:06:22Z</time>
      </trkpt>
      <trkpt lat="42.32659" lon="8.86067">
        <ele>1897.3</ele>
        <time>2015-06-24T08:06:34Z</time>
      </trkpt>
      <trkpt lat="42.32666" lon="8.86068">
        <ele>1898.74</ele>
        <time>2015-06-24T08:06:52Z</time>
      </trkpt>
      <trkpt lat="42.32677" lon="8.86073">
        <ele>1900.66</ele>
        <time>2015-06-24T08:07:06Z</time>
      </trkpt>
      <trkpt lat="42.32685" lon="8.86076">
        <ele>1903.07</ele>
        <time>2015-06-24T08:07:20Z</time>
      </trkpt>
      <trkpt lat="42.32693" lon="8.86078">
        <ele>1905.47</ele>
        <time>2015-06-24T08:07:34Z</time>
      </trkpt>
      <trkpt lat="42.327" lon="8.86086">
        <ele>1907.87</ele>
        <time>2015-06-24T08:07:49Z</time>
      </trkpt>
      <trkpt lat="42.32709" lon="8.86088">
        <ele>1910.76</ele>
        <time>2015-06-24T08:08:02Z</time>
      </trkpt>
      <trkpt lat="42.32719" lon="8.86094">
        <ele>1912.2</ele>
        <time>2015-06-24T08:08:16Z</time>
      </trkpt>
      <trkpt lat="42.32727" lon="8.86101">
        <ele>1913.64</ele>
        <time>2015-06-24T08:08:29Z</time>
      </trkpt>
      <trkpt lat="42.32736" lon="8.86106">
        <ele>1916.53</ele>
        <time>2015-06-24T08:08:43Z</time>
      </trkpt>
      <trkpt lat="42.32743" lon="8.8611">
        <ele>1918.45</ele>
        <time>2015-06-24T08:08:58Z</time>
      </trkpt>
      <trkpt lat="42.32751" lon="8.86106">
        <ele>1920.37</ele>
        <time>2015-06-24T08:09:13Z</time>
      </trkpt>
      <trkpt lat="42.3276" lon="8.86117">
        <ele>1922.77</ele>
        <time>2015-06-24T08:09:27Z</time>
      </trkpt>
      <trkpt lat="42.32768" lon="8.86126">
        <ele>1924.7</ele>
        <time>2015-06-24T08:09:42Z</time>
      </trkpt>
      <trkpt lat="42.32777" lon="8.86128">
        <ele>1926.62</ele>
        <time>2015-06-24T08:09:57Z</time>
      </trkpt>
      <trkpt lat="42.32784" lon="8.86129">
        <ele>1929.02</ele>
        <time>2015-06-24T08:10:10Z</time>
      </trkpt>
      <trkpt lat="42.32793" lon="8.86136">
        <ele>1930.46</ele>
        <time>2015-06-24T08:10:24Z</time>
      </trkpt>
      <trkpt lat="42.32801" lon="8.86148">
        <ele>1932.87</ele>
        <time>2015-06-24T08:10:40Z</time>
      </trkpt>
      <trkpt lat="42.32811" lon="8.86151">
        <ele>1934.79</ele>
        <time>2015-06-24T08:10:54Z</time>
      </trkpt>
      <trkpt lat="42.32817" lon="8.86158">
        <ele>1936.71</ele>
        <time>2015-06-24T08:11:05Z</time>
      </trkpt>
      <trkpt lat="42.32826" lon="8.86166">
        <ele>1939.12</ele>
        <time>2015-06-24T08:11:19Z</time>
      </trkpt>
      <trkpt lat="42.32837" lon="8.86167">
        <ele>1941.04</ele>
        <time>2015-06-24T08:11:34Z</time>
      </trkpt>
      <trkpt lat="42.32849" lon="8.86166">
        <ele>1943.92</ele>
        <time>2015-06-24T08:11:50Z</time>
      </trkpt>
      <trkpt lat="42.32857" lon="8.8617">
        <ele>1945.85</ele>
        <time>2015-06-24T08:12:03Z</time>
      </trkpt>
      <trkpt lat="42.32867" lon="8.86171">
        <ele>1947.29</ele>
        <time>2015-06-24T08:12:18Z</time>
      </trkpt>
      <trkpt lat="42.32877" lon="8.86173">
        <ele>1949.69</ele>
        <time>2015-06-24T08:12:32Z</time>
      </trkpt>
      <trkpt lat="42.32877" lon="8.8617">
        <ele>1949.69</ele>
        <time>2015-06-24T08:12:47Z</time>
      </trkpt>
      <trkpt lat="42.32878" lon="8.86169">
        <ele>1950.17</ele>
        <time>2015-06-24T08:13:03Z</time>
      </trkpt>
      <trkpt lat="42.32878" lon="8.86168">
        <ele>1950.65</ele>
        <time>2015-06-24T08:13:24Z</time>
      </trkpt>
      <trkpt lat="42.32879" lon="8.86171">
        <ele>1950.65</ele>
        <time>2015-06-24T08:13:39Z</time>
      </trkpt>
      <trkpt lat="42.32879" lon="8.86172">
        <ele>1949.69</ele>
        <time>2015-06-24T08:14:05Z</time>
      </trkpt>
      <trkpt lat="42.32879" lon="8.86171">
        <ele>1950.17</ele>
        <time>2015-06-24T08:14:34Z</time>
      </trkpt>
      <trkpt lat="42.32879" lon="8.86168">
        <ele>1950.65</ele>
        <time>2015-06-24T08:14:51Z</time>
      </trkpt>
      <trkpt lat="42.32877" lon="8.86165">
        <ele>1951.13</ele>
        <time>2015-06-24T08:15:16Z</time>
      </trkpt>
      <trkpt lat="42.32877" lon="8.86166">
        <ele>1951.13</ele>
        <time>2015-06-24T08:15:48Z</time>
      </trkpt>
      <trkpt lat="42.3288" lon="8.86167">
        <ele>1949.69</ele>
        <time>2015-06-24T08:16:06Z</time>
      </trkpt>
      <trkpt lat="42.32882" lon="8.86168">
        <ele>1951.13</ele>
        <time>2015-06-24T08:16:35Z</time>
      </trkpt>
      <trkpt lat="42.32881" lon="8.86168">
        <ele>1952.57</ele>
        <time>2015-06-24T08:16:48Z</time>
      </trkpt>
      <trkpt lat="42.3288" lon="8.8617">
        <ele>1949.21</ele>
        <time>2015-06-24T08:16:51Z</time>
      </trkpt>
      <trkpt lat="42.3288" lon="8.86169">
        <ele>1951.13</ele>
        <time>2015-06-24T08:17:19Z</time>
      </trkpt>
      <trkpt lat="42.3288" lon="8.86168">
        <ele>1950.17</ele>
        <time>2015-06-24T08:17:50Z</time>
      </trkpt>
      <trkpt lat="42.3288" lon="8.86168">
        <ele>1951.13</ele>
        <time>2015-06-24T08:18:16Z</time>
      </trkpt>
      <trkpt lat="42.32881" lon="8.86168">
        <ele>1951.61</ele>
        <time>2015-06-24T08:18:44Z</time>
      </trkpt>
      <trkpt lat="42.3288" lon="8.86169">
        <ele>1951.61</ele>
        <time>2015-06-24T08:19:11Z</time>
      </trkpt>
      <trkpt lat="42.3288" lon="8.86171">
        <ele>1950.65</ele>
        <time>2015-06-24T08:19:28Z</time>
      </trkpt>
      <trkpt lat="42.3288" lon="8.8617">
        <ele>1952.09</ele>
        <time>2015-06-24T08:19:30Z</time>
      </trkpt>
      <trkpt lat="42.32889" lon="8.86173">
        <ele>1954.02</ele>
        <time>2015-06-24T08:19:46Z</time>
      </trkpt>
      <trkpt lat="42.32894" lon="8.8617">
        <ele>1951.61</ele>
        <time>2015-06-24T08:19:55Z</time>
      </trkpt>
      <trkpt lat="42.3291" lon="8.86171">
        <ele>1948.73</ele>
        <time>2015-06-24T08:20:09Z</time>
      </trkpt>
      <trkpt lat="42.32928" lon="8.86168">
        <ele>1947.29</ele>
        <time>2015-06-24T08:20:27Z</time>
      </trkpt>
      <trkpt lat="42.32945" lon="8.86169">
        <ele>1944.88</ele>
        <time>2015-06-24T08:20:43Z</time>
      </trkpt>
      <trkpt lat="42.3296" lon="8.86166">
        <ele>1942.48</ele>
        <time>2015-06-24T08:20:58Z</time>
      </trkpt>
      <trkpt lat="42.3298" lon="8.86163">
        <ele>1940.08</ele>
        <time>2015-06-24T08:21:15Z</time>
      </trkpt>
      <trkpt lat="42.33" lon="8.86163">
        <ele>1939.12</ele>
        <time>2015-06-24T08:21:31Z</time>
      </trkpt>
      <trkpt lat="42.33005" lon="8.86165">
        <ele>1939.12</ele>
        <time>2015-06-24T08:21:35Z</time>
      </trkpt>
      <trkpt lat="42.33008" lon="8.86161">
        <ele>1939.12</ele>
        <time>2015-06-24T08:21:39Z</time>
      </trkpt>
      <trkpt lat="42.33015" lon="8.8616">
        <ele>1940.56</ele>
        <time>2015-06-24T08:21:46Z</time>
      </trkpt>
      <trkpt lat="42.33032" lon="8.86167">
        <ele>1942.48</ele>
        <time>2015-06-24T08:22:03Z</time>
      </trkpt>
      <trkpt lat="42.33044" lon="8.8617">
        <ele>1944.4</ele>
        <time>2015-06-24T08:22:17Z</time>
      </trkpt>
      <trkpt lat="42.33049" lon="8.86172">
        <ele>1944.88</ele>
        <time>2015-06-24T08:22:23Z</time>
      </trkpt>
      <trkpt lat="42.33061" lon="8.86175">
        <ele>1946.81</ele>
        <time>2015-06-24T08:22:39Z</time>
      </trkpt>
      <trkpt lat="42.33074" lon="8.86177">
        <ele>1948.25</ele>
        <time>2015-06-24T08:22:55Z</time>
      </trkpt>
      <trkpt lat="42.3308" lon="8.86178">
        <ele>1949.21</ele>
        <time>2015-06-24T08:23:03Z</time>
      </trkpt>
      <trkpt lat="42.33093" lon="8.8618">
        <ele>1950.65</ele>
        <time>2015-06-24T08:23:18Z</time>
      </trkpt>
      <trkpt lat="42.33095" lon="8.86183">
        <ele>1950.65</ele>
        <time>2015-06-24T08:23:21Z</time>
      </trkpt>
      <trkpt lat="42.33107" lon="8.86196">
        <ele>1953.06</ele>
        <time>2015-06-24T08:23:37Z</time>
      </trkpt>
      <trkpt lat="42.33118" lon="8.8621">
        <ele>1954.02</ele>
        <time>2015-06-24T08:23:52Z</time>
      </trkpt>
      <trkpt lat="42.33126" lon="8.86215">
        <ele>1954.98</ele>
        <time>2015-06-24T08:24:02Z</time>
      </trkpt>
      <trkpt lat="42.33138" lon="8.86222">
        <ele>1956.9</ele>
        <time>2015-06-24T08:24:18Z</time>
      </trkpt>
      <trkpt lat="42.33144" lon="8.86226">
        <ele>1957.86</ele>
        <time>2015-06-24T08:24:27Z</time>
      </trkpt>
      <trkpt lat="42.33155" lon="8.8624">
        <ele>1960.27</ele>
        <time>2015-06-24T08:24:43Z</time>
      </trkpt>
      <trkpt lat="42.33167" lon="8.86252">
        <ele>1962.19</ele>
        <time>2015-06-24T08:24:58Z</time>
      </trkpt>
      <trkpt lat="42.33172" lon="8.86256">
        <ele>1962.67</ele>
        <time>2015-06-24T08:25:06Z</time>
      </trkpt>
      <trkpt lat="42.3318" lon="8.86262">
        <ele>1964.11</ele>
        <time>2015-06-24T08:25:15Z</time>
      </trkpt>
      <trkpt lat="42.3319" lon="8.86278">
        <ele>1966.03</ele>
        <time>2015-06-24T08:25:32Z</time>
      </trkpt>
      <trkpt lat="42.33199" lon="8.8629">
        <ele>1967.48</ele>
        <time>2015-06-24T08:25:46Z</time>
      </trkpt>
      <trkpt lat="42.33202" lon="8.86293">
        <ele>1968.92</ele>
        <time>2015-06-24T08:25:51Z</time>
      </trkpt>
      <trkpt lat="42.33213" lon="8.86301">
        <ele>1970.84</ele>
        <time>2015-06-24T08:26:07Z</time>
      </trkpt>
      <trkpt lat="42.33219" lon="8.8631">
        <ele>1971.8</ele>
        <time>2015-06-24T08:26:19Z</time>
      </trkpt>
      <trkpt lat="42.33229" lon="8.86319">
        <ele>1973.72</ele>
        <time>2015-06-24T08:26:34Z</time>
      </trkpt>
      <trkpt lat="42.33233" lon="8.86321">
        <ele>1974.69</ele>
        <time>2015-06-24T08:26:39Z</time>
      </trkpt>
      <trkpt lat="42.33237" lon="8.86322">
        <ele>1975.17</ele>
        <time>2015-06-24T08:26:45Z</time>
      </trkpt>
      <trkpt lat="42.33247" lon="8.86333">
        <ele>1978.05</ele>
        <time>2015-06-24T08:27:02Z</time>
      </trkpt>
      <trkpt lat="42.33249" lon="8.86333">
        <ele>1978.05</ele>
        <time>2015-06-24T08:27:04Z</time>
      </trkpt>
      <trkpt lat="42.33261" lon="8.8634">
        <ele>1980.45</ele>
        <time>2015-06-24T08:27:21Z</time>
      </trkpt>
      <trkpt lat="42.33271" lon="8.86347">
        <ele>1982.86</ele>
        <time>2015-06-24T08:27:36Z</time>
      </trkpt>
      <trkpt lat="42.33272" lon="8.86348">
        <ele>1982.86</ele>
        <time>2015-06-24T08:27:37Z</time>
      </trkpt>
      <trkpt lat="42.33275" lon="8.86352">
        <ele>1983.34</ele>
        <time>2015-06-24T08:27:41Z</time>
      </trkpt>
      <trkpt lat="42.33291" lon="8.86364">
        <ele>1984.78</ele>
        <time>2015-06-24T08:27:59Z</time>
      </trkpt>
      <trkpt lat="42.33301" lon="8.86374">
        <ele>1985.26</ele>
        <time>2015-06-24T08:28:14Z</time>
      </trkpt>
      <trkpt lat="42.3331" lon="8.86384">
        <ele>1985.74</ele>
        <time>2015-06-24T08:28:25Z</time>
      </trkpt>
      <trkpt lat="42.33316" lon="8.86386">
        <ele>1987.66</ele>
        <time>2015-06-24T08:28:33Z</time>
      </trkpt>
      <trkpt lat="42.33326" lon="8.86396">
        <ele>1989.1</ele>
        <time>2015-06-24T08:28:46Z</time>
      </trkpt>
      <trkpt lat="42.33334" lon="8.86414">
        <ele>1989.59</ele>
        <time>2015-06-24T08:29:02Z</time>
      </trkpt>
      <trkpt lat="42.33342" lon="8.86428">
        <ele>1990.07</ele>
        <time>2015-06-24T08:29:16Z</time>
      </trkpt>
      <trkpt lat="42.33348" lon="8.86444">
        <ele>1988.62</ele>
        <time>2015-06-24T08:29:32Z</time>
      </trkpt>
      <trkpt lat="42.33357" lon="8.86457">
        <ele>1989.1</ele>
        <time>2015-06-24T08:29:49Z</time>
      </trkpt>
      <trkpt lat="42.33358" lon="8.86458">
        <ele>1989.1</ele>
        <time>2015-06-24T08:29:50Z</time>
      </trkpt>
      <trkpt lat="42.33368" lon="8.86468">
        <ele>1989.1</ele>
        <time>2015-06-24T08:30:03Z</time>
      </trkpt>
      <trkpt lat="42.33379" lon="8.86488">
        <ele>1989.59</ele>
        <time>2015-06-24T08:30:21Z</time>
      </trkpt>
      <trkpt lat="42.33379" lon="8.86491">
        <ele>1989.59</ele>
        <time>2015-06-24T08:30:23Z</time>
      </trkpt>
      <trkpt lat="42.33385" lon="8.86508">
        <ele>1989.1</ele>
        <time>2015-06-24T08:30:39Z</time>
      </trkpt>
      <trkpt lat="42.3339" lon="8.86526">
        <ele>1988.62</ele>
        <time>2015-06-24T08:30:55Z</time>
      </trkpt>
      <trkpt lat="42.33397" lon="8.86544">
        <ele>1990.07</ele>
        <time>2015-06-24T08:31:10Z</time>
      </trkpt>
      <trkpt lat="42.33406" lon="8.86559">
        <ele>1990.07</ele>
        <time>2015-06-24T08:31:27Z</time>
      </trkpt>
      <trkpt lat="42.33413" lon="8.86574">
        <ele>1989.59</ele>
        <time>2015-06-24T08:31:43Z</time>
      </trkpt>
      <trkpt lat="42.33415" lon="8.86581">
        <ele>1987.18</ele>
        <time>2015-06-24T08:31:55Z</time>
      </trkpt>
      <trkpt lat="42.33422" lon="8.86595">
        <ele>1987.66</ele>
        <time>2015-06-24T08:32:10Z</time>
      </trkpt>
      <trkpt lat="42.33423" lon="8.86598">
        <ele>1987.66</ele>
        <time>2015-06-24T08:32:13Z</time>
      </trkpt>
      <trkpt lat="42.33427" lon="8.8661">
        <ele>1988.62</ele>
        <time>2015-06-24T08:32:27Z</time>
      </trkpt>
      <trkpt lat="42.33434" lon="8.86623">
        <ele>1990.07</ele>
        <time>2015-06-24T08:32:42Z</time>
      </trkpt>
      <trkpt lat="42.3344" lon="8.86638">
        <ele>1989.59</ele>
        <time>2015-06-24T08:32:58Z</time>
      </trkpt>
      <trkpt lat="42.33446" lon="8.86656">
        <ele>1988.62</ele>
        <time>2015-06-24T08:33:13Z</time>
      </trkpt>
      <trkpt lat="42.33452" lon="8.86671">
        <ele>1990.07</ele>
        <time>2015-06-24T08:33:29Z</time>
      </trkpt>
      <trkpt lat="42.33453" lon="8.8669">
        <ele>1991.03</ele>
        <time>2015-06-24T08:33:45Z</time>
      </trkpt>
      <trkpt lat="42.33452" lon="8.86707">
        <ele>1991.03</ele>
        <time>2015-06-24T08:34:00Z</time>
      </trkpt>
      <trkpt lat="42.33454" lon="8.86717">
        <ele>1993.43</ele>
        <time>2015-06-24T08:34:14Z</time>
      </trkpt>
      <trkpt lat="42.33459" lon="8.86729">
        <ele>1994.39</ele>
        <time>2015-06-24T08:34:28Z</time>
      </trkpt>
      <trkpt lat="42.3346" lon="8.8673">
        <ele>1993.91</ele>
        <time>2015-06-24T08:34:29Z</time>
      </trkpt>
      <trkpt lat="42.33469" lon="8.86747">
        <ele>1993.91</ele>
        <time>2015-06-24T08:34:47Z</time>
      </trkpt>
      <trkpt lat="42.33478" lon="8.86761">
        <ele>1993.91</ele>
        <time>2015-06-24T08:35:04Z</time>
      </trkpt>
      <trkpt lat="42.33483" lon="8.86774">
        <ele>1994.87</ele>
        <time>2015-06-24T08:35:17Z</time>
      </trkpt>
      <trkpt lat="42.33485" lon="8.86781">
        <ele>1994.87</ele>
        <time>2015-06-24T08:35:32Z</time>
      </trkpt>
      <trkpt lat="42.33486" lon="8.86781">
        <ele>1994.39</ele>
        <time>2015-06-24T08:35:48Z</time>
      </trkpt>
      <trkpt lat="42.33486" lon="8.8678">
        <ele>1994.39</ele>
        <time>2015-06-24T08:36:08Z</time>
      </trkpt>
      <trkpt lat="42.33486" lon="8.8678">
        <ele>1994.87</ele>
        <time>2015-06-24T08:36:33Z</time>
      </trkpt>
      <trkpt lat="42.33486" lon="8.86784">
        <ele>1994.39</ele>
        <time>2015-06-24T08:37:04Z</time>
      </trkpt>
      <trkpt lat="42.33488" lon="8.86796">
        <ele>1994.39</ele>
        <time>2015-06-24T08:37:21Z</time>
      </trkpt>
      <trkpt lat="42.33492" lon="8.86809">
        <ele>1994.87</ele>
        <time>2015-06-24T08:37:36Z</time>
      </trkpt>
      <trkpt lat="42.33492" lon="8.86816">
        <ele>1995.35</ele>
        <time>2015-06-24T08:37:52Z</time>
      </trkpt>
      <trkpt lat="42.33493" lon="8.86817">
        <ele>1995.35</ele>
        <time>2015-06-24T08:37:58Z</time>
      </trkpt>
      <trkpt lat="42.33494" lon="8.8682">
        <ele>1993.43</ele>
        <time>2015-06-24T08:53:27Z</time>
      </trkpt>
      <trkpt lat="42.33491" lon="8.86819">
        <ele>1993.43</ele>
        <time>2015-06-24T08:53:50Z</time>
      </trkpt>
      <trkpt lat="42.33494" lon="8.86823">
        <ele>1993.43</ele>
        <time>2015-06-24T08:54:05Z</time>
      </trkpt>
      <trkpt lat="42.33493" lon="8.86824">
        <ele>1992.47</ele>
        <time>2015-06-24T08:54:23Z</time>
      </trkpt>
      <trkpt lat="42.33494" lon="8.86824">
        <ele>1992.47</ele>
        <time>2015-06-24T08:54:45Z</time>
      </trkpt>
      <trkpt lat="42.3349" lon="8.86818">
        <ele>1993.43</ele>
        <time>2015-06-24T08:55:07Z</time>
      </trkpt>
      <trkpt lat="42.3349" lon="8.86818">
        <ele>1993.43</ele>
        <time>2015-06-24T08:55:19Z</time>
      </trkpt>
      <trkpt lat="42.3349" lon="8.86817">
        <ele>1993.91</ele>
        <time>2015-06-24T08:55:36Z</time>
      </trkpt>
      <trkpt lat="42.3349" lon="8.86817">
        <ele>1993.91</ele>
        <time>2015-06-24T08:55:52Z</time>
      </trkpt>
      <trkpt lat="42.33491" lon="8.86818">
        <ele>1993.43</ele>
        <time>2015-06-24T08:56:10Z</time>
      </trkpt>
      <trkpt lat="42.33493" lon="8.86821">
        <ele>1993.91</ele>
        <time>2015-06-24T08:56:34Z</time>
      </trkpt>
      <trkpt lat="42.33498" lon="8.86824">
        <ele>1991.99</ele>
        <time>2015-06-24T08:56:51Z</time>
      </trkpt>
      <trkpt lat="42.33502" lon="8.86834">
        <ele>1990.55</ele>
        <time>2015-06-24T08:57:05Z</time>
      </trkpt>
      <trkpt lat="42.33509" lon="8.86835">
        <ele>1990.07</ele>
        <time>2015-06-24T08:57:16Z</time>
      </trkpt>
      <trkpt lat="42.33511" lon="8.86835">
        <ele>1989.59</ele>
        <time>2015-06-24T08:57:18Z</time>
      </trkpt>
      <trkpt lat="42.33519" lon="8.86847">
        <ele>1987.18</ele>
        <time>2015-06-24T08:57:32Z</time>
      </trkpt>
      <trkpt lat="42.33522" lon="8.86848">
        <ele>1987.18</ele>
        <time>2015-06-24T08:57:35Z</time>
      </trkpt>
      <trkpt lat="42.33531" lon="8.86861">
        <ele>1985.74</ele>
        <time>2015-06-24T08:57:49Z</time>
      </trkpt>
      <trkpt lat="42.33532" lon="8.86865">
        <ele>1985.74</ele>
        <time>2015-06-24T08:58:02Z</time>
      </trkpt>
      <trkpt lat="42.33536" lon="8.86871">
        <ele>1985.26</ele>
        <time>2015-06-24T08:58:14Z</time>
      </trkpt>
      <trkpt lat="42.33537" lon="8.86873">
        <ele>1985.74</ele>
        <time>2015-06-24T08:58:16Z</time>
      </trkpt>
      <trkpt lat="42.33543" lon="8.86887">
        <ele>1985.26</ele>
        <time>2015-06-24T08:58:29Z</time>
      </trkpt>
      <trkpt lat="42.33552" lon="8.86901">
        <ele>1985.74</ele>
        <time>2015-06-24T08:58:41Z</time>
      </trkpt>
      <trkpt lat="42.33551" lon="8.86918">
        <ele>1986.22</ele>
        <time>2015-06-24T08:58:54Z</time>
      </trkpt>
      <trkpt lat="42.33548" lon="8.8694">
        <ele>1987.66</ele>
        <time>2015-06-24T08:59:11Z</time>
      </trkpt>
      <trkpt lat="42.33549" lon="8.86952">
        <ele>1988.14</ele>
        <time>2015-06-24T08:59:20Z</time>
      </trkpt>
      <trkpt lat="42.33546" lon="8.86973">
        <ele>1988.62</ele>
        <time>2015-06-24T08:59:36Z</time>
      </trkpt>
      <trkpt lat="42.33545" lon="8.86978">
        <ele>1988.62</ele>
        <time>2015-06-24T08:59:40Z</time>
      </trkpt>
      <trkpt lat="42.33542" lon="8.86995">
        <ele>1989.59</ele>
        <time>2015-06-24T08:59:54Z</time>
      </trkpt>
      <trkpt lat="42.33541" lon="8.8701">
        <ele>1991.99</ele>
        <time>2015-06-24T09:00:09Z</time>
      </trkpt>
      <trkpt lat="42.33543" lon="8.87023">
        <ele>1993.43</ele>
        <time>2015-06-24T09:00:24Z</time>
      </trkpt>
      <trkpt lat="42.33541" lon="8.87034">
        <ele>1994.39</ele>
        <time>2015-06-24T09:00:35Z</time>
      </trkpt>
      <trkpt lat="42.33541" lon="8.87038">
        <ele>1994.39</ele>
        <time>2015-06-24T09:00:52Z</time>
      </trkpt>
      <trkpt lat="42.33537" lon="8.87044">
        <ele>1995.35</ele>
        <time>2015-06-24T09:01:08Z</time>
      </trkpt>
      <trkpt lat="42.33532" lon="8.87055">
        <ele>1996.8</ele>
        <time>2015-06-24T09:01:23Z</time>
      </trkpt>
      <trkpt lat="42.33528" lon="8.87066">
        <ele>1996.32</ele>
        <time>2015-06-24T09:01:38Z</time>
      </trkpt>
      <trkpt lat="42.33525" lon="8.87075">
        <ele>1997.76</ele>
        <time>2015-06-24T09:01:52Z</time>
      </trkpt>
      <trkpt lat="42.33526" lon="8.87082">
        <ele>2000.16</ele>
        <time>2015-06-24T09:02:06Z</time>
      </trkpt>
      <trkpt lat="42.33522" lon="8.8709">
        <ele>2002.56</ele>
        <time>2015-06-24T09:02:22Z</time>
      </trkpt>
      <trkpt lat="42.3352" lon="8.871">
        <ele>2004.49</ele>
        <time>2015-06-24T09:02:41Z</time>
      </trkpt>
      <trkpt lat="42.33515" lon="8.87111">
        <ele>2006.41</ele>
        <time>2015-06-24T09:02:56Z</time>
      </trkpt>
      <trkpt lat="42.33513" lon="8.87122">
        <ele>2008.33</ele>
        <time>2015-06-24T09:03:11Z</time>
      </trkpt>
      <trkpt lat="42.33514" lon="8.87133">
        <ele>2010.25</ele>
        <time>2015-06-24T09:03:26Z</time>
      </trkpt>
      <trkpt lat="42.33511" lon="8.87145">
        <ele>2011.7</ele>
        <time>2015-06-24T09:03:42Z</time>
      </trkpt>
      <trkpt lat="42.33509" lon="8.87154">
        <ele>2013.62</ele>
        <time>2015-06-24T09:03:56Z</time>
      </trkpt>
      <trkpt lat="42.33504" lon="8.87164">
        <ele>2015.06</ele>
        <time>2015-06-24T09:04:09Z</time>
      </trkpt>
      <trkpt lat="42.33504" lon="8.8717">
        <ele>2017.46</ele>
        <time>2015-06-24T09:04:23Z</time>
      </trkpt>
      <trkpt lat="42.33509" lon="8.87174">
        <ele>2019.87</ele>
        <time>2015-06-24T09:04:37Z</time>
      </trkpt>
      <trkpt lat="42.33502" lon="8.87183">
        <ele>2021.79</ele>
        <time>2015-06-24T09:04:50Z</time>
      </trkpt>
      <trkpt lat="42.33507" lon="8.87196">
        <ele>2023.23</ele>
        <time>2015-06-24T09:05:05Z</time>
      </trkpt>
      <trkpt lat="42.33506" lon="8.872">
        <ele>2021.31</ele>
        <time>2015-06-24T09:05:09Z</time>
      </trkpt>
      <trkpt lat="42.33501" lon="8.87216">
        <ele>2021.31</ele>
        <time>2015-06-24T09:05:23Z</time>
      </trkpt>
      <trkpt lat="42.335" lon="8.87229">
        <ele>2023.23</ele>
        <time>2015-06-24T09:05:37Z</time>
      </trkpt>
      <trkpt lat="42.33498" lon="8.87239">
        <ele>2024.67</ele>
        <time>2015-06-24T09:05:49Z</time>
      </trkpt>
      <trkpt lat="42.33495" lon="8.87247">
        <ele>2023.23</ele>
        <time>2015-06-24T09:06:04Z</time>
      </trkpt>
      <trkpt lat="42.33494" lon="8.87254">
        <ele>2022.75</ele>
        <time>2015-06-24T09:06:10Z</time>
      </trkpt>
      <trkpt lat="42.33488" lon="8.8727">
        <ele>2021.31</ele>
        <time>2015-06-24T09:06:25Z</time>
      </trkpt>
      <trkpt lat="42.33484" lon="8.87281">
        <ele>2021.79</ele>
        <time>2015-06-24T09:06:38Z</time>
      </trkpt>
      <trkpt lat="42.33479" lon="8.87293">
        <ele>2020.83</ele>
        <time>2015-06-24T09:06:50Z</time>
      </trkpt>
      <trkpt lat="42.33477" lon="8.87303">
        <ele>2023.23</ele>
        <time>2015-06-24T09:07:04Z</time>
      </trkpt>
      <trkpt lat="42.33477" lon="8.87312">
        <ele>2025.64</ele>
        <time>2015-06-24T09:07:17Z</time>
      </trkpt>
      <trkpt lat="42.33481" lon="8.87318">
        <ele>2029</ele>
        <time>2015-06-24T09:07:29Z</time>
      </trkpt>
      <trkpt lat="42.33477" lon="8.87325">
        <ele>2030.92</ele>
        <time>2015-06-24T09:07:41Z</time>
      </trkpt>
      <trkpt lat="42.33476" lon="8.87334">
        <ele>2033.81</ele>
        <time>2015-06-24T09:07:54Z</time>
      </trkpt>
      <trkpt lat="42.33473" lon="8.87345">
        <ele>2035.73</ele>
        <time>2015-06-24T09:08:09Z</time>
      </trkpt>
      <trkpt lat="42.33468" lon="8.87354">
        <ele>2036.69</ele>
        <time>2015-06-24T09:08:22Z</time>
      </trkpt>
      <trkpt lat="42.33461" lon="8.87368">
        <ele>2037.65</ele>
        <time>2015-06-24T09:08:37Z</time>
      </trkpt>
      <trkpt lat="42.33454" lon="8.87372">
        <ele>2038.13</ele>
        <time>2015-06-24T09:08:52Z</time>
      </trkpt>
      <trkpt lat="42.33454" lon="8.87372">
        <ele>2037.65</ele>
        <time>2015-06-24T09:09:08Z</time>
      </trkpt>
      <trkpt lat="42.33454" lon="8.87373">
        <ele>2037.17</ele>
        <time>2015-06-24T09:09:32Z</time>
      </trkpt>
      <trkpt lat="42.33454" lon="8.87374">
        <ele>2036.21</ele>
        <time>2015-06-24T09:09:47Z</time>
      </trkpt>
      <trkpt lat="42.33449" lon="8.87384">
        <ele>2034.77</ele>
        <time>2015-06-24T09:10:02Z</time>
      </trkpt>
      <trkpt lat="42.33449" lon="8.87385">
        <ele>2035.25</ele>
        <time>2015-06-24T09:10:03Z</time>
      </trkpt>
      <trkpt lat="42.33447" lon="8.87397">
        <ele>2034.29</ele>
        <time>2015-06-24T09:10:14Z</time>
      </trkpt>
      <trkpt lat="42.33445" lon="8.87402">
        <ele>2033.33</ele>
        <time>2015-06-24T09:10:18Z</time>
      </trkpt>
      <trkpt lat="42.33441" lon="8.87408">
        <ele>2032.36</ele>
        <time>2015-06-24T09:10:24Z</time>
      </trkpt>
      <trkpt lat="42.33437" lon="8.87419">
        <ele>2030.92</ele>
        <time>2015-06-24T09:10:33Z</time>
      </trkpt>
      <trkpt lat="42.33432" lon="8.87422">
        <ele>2029</ele>
        <time>2015-06-24T09:10:39Z</time>
      </trkpt>
      <trkpt lat="42.33427" lon="8.87434">
        <ele>2025.64</ele>
        <time>2015-06-24T09:10:50Z</time>
      </trkpt>
      <trkpt lat="42.33426" lon="8.87435">
        <ele>2024.67</ele>
        <time>2015-06-24T09:10:52Z</time>
      </trkpt>
      <trkpt lat="42.33419" lon="8.87444">
        <ele>2021.31</ele>
        <time>2015-06-24T09:11:03Z</time>
      </trkpt>
      <trkpt lat="42.33416" lon="8.87452">
        <ele>2021.79</ele>
        <time>2015-06-24T09:11:10Z</time>
      </trkpt>
      <trkpt lat="42.33416" lon="8.87455">
        <ele>2022.27</ele>
        <time>2015-06-24T09:11:13Z</time>
      </trkpt>
      <trkpt lat="42.33408" lon="8.8747">
        <ele>2018.43</ele>
        <time>2015-06-24T09:11:31Z</time>
      </trkpt>
      <trkpt lat="42.334" lon="8.87476">
        <ele>2015.54</ele>
        <time>2015-06-24T09:11:43Z</time>
      </trkpt>
      <trkpt lat="42.33398" lon="8.87481">
        <ele>2014.58</ele>
        <time>2015-06-24T09:11:48Z</time>
      </trkpt>
      <trkpt lat="42.33397" lon="8.87483">
        <ele>2012.66</ele>
        <time>2015-06-24T09:11:51Z</time>
      </trkpt>
      <trkpt lat="42.33394" lon="8.87489">
        <ele>2012.66</ele>
        <time>2015-06-24T09:11:59Z</time>
      </trkpt>
      <trkpt lat="42.33392" lon="8.87495">
        <ele>2012.18</ele>
        <time>2015-06-24T09:12:14Z</time>
      </trkpt>
      <trkpt lat="42.3339" lon="8.87507">
        <ele>2008.81</ele>
        <time>2015-06-24T09:12:24Z</time>
      </trkpt>
      <trkpt lat="42.33383" lon="8.87523">
        <ele>2006.89</ele>
        <time>2015-06-24T09:12:38Z</time>
      </trkpt>
      <trkpt lat="42.33382" lon="8.87528">
        <ele>2008.81</ele>
        <time>2015-06-24T09:12:41Z</time>
      </trkpt>
      <trkpt lat="42.33382" lon="8.8753">
        <ele>2007.37</ele>
        <time>2015-06-24T09:12:43Z</time>
      </trkpt>
      <trkpt lat="42.33378" lon="8.87544">
        <ele>2004.49</ele>
        <time>2015-06-24T09:12:56Z</time>
      </trkpt>
      <trkpt lat="42.33369" lon="8.87555">
        <ele>2001.6</ele>
        <time>2015-06-24T09:13:09Z</time>
      </trkpt>
      <trkpt lat="42.33368" lon="8.87556">
        <ele>2002.56</ele>
        <time>2015-06-24T09:13:10Z</time>
      </trkpt>
      <trkpt lat="42.33367" lon="8.8756">
        <ele>2000.64</ele>
        <time>2015-06-24T09:13:13Z</time>
      </trkpt>
      <trkpt lat="42.33367" lon="8.8756">
        <ele>1999.2</ele>
        <time>2015-06-24T09:13:14Z</time>
      </trkpt>
      <trkpt lat="42.33361" lon="8.87562">
        <ele>2001.6</ele>
        <time>2015-06-24T09:13:21Z</time>
      </trkpt>
      <trkpt lat="42.33358" lon="8.87561">
        <ele>1998.24</ele>
        <time>2015-06-24T09:13:25Z</time>
      </trkpt>
      <trkpt lat="42.33358" lon="8.87562">
        <ele>1998.72</ele>
        <time>2015-06-24T09:13:26Z</time>
      </trkpt>
      <trkpt lat="42.33351" lon="8.87576">
        <ele>1995.35</ele>
        <time>2015-06-24T09:13:42Z</time>
      </trkpt>
      <trkpt lat="42.33348" lon="8.87584">
        <ele>1992.95</ele>
        <time>2015-06-24T09:13:51Z</time>
      </trkpt>
      <trkpt lat="42.33343" lon="8.87595">
        <ele>1990.07</ele>
        <time>2015-06-24T09:14:02Z</time>
      </trkpt>
      <trkpt lat="42.33333" lon="8.87603">
        <ele>1987.18</ele>
        <time>2015-06-24T09:14:15Z</time>
      </trkpt>
      <trkpt lat="42.33329" lon="8.87609">
        <ele>1986.22</ele>
        <time>2015-06-24T09:14:21Z</time>
      </trkpt>
      <trkpt lat="42.33324" lon="8.87618">
        <ele>1983.82</ele>
        <time>2015-06-24T09:14:29Z</time>
      </trkpt>
      <trkpt lat="42.33314" lon="8.87631">
        <ele>1980.45</ele>
        <time>2015-06-24T09:14:45Z</time>
      </trkpt>
      <trkpt lat="42.33311" lon="8.87635">
        <ele>1981.41</ele>
        <time>2015-06-24T09:14:51Z</time>
      </trkpt>
      <trkpt lat="42.33305" lon="8.87649">
        <ele>1978.53</ele>
        <time>2015-06-24T09:15:06Z</time>
      </trkpt>
      <trkpt lat="42.33301" lon="8.87654">
        <ele>1979.49</ele>
        <time>2015-06-24T09:15:11Z</time>
      </trkpt>
      <trkpt lat="42.33295" lon="8.87647">
        <ele>1977.57</ele>
        <time>2015-06-24T09:15:18Z</time>
      </trkpt>
      <trkpt lat="42.33286" lon="8.8765">
        <ele>1976.13</ele>
        <time>2015-06-24T09:15:31Z</time>
      </trkpt>
      <trkpt lat="42.33285" lon="8.87655">
        <ele>1974.2</ele>
        <time>2015-06-24T09:15:36Z</time>
      </trkpt>
      <trkpt lat="42.33275" lon="8.87657">
        <ele>1975.17</ele>
        <time>2015-06-24T09:15:49Z</time>
      </trkpt>
      <trkpt lat="42.33269" lon="8.87653">
        <ele>1970.36</ele>
        <time>2015-06-24T09:15:58Z</time>
      </trkpt>
      <trkpt lat="42.33267" lon="8.87655">
        <ele>1971.32</ele>
        <time>2015-06-24T09:16:01Z</time>
      </trkpt>
      <trkpt lat="42.3326" lon="8.8766">
        <ele>1967.48</ele>
        <time>2015-06-24T09:16:09Z</time>
      </trkpt>
      <trkpt lat="42.33259" lon="8.87661">
        <ele>1966.51</ele>
        <time>2015-06-24T09:16:11Z</time>
      </trkpt>
      <trkpt lat="42.3326" lon="8.87667">
        <ele>1969.88</ele>
        <time>2015-06-24T09:16:20Z</time>
      </trkpt>
      <trkpt lat="42.33261" lon="8.87665">
        <ele>1966.03</ele>
        <time>2015-06-24T09:16:22Z</time>
      </trkpt>
      <trkpt lat="42.33261" lon="8.87664">
        <ele>1966.99</ele>
        <time>2015-06-24T09:16:23Z</time>
      </trkpt>
      <trkpt lat="42.33261" lon="8.87664">
        <ele>1968.44</ele>
        <time>2015-06-24T09:16:49Z</time>
      </trkpt>
      <trkpt lat="42.33259" lon="8.87666">
        <ele>1968.44</ele>
        <time>2015-06-24T09:17:15Z</time>
      </trkpt>
      <trkpt lat="42.3326" lon="8.87666">
        <ele>1968.44</ele>
        <time>2015-06-24T09:17:16Z</time>
      </trkpt>
      <trkpt lat="42.33262" lon="8.8767">
        <ele>1967.48</ele>
        <time>2015-06-24T09:17:32Z</time>
      </trkpt>
      <trkpt lat="42.33271" lon="8.87673">
        <ele>1968.44</ele>
        <time>2015-06-24T09:17:45Z</time>
      </trkpt>
      <trkpt lat="42.33273" lon="8.87675">
        <ele>1966.99</ele>
        <time>2015-06-24T09:17:48Z</time>
      </trkpt>
      <trkpt lat="42.33276" lon="8.87681">
        <ele>1965.07</ele>
        <time>2015-06-24T09:17:53Z</time>
      </trkpt>
      <trkpt lat="42.33277" lon="8.87685">
        <ele>1961.71</ele>
        <time>2015-06-24T09:17:59Z</time>
      </trkpt>
      <trkpt lat="42.33277" lon="8.87686">
        <ele>1962.19</ele>
        <time>2015-06-24T09:18:00Z</time>
      </trkpt>
      <trkpt lat="42.33277" lon="8.8769">
        <ele>1961.23</ele>
        <time>2015-06-24T09:18:05Z</time>
      </trkpt>
      <trkpt lat="42.33275" lon="8.87697">
        <ele>1959.78</ele>
        <time>2015-06-24T09:18:16Z</time>
      </trkpt>
      <trkpt lat="42.33275" lon="8.87698">
        <ele>1955.94</ele>
        <time>2015-06-24T09:18:17Z</time>
      </trkpt>
      <trkpt lat="42.33275" lon="8.877">
        <ele>1954.98</ele>
        <time>2015-06-24T09:18:19Z</time>
      </trkpt>
      <trkpt lat="42.33275" lon="8.87701">
        <ele>1958.82</ele>
        <time>2015-06-24T09:18:21Z</time>
      </trkpt>
      <trkpt lat="42.33275" lon="8.87702">
        <ele>1958.34</ele>
        <time>2015-06-24T09:18:22Z</time>
      </trkpt>
      <trkpt lat="42.33276" lon="8.87706">
        <ele>1955.94</ele>
        <time>2015-06-24T09:18:28Z</time>
      </trkpt>
      <trkpt lat="42.33277" lon="8.87713">
        <ele>1953.06</ele>
        <time>2015-06-24T09:18:40Z</time>
      </trkpt>
      <trkpt lat="42.33278" lon="8.87717">
        <ele>1953.54</ele>
        <time>2015-06-24T09:18:50Z</time>
      </trkpt>
      <trkpt lat="42.33279" lon="8.87718">
        <ele>1951.13</ele>
        <time>2015-06-24T09:18:55Z</time>
      </trkpt>
      <trkpt lat="42.33278" lon="8.87726">
        <ele>1948.73</ele>
        <time>2015-06-24T09:19:11Z</time>
      </trkpt>
      <trkpt lat="42.3328" lon="8.87724">
        <ele>1949.69</ele>
        <time>2015-06-24T09:19:33Z</time>
      </trkpt>
      <trkpt lat="42.33281" lon="8.87724">
        <ele>1949.21</ele>
        <time>2015-06-24T09:20:00Z</time>
      </trkpt>
      <trkpt lat="42.33282" lon="8.87734">
        <ele>1946.81</ele>
        <time>2015-06-24T09:20:14Z</time>
      </trkpt>
      <trkpt lat="42.33282" lon="8.87738">
        <ele>1945.36</ele>
        <time>2015-06-24T09:20:19Z</time>
      </trkpt>
      <trkpt lat="42.33285" lon="8.87742">
        <ele>1943.92</ele>
        <time>2015-06-24T09:20:25Z</time>
      </trkpt>
      <trkpt lat="42.33286" lon="8.87751">
        <ele>1941.04</ele>
        <time>2015-06-24T09:20:38Z</time>
      </trkpt>
      <trkpt lat="42.33285" lon="8.87757">
        <ele>1939.12</ele>
        <time>2015-06-24T09:20:48Z</time>
      </trkpt>
      <trkpt lat="42.33287" lon="8.8776">
        <ele>1938.64</ele>
        <time>2015-06-24T09:20:55Z</time>
      </trkpt>
      <trkpt lat="42.33286" lon="8.87763">
        <ele>1935.27</ele>
        <time>2015-06-24T09:21:00Z</time>
      </trkpt>
      <trkpt lat="42.33286" lon="8.87768">
        <ele>1933.83</ele>
        <time>2015-06-24T09:21:11Z</time>
      </trkpt>
      <trkpt lat="42.33288" lon="8.8777">
        <ele>1931.91</ele>
        <time>2015-06-24T09:21:17Z</time>
      </trkpt>
      <trkpt lat="42.33289" lon="8.87775">
        <ele>1931.91</ele>
        <time>2015-06-24T09:21:23Z</time>
      </trkpt>
      <trkpt lat="42.3329" lon="8.87773">
        <ele>1932.39</ele>
        <time>2015-06-24T09:21:40Z</time>
      </trkpt>
      <trkpt lat="42.33292" lon="8.87773">
        <ele>1931.43</ele>
        <time>2015-06-24T09:22:07Z</time>
      </trkpt>
      <trkpt lat="42.3329" lon="8.87774">
        <ele>1931.43</ele>
        <time>2015-06-24T09:22:29Z</time>
      </trkpt>
      <trkpt lat="42.33291" lon="8.87773">
        <ele>1931.91</ele>
        <time>2015-06-24T09:22:56Z</time>
      </trkpt>
      <trkpt lat="42.33291" lon="8.87774">
        <ele>1931.91</ele>
        <time>2015-06-24T09:23:15Z</time>
      </trkpt>
      <trkpt lat="42.33291" lon="8.87777">
        <ele>1932.39</ele>
        <time>2015-06-24T09:23:42Z</time>
      </trkpt>
      <trkpt lat="42.33293" lon="8.87775">
        <ele>1931.91</ele>
        <time>2015-06-24T09:24:05Z</time>
      </trkpt>
      <trkpt lat="42.33294" lon="8.87773">
        <ele>1932.87</ele>
        <time>2015-06-24T09:24:29Z</time>
      </trkpt>
      <trkpt lat="42.33294" lon="8.87772">
        <ele>1933.35</ele>
        <time>2015-06-24T09:24:56Z</time>
      </trkpt>
      <trkpt lat="42.33297" lon="8.87774">
        <ele>1932.87</ele>
        <time>2015-06-24T09:25:13Z</time>
      </trkpt>
      <trkpt lat="42.33302" lon="8.87782">
        <ele>1930.46</ele>
        <time>2015-06-24T09:25:23Z</time>
      </trkpt>
      <trkpt lat="42.33306" lon="8.87792">
        <ele>1926.62</ele>
        <time>2015-06-24T09:25:35Z</time>
      </trkpt>
      <trkpt lat="42.33316" lon="8.878">
        <ele>1925.18</ele>
        <time>2015-06-24T09:25:48Z</time>
      </trkpt>
      <trkpt lat="42.33322" lon="8.87811">
        <ele>1924.22</ele>
        <time>2015-06-24T09:26:01Z</time>
      </trkpt>
      <trkpt lat="42.33325" lon="8.87814">
        <ele>1922.29</ele>
        <time>2015-06-24T09:26:18Z</time>
      </trkpt>
      <trkpt lat="42.33327" lon="8.87818">
        <ele>1919.41</ele>
        <time>2015-06-24T09:26:26Z</time>
      </trkpt>
      <trkpt lat="42.3333" lon="8.87819">
        <ele>1918.45</ele>
        <time>2015-06-24T09:26:37Z</time>
      </trkpt>
      <trkpt lat="42.33336" lon="8.87816">
        <ele>1916.53</ele>
        <time>2015-06-24T09:26:51Z</time>
      </trkpt>
      <trkpt lat="42.33341" lon="8.87817">
        <ele>1913.16</ele>
        <time>2015-06-24T09:27:05Z</time>
      </trkpt>
      <trkpt lat="42.33345" lon="8.87821">
        <ele>1912.2</ele>
        <time>2015-06-24T09:27:12Z</time>
      </trkpt>
      <trkpt lat="42.33354" lon="8.87828">
        <ele>1911.24</ele>
        <time>2015-06-24T09:27:26Z</time>
      </trkpt>
      <trkpt lat="42.33361" lon="8.87831">
        <ele>1909.32</ele>
        <time>2015-06-24T09:27:41Z</time>
      </trkpt>
      <trkpt lat="42.33363" lon="8.87836">
        <ele>1907.87</ele>
        <time>2015-06-24T09:27:58Z</time>
      </trkpt>
      <trkpt lat="42.33364" lon="8.87846">
        <ele>1906.43</ele>
        <time>2015-06-24T09:28:18Z</time>
      </trkpt>
      <trkpt lat="42.33365" lon="8.8785">
        <ele>1904.03</ele>
        <time>2015-06-24T09:28:28Z</time>
      </trkpt>
      <trkpt lat="42.33363" lon="8.87855">
        <ele>1902.59</ele>
        <time>2015-06-24T09:28:41Z</time>
      </trkpt>
      <trkpt lat="42.33365" lon="8.87856">
        <ele>1902.11</ele>
        <time>2015-06-24T09:28:43Z</time>
      </trkpt>
      <trkpt lat="42.33368" lon="8.87859">
        <ele>1901.14</ele>
        <time>2015-06-24T09:28:48Z</time>
      </trkpt>
      <trkpt lat="42.33376" lon="8.87867">
        <ele>1900.66</ele>
        <time>2015-06-24T09:29:01Z</time>
      </trkpt>
      <trkpt lat="42.33383" lon="8.87867">
        <ele>1902.11</ele>
        <time>2015-06-24T09:29:14Z</time>
      </trkpt>
      <trkpt lat="42.33388" lon="8.87874">
        <ele>1901.14</ele>
        <time>2015-06-24T09:29:27Z</time>
      </trkpt>
      <trkpt lat="42.33388" lon="8.87875">
        <ele>1901.63</ele>
        <time>2015-06-24T09:29:28Z</time>
      </trkpt>
      <trkpt lat="42.33398" lon="8.87885">
        <ele>1900.18</ele>
        <time>2015-06-24T09:29:44Z</time>
      </trkpt>
      <trkpt lat="42.33402" lon="8.87894">
        <ele>1897.78</ele>
        <time>2015-06-24T09:29:59Z</time>
      </trkpt>
      <trkpt lat="42.33403" lon="8.87903">
        <ele>1895.38</ele>
        <time>2015-06-24T09:30:13Z</time>
      </trkpt>
      <trkpt lat="42.33407" lon="8.87905">
        <ele>1893.93</ele>
        <time>2015-06-24T09:30:26Z</time>
      </trkpt>
      <trkpt lat="42.3341" lon="8.87911">
        <ele>1891.05</ele>
        <time>2015-06-24T09:30:42Z</time>
      </trkpt>
      <trkpt lat="42.33408" lon="8.87919">
        <ele>1889.13</ele>
        <time>2015-06-24T09:30:52Z</time>
      </trkpt>
      <trkpt lat="42.33405" lon="8.87926">
        <ele>1886.72</ele>
        <time>2015-06-24T09:31:07Z</time>
      </trkpt>
      <trkpt lat="42.33408" lon="8.87924">
        <ele>1886.24</ele>
        <time>2015-06-24T09:31:19Z</time>
      </trkpt>
      <trkpt lat="42.33411" lon="8.87924">
        <ele>1884.8</ele>
        <time>2015-06-24T09:31:34Z</time>
      </trkpt>
      <trkpt lat="42.33414" lon="8.87927">
        <ele>1881.92</ele>
        <time>2015-06-24T09:31:43Z</time>
      </trkpt>
      <trkpt lat="42.33417" lon="8.8793">
        <ele>1880</ele>
        <time>2015-06-24T09:32:00Z</time>
      </trkpt>
      <trkpt lat="42.33418" lon="8.87934">
        <ele>1878.55</ele>
        <time>2015-06-24T09:32:13Z</time>
      </trkpt>
      <trkpt lat="42.33421" lon="8.87938">
        <ele>1876.63</ele>
        <time>2015-06-24T09:32:27Z</time>
      </trkpt>
      <trkpt lat="42.33424" lon="8.87945">
        <ele>1874.71</ele>
        <time>2015-06-24T09:32:40Z</time>
      </trkpt>
      <trkpt lat="42.33428" lon="8.87953">
        <ele>1872.3</ele>
        <time>2015-06-24T09:32:54Z</time>
      </trkpt>
      <trkpt lat="42.33429" lon="8.87962">
        <ele>1870.86</ele>
        <time>2015-06-24T09:33:08Z</time>
      </trkpt>
      <trkpt lat="42.33427" lon="8.87967">
        <ele>1868.46</ele>
        <time>2015-06-24T09:33:21Z</time>
      </trkpt>
      <trkpt lat="42.33424" lon="8.87968">
        <ele>1867.5</ele>
        <time>2015-06-24T09:33:32Z</time>
      </trkpt>
      <trkpt lat="42.3342" lon="8.87975">
        <ele>1865.58</ele>
        <time>2015-06-24T09:33:47Z</time>
      </trkpt>
      <trkpt lat="42.33421" lon="8.8798">
        <ele>1864.13</ele>
        <time>2015-06-24T09:34:02Z</time>
      </trkpt>
      <trkpt lat="42.33415" lon="8.87987">
        <ele>1861.25</ele>
        <time>2015-06-24T09:34:15Z</time>
      </trkpt>
      <trkpt lat="42.33407" lon="8.87992">
        <ele>1858.37</ele>
        <time>2015-06-24T09:34:28Z</time>
      </trkpt>
      <trkpt lat="42.334" lon="8.87991">
        <ele>1856.44</ele>
        <time>2015-06-24T09:34:44Z</time>
      </trkpt>
      <trkpt lat="42.33396" lon="8.87997">
        <ele>1854.04</ele>
        <time>2015-06-24T09:34:55Z</time>
      </trkpt>
      <trkpt lat="42.33387" lon="8.87999">
        <ele>1852.6</ele>
        <time>2015-06-24T09:35:05Z</time>
      </trkpt>
      <trkpt lat="42.33389" lon="8.88007">
        <ele>1851.16</ele>
        <time>2015-06-24T09:35:20Z</time>
      </trkpt>
      <trkpt lat="42.33391" lon="8.88011">
        <ele>1848.27</ele>
        <time>2015-06-24T09:35:31Z</time>
      </trkpt>
      <trkpt lat="42.33391" lon="8.88017">
        <ele>1847.79</ele>
        <time>2015-06-24T09:35:46Z</time>
      </trkpt>
      <trkpt lat="42.3339" lon="8.88022">
        <ele>1844.91</ele>
        <time>2015-06-24T09:35:52Z</time>
      </trkpt>
      <trkpt lat="42.33389" lon="8.88025">
        <ele>1844.91</ele>
        <time>2015-06-24T09:35:56Z</time>
      </trkpt>
      <trkpt lat="42.33389" lon="8.88031">
        <ele>1844.43</ele>
        <time>2015-06-24T09:36:10Z</time>
      </trkpt>
      <trkpt lat="42.33397" lon="8.88034">
        <ele>1842.02</ele>
        <time>2015-06-24T09:36:24Z</time>
      </trkpt>
      <trkpt lat="42.33404" lon="8.88042">
        <ele>1840.58</ele>
        <time>2015-06-24T09:36:38Z</time>
      </trkpt>
      <trkpt lat="42.33406" lon="8.88048">
        <ele>1838.66</ele>
        <time>2015-06-24T09:36:57Z</time>
      </trkpt>
      <trkpt lat="42.33404" lon="8.88052">
        <ele>1838.18</ele>
        <time>2015-06-24T09:37:14Z</time>
      </trkpt>
      <trkpt lat="42.33404" lon="8.88056">
        <ele>1835.77</ele>
        <time>2015-06-24T09:37:35Z</time>
      </trkpt>
      <trkpt lat="42.33398" lon="8.88058">
        <ele>1833.37</ele>
        <time>2015-06-24T09:37:47Z</time>
      </trkpt>
      <trkpt lat="42.33398" lon="8.88057">
        <ele>1831.93</ele>
        <time>2015-06-24T09:37:49Z</time>
      </trkpt>
      <trkpt lat="42.33392" lon="8.88059">
        <ele>1829.53</ele>
        <time>2015-06-24T09:38:01Z</time>
      </trkpt>
      <trkpt lat="42.33386" lon="8.88065">
        <ele>1827.12</ele>
        <time>2015-06-24T09:38:13Z</time>
      </trkpt>
      <trkpt lat="42.33384" lon="8.88071">
        <ele>1825.2</ele>
        <time>2015-06-24T09:38:27Z</time>
      </trkpt>
      <trkpt lat="42.33389" lon="8.88079">
        <ele>1822.32</ele>
        <time>2015-06-24T09:38:45Z</time>
      </trkpt>
      <trkpt lat="42.33393" lon="8.88087">
        <ele>1822.32</ele>
        <time>2015-06-24T09:39:01Z</time>
      </trkpt>
      <trkpt lat="42.33396" lon="8.8809">
        <ele>1821.84</ele>
        <time>2015-06-24T09:39:16Z</time>
      </trkpt>
      <trkpt lat="42.33397" lon="8.88093">
        <ele>1820.87</ele>
        <time>2015-06-24T09:39:32Z</time>
      </trkpt>
      <trkpt lat="42.33398" lon="8.88092">
        <ele>1820.39</ele>
        <time>2015-06-24T09:39:52Z</time>
      </trkpt>
      <trkpt lat="42.33401" lon="8.88095">
        <ele>1818.47</ele>
        <time>2015-06-24T09:40:08Z</time>
      </trkpt>
      <trkpt lat="42.334" lon="8.88103">
        <ele>1816.55</ele>
        <time>2015-06-24T09:40:22Z</time>
      </trkpt>
      <trkpt lat="42.33401" lon="8.88103">
        <ele>1816.07</ele>
        <time>2015-06-24T09:40:35Z</time>
      </trkpt>
      <trkpt lat="42.33403" lon="8.88101">
        <ele>1814.63</ele>
        <time>2015-06-24T09:40:50Z</time>
      </trkpt>
      <trkpt lat="42.33401" lon="8.88102">
        <ele>1815.11</ele>
        <time>2015-06-24T09:41:13Z</time>
      </trkpt>
      <trkpt lat="42.33403" lon="8.88107">
        <ele>1813.18</ele>
        <time>2015-06-24T09:41:31Z</time>
      </trkpt>
      <trkpt lat="42.33402" lon="8.8811">
        <ele>1812.22</ele>
        <time>2015-06-24T09:41:46Z</time>
      </trkpt>
      <trkpt lat="42.334" lon="8.8811">
        <ele>1809.34</ele>
        <time>2015-06-24T09:42:00Z</time>
      </trkpt>
      <trkpt lat="42.33399" lon="8.88118">
        <ele>1806.45</ele>
        <time>2015-06-24T09:42:13Z</time>
      </trkpt>
      <trkpt lat="42.33394" lon="8.88122">
        <ele>1804.05</ele>
        <time>2015-06-24T09:42:26Z</time>
      </trkpt>
      <trkpt lat="42.33396" lon="8.88124">
        <ele>1802.13</ele>
        <time>2015-06-24T09:42:40Z</time>
      </trkpt>
      <trkpt lat="42.33393" lon="8.88127">
        <ele>1800.69</ele>
        <time>2015-06-24T09:42:51Z</time>
      </trkpt>
      <trkpt lat="42.33393" lon="8.88128">
        <ele>1800.21</ele>
        <time>2015-06-24T09:43:05Z</time>
      </trkpt>
      <trkpt lat="42.33392" lon="8.88128">
        <ele>1799.73</ele>
        <time>2015-06-24T09:43:22Z</time>
      </trkpt>
      <trkpt lat="42.33392" lon="8.88132">
        <ele>1798.28</ele>
        <time>2015-06-24T09:43:39Z</time>
      </trkpt>
      <trkpt lat="42.33389" lon="8.88133">
        <ele>1797.8</ele>
        <time>2015-06-24T09:43:58Z</time>
      </trkpt>
      <trkpt lat="42.33388" lon="8.88138">
        <ele>1795.4</ele>
        <time>2015-06-24T09:44:13Z</time>
      </trkpt>
      <trkpt lat="42.33391" lon="8.88137">
        <ele>1792.52</ele>
        <time>2015-06-24T09:44:24Z</time>
      </trkpt>
      <trkpt lat="42.33387" lon="8.88143">
        <ele>1792.03</ele>
        <time>2015-06-24T09:44:37Z</time>
      </trkpt>
      <trkpt lat="42.33387" lon="8.88143">
        <ele>1791.07</ele>
        <time>2015-06-24T09:44:52Z</time>
      </trkpt>
      <trkpt lat="42.33386" lon="8.88145">
        <ele>1789.63</ele>
        <time>2015-06-24T09:45:04Z</time>
      </trkpt>
      <trkpt lat="42.33389" lon="8.88147">
        <ele>1787.23</ele>
        <time>2015-06-24T09:45:17Z</time>
      </trkpt>
      <trkpt lat="42.3339" lon="8.88145">
        <ele>1787.23</ele>
        <time>2015-06-24T09:45:38Z</time>
      </trkpt>
      <trkpt lat="42.33392" lon="8.88152">
        <ele>1785.79</ele>
        <time>2015-06-24T09:45:53Z</time>
      </trkpt>
      <trkpt lat="42.33392" lon="8.88159">
        <ele>1782.9</ele>
        <time>2015-06-24T09:46:08Z</time>
      </trkpt>
      <trkpt lat="42.3339" lon="8.88169">
        <ele>1780.02</ele>
        <time>2015-06-24T09:46:26Z</time>
      </trkpt>
      <trkpt lat="42.33389" lon="8.88172">
        <ele>1778.1</ele>
        <time>2015-06-24T09:46:41Z</time>
      </trkpt>
      <trkpt lat="42.33387" lon="8.8817">
        <ele>1777.13</ele>
        <time>2015-06-24T09:46:56Z</time>
      </trkpt>
      <trkpt lat="42.33385" lon="8.88167">
        <ele>1776.17</ele>
        <time>2015-06-24T09:47:16Z</time>
      </trkpt>
      <trkpt lat="42.3338" lon="8.88167">
        <ele>1774.25</ele>
        <time>2015-06-24T09:47:30Z</time>
      </trkpt>
      <trkpt lat="42.33382" lon="8.88167">
        <ele>1773.77</ele>
        <time>2015-06-24T09:47:45Z</time>
      </trkpt>
      <trkpt lat="42.33384" lon="8.8817">
        <ele>1771.85</ele>
        <time>2015-06-24T09:48:02Z</time>
      </trkpt>
      <trkpt lat="42.33384" lon="8.88169">
        <ele>1770.89</ele>
        <time>2015-06-24T09:48:27Z</time>
      </trkpt>
      <trkpt lat="42.33386" lon="8.88174">
        <ele>1770.41</ele>
        <time>2015-06-24T09:48:46Z</time>
      </trkpt>
      <trkpt lat="42.33387" lon="8.88179">
        <ele>1769.44</ele>
        <time>2015-06-24T09:49:09Z</time>
      </trkpt>
      <trkpt lat="42.33381" lon="8.88181">
        <ele>1767.04</ele>
        <time>2015-06-24T09:49:23Z</time>
      </trkpt>
      <trkpt lat="42.33382" lon="8.88186">
        <ele>1765.12</ele>
        <time>2015-06-24T09:49:34Z</time>
      </trkpt>
      <trkpt lat="42.33382" lon="8.88194">
        <ele>1762.23</ele>
        <time>2015-06-24T09:49:48Z</time>
      </trkpt>
      <trkpt lat="42.33387" lon="8.88202">
        <ele>1759.83</ele>
        <time>2015-06-24T09:50:04Z</time>
      </trkpt>
      <trkpt lat="42.33393" lon="8.88209">
        <ele>1759.35</ele>
        <time>2015-06-24T09:50:19Z</time>
      </trkpt>
      <trkpt lat="42.33399" lon="8.88218">
        <ele>1761.75</ele>
        <time>2015-06-24T09:50:33Z</time>
      </trkpt>
      <trkpt lat="42.33405" lon="8.88222">
        <ele>1761.75</ele>
        <time>2015-06-24T09:50:49Z</time>
      </trkpt>
      <trkpt lat="42.33405" lon="8.88228">
        <ele>1761.75</ele>
        <time>2015-06-24T09:51:05Z</time>
      </trkpt>
      <trkpt lat="42.33403" lon="8.88236">
        <ele>1758.87</ele>
        <time>2015-06-24T09:51:26Z</time>
      </trkpt>
      <trkpt lat="42.33408" lon="8.8824">
        <ele>1760.31</ele>
        <time>2015-06-24T09:51:40Z</time>
      </trkpt>
      <trkpt lat="42.33407" lon="8.88246">
        <ele>1759.35</ele>
        <time>2015-06-24T09:51:47Z</time>
      </trkpt>
      <trkpt lat="42.33411" lon="8.88257">
        <ele>1758.39</ele>
        <time>2015-06-24T09:52:01Z</time>
      </trkpt>
      <trkpt lat="42.33415" lon="8.8826">
        <ele>1757.43</ele>
        <time>2015-06-24T09:52:17Z</time>
      </trkpt>
      <trkpt lat="42.33416" lon="8.88263">
        <ele>1756.95</ele>
        <time>2015-06-24T09:52:33Z</time>
      </trkpt>
      <trkpt lat="42.33417" lon="8.88269">
        <ele>1754.54</ele>
        <time>2015-06-24T09:52:47Z</time>
      </trkpt>
      <trkpt lat="42.33423" lon="8.8828">
        <ele>1752.62</ele>
        <time>2015-06-24T09:52:59Z</time>
      </trkpt>
      <trkpt lat="42.33423" lon="8.88289">
        <ele>1749.74</ele>
        <time>2015-06-24T09:53:13Z</time>
      </trkpt>
      <trkpt lat="42.33429" lon="8.88292">
        <ele>1748.29</ele>
        <time>2015-06-24T09:53:28Z</time>
      </trkpt>
      <trkpt lat="42.33428" lon="8.88295">
        <ele>1746.85</ele>
        <time>2015-06-24T09:53:31Z</time>
      </trkpt>
      <trkpt lat="42.33428" lon="8.88306">
        <ele>1745.41</ele>
        <time>2015-06-24T09:53:46Z</time>
      </trkpt>
      <trkpt lat="42.33428" lon="8.88309">
        <ele>1743.01</ele>
        <time>2015-06-24T09:54:03Z</time>
      </trkpt>
      <trkpt lat="42.33429" lon="8.88305">
        <ele>1741.57</ele>
        <time>2015-06-24T09:54:18Z</time>
      </trkpt>
      <trkpt lat="42.33429" lon="8.88315">
        <ele>1739.64</ele>
        <time>2015-06-24T09:54:31Z</time>
      </trkpt>
      <trkpt lat="42.33433" lon="8.88315">
        <ele>1739.64</ele>
        <time>2015-06-24T09:54:43Z</time>
      </trkpt>
      <trkpt lat="42.33437" lon="8.8832">
        <ele>1738.2</ele>
        <time>2015-06-24T09:54:59Z</time>
      </trkpt>
      <trkpt lat="42.33433" lon="8.88331">
        <ele>1736.28</ele>
        <time>2015-06-24T09:55:13Z</time>
      </trkpt>
      <trkpt lat="42.33434" lon="8.8834">
        <ele>1732.91</ele>
        <time>2015-06-24T09:55:27Z</time>
      </trkpt>
      <trkpt lat="42.33436" lon="8.88345">
        <ele>1731.47</ele>
        <time>2015-06-24T09:55:39Z</time>
      </trkpt>
      <trkpt lat="42.33438" lon="8.88351">
        <ele>1729.55</ele>
        <time>2015-06-24T09:55:53Z</time>
      </trkpt>
      <trkpt lat="42.33438" lon="8.88353">
        <ele>1728.59</ele>
        <time>2015-06-24T09:55:56Z</time>
      </trkpt>
      <trkpt lat="42.33442" lon="8.88365">
        <ele>1727.15</ele>
        <time>2015-06-24T09:56:11Z</time>
      </trkpt>
      <trkpt lat="42.33444" lon="8.88373">
        <ele>1725.7</ele>
        <time>2015-06-24T09:56:26Z</time>
      </trkpt>
      <trkpt lat="42.33446" lon="8.8838">
        <ele>1722.34</ele>
        <time>2015-06-24T09:56:38Z</time>
      </trkpt>
      <trkpt lat="42.3345" lon="8.88392">
        <ele>1719.94</ele>
        <time>2015-06-24T09:56:53Z</time>
      </trkpt>
      <trkpt lat="42.33452" lon="8.88403">
        <ele>1718.01</ele>
        <time>2015-06-24T09:57:07Z</time>
      </trkpt>
      <trkpt lat="42.33453" lon="8.88404">
        <ele>1718.01</ele>
        <time>2015-06-24T09:57:08Z</time>
      </trkpt>
      <trkpt lat="42.33456" lon="8.88419">
        <ele>1714.17</ele>
        <time>2015-06-24T09:57:25Z</time>
      </trkpt>
      <trkpt lat="42.33455" lon="8.88431">
        <ele>1712.25</ele>
        <time>2015-06-24T09:57:38Z</time>
      </trkpt>
      <trkpt lat="42.33458" lon="8.88439">
        <ele>1710.8</ele>
        <time>2015-06-24T09:57:52Z</time>
      </trkpt>
      <trkpt lat="42.33458" lon="8.88447">
        <ele>1708.88</ele>
        <time>2015-06-24T09:58:04Z</time>
      </trkpt>
      <trkpt lat="42.33458" lon="8.88453">
        <ele>1707.44</ele>
        <time>2015-06-24T09:58:17Z</time>
      </trkpt>
      <trkpt lat="42.33461" lon="8.88461">
        <ele>1705.04</ele>
        <time>2015-06-24T09:58:32Z</time>
      </trkpt>
      <trkpt lat="42.33462" lon="8.88468">
        <ele>1703.11</ele>
        <time>2015-06-24T09:58:44Z</time>
      </trkpt>
      <trkpt lat="42.33464" lon="8.88474">
        <ele>1701.19</ele>
        <time>2015-06-24T09:58:56Z</time>
      </trkpt>
      <trkpt lat="42.33469" lon="8.88482">
        <ele>1698.79</ele>
        <time>2015-06-24T09:59:10Z</time>
      </trkpt>
      <trkpt lat="42.33473" lon="8.88491">
        <ele>1695.9</ele>
        <time>2015-06-24T09:59:24Z</time>
      </trkpt>
      <trkpt lat="42.33475" lon="8.88502">
        <ele>1693.5</ele>
        <time>2015-06-24T09:59:39Z</time>
      </trkpt>
      <trkpt lat="42.33481" lon="8.88511">
        <ele>1691.58</ele>
        <time>2015-06-24T09:59:54Z</time>
      </trkpt>
      <trkpt lat="42.33482" lon="8.88513">
        <ele>1689.65</ele>
        <time>2015-06-24T09:59:59Z</time>
      </trkpt>
      <trkpt lat="42.33483" lon="8.88518">
        <ele>1689.17</ele>
        <time>2015-06-24T10:00:05Z</time>
      </trkpt>
      <trkpt lat="42.33482" lon="8.88528">
        <ele>1686.29</ele>
        <time>2015-06-24T10:00:21Z</time>
      </trkpt>
      <trkpt lat="42.33479" lon="8.88537">
        <ele>1683.41</ele>
        <time>2015-06-24T10:00:36Z</time>
      </trkpt>
      <trkpt lat="42.33473" lon="8.88539">
        <ele>1681.96</ele>
        <time>2015-06-24T10:00:48Z</time>
      </trkpt>
      <trkpt lat="42.33475" lon="8.88546">
        <ele>1681</ele>
        <time>2015-06-24T10:01:01Z</time>
      </trkpt>
      <trkpt lat="42.33476" lon="8.88553">
        <ele>1678.6</ele>
        <time>2015-06-24T10:01:17Z</time>
      </trkpt>
      <trkpt lat="42.33476" lon="8.88558">
        <ele>1677.16</ele>
        <time>2015-06-24T10:01:27Z</time>
      </trkpt>
      <trkpt lat="42.33479" lon="8.88566">
        <ele>1674.27</ele>
        <time>2015-06-24T10:01:42Z</time>
      </trkpt>
      <trkpt lat="42.3348" lon="8.88576">
        <ele>1672.35</ele>
        <time>2015-06-24T10:01:55Z</time>
      </trkpt>
      <trkpt lat="42.33485" lon="8.88584">
        <ele>1669.95</ele>
        <time>2015-06-24T10:02:09Z</time>
      </trkpt>
      <trkpt lat="42.33483" lon="8.8859">
        <ele>1668.99</ele>
        <time>2015-06-24T10:02:21Z</time>
      </trkpt>
      <trkpt lat="42.33485" lon="8.88593">
        <ele>1667.54</ele>
        <time>2015-06-24T10:02:24Z</time>
      </trkpt>
      <trkpt lat="42.33487" lon="8.88597">
        <ele>1666.1</ele>
        <time>2015-06-24T10:02:36Z</time>
      </trkpt>
      <trkpt lat="42.33487" lon="8.88602">
        <ele>1664.66</ele>
        <time>2015-06-24T10:02:42Z</time>
      </trkpt>
      <trkpt lat="42.33492" lon="8.88611">
        <ele>1663.7</ele>
        <time>2015-06-24T10:02:56Z</time>
      </trkpt>
      <trkpt lat="42.33489" lon="8.88617">
        <ele>1663.22</ele>
        <time>2015-06-24T10:03:09Z</time>
      </trkpt>
      <trkpt lat="42.33492" lon="8.88613">
        <ele>1662.74</ele>
        <time>2015-06-24T10:03:31Z</time>
      </trkpt>
      <trkpt lat="42.33496" lon="8.8861">
        <ele>1662.74</ele>
        <time>2015-06-24T10:03:49Z</time>
      </trkpt>
      <trkpt lat="42.33501" lon="8.88616">
        <ele>1659.85</ele>
        <time>2015-06-24T10:04:00Z</time>
      </trkpt>
      <trkpt lat="42.335" lon="8.88618">
        <ele>1659.37</ele>
        <time>2015-06-24T10:04:01Z</time>
      </trkpt>
      <trkpt lat="42.33498" lon="8.88628">
        <ele>1656.97</ele>
        <time>2015-06-24T10:04:16Z</time>
      </trkpt>
      <trkpt lat="42.33502" lon="8.8863">
        <ele>1655.53</ele>
        <time>2015-06-24T10:04:30Z</time>
      </trkpt>
      <trkpt lat="42.33505" lon="8.88638">
        <ele>1652.64</ele>
        <time>2015-06-24T10:04:47Z</time>
      </trkpt>
      <trkpt lat="42.33503" lon="8.88648">
        <ele>1650.72</ele>
        <time>2015-06-24T10:04:59Z</time>
      </trkpt>
      <trkpt lat="42.3351" lon="8.88654">
        <ele>1647.84</ele>
        <time>2015-06-24T10:05:13Z</time>
      </trkpt>
      <trkpt lat="42.33515" lon="8.88652">
        <ele>1645.91</ele>
        <time>2015-06-24T10:05:27Z</time>
      </trkpt>
      <trkpt lat="42.3352" lon="8.88663">
        <ele>1643.03</ele>
        <time>2015-06-24T10:05:42Z</time>
      </trkpt>
      <trkpt lat="42.33525" lon="8.88668">
        <ele>1640.63</ele>
        <time>2015-06-24T10:05:57Z</time>
      </trkpt>
      <trkpt lat="42.33528" lon="8.88674">
        <ele>1638.7</ele>
        <time>2015-06-24T10:06:09Z</time>
      </trkpt>
      <trkpt lat="42.33534" lon="8.88676">
        <ele>1636.78</ele>
        <time>2015-06-24T10:06:25Z</time>
      </trkpt>
      <trkpt lat="42.33542" lon="8.8867">
        <ele>1634.38</ele>
        <time>2015-06-24T10:06:39Z</time>
      </trkpt>
      <trkpt lat="42.33545" lon="8.88678">
        <ele>1632.94</ele>
        <time>2015-06-24T10:06:52Z</time>
      </trkpt>
      <trkpt lat="42.33548" lon="8.88672">
        <ele>1631.49</ele>
        <time>2015-06-24T10:07:08Z</time>
      </trkpt>
      <trkpt lat="42.33549" lon="8.88664">
        <ele>1632.46</ele>
        <time>2015-06-24T10:07:22Z</time>
      </trkpt>
      <trkpt lat="42.33551" lon="8.88662">
        <ele>1631.98</ele>
        <time>2015-06-24T10:07:40Z</time>
      </trkpt>
      <trkpt lat="42.33551" lon="8.88659">
        <ele>1631.98</ele>
        <time>2015-06-24T10:08:06Z</time>
      </trkpt>
      <trkpt lat="42.33558" lon="8.88654">
        <ele>1631.49</ele>
        <time>2015-06-24T10:08:26Z</time>
      </trkpt>
      <trkpt lat="42.33562" lon="8.88655">
        <ele>1632.46</ele>
        <time>2015-06-24T10:08:43Z</time>
      </trkpt>
      <trkpt lat="42.33567" lon="8.88654">
        <ele>1632.46</ele>
        <time>2015-06-24T10:09:13Z</time>
      </trkpt>
      <trkpt lat="42.33573" lon="8.88651">
        <ele>1633.42</ele>
        <time>2015-06-24T10:09:27Z</time>
      </trkpt>
      <trkpt lat="42.33577" lon="8.8865">
        <ele>1633.9</ele>
        <time>2015-06-24T10:09:46Z</time>
      </trkpt>
      <trkpt lat="42.33574" lon="8.88656">
        <ele>1632.94</ele>
        <time>2015-06-24T10:10:05Z</time>
      </trkpt>
      <trkpt lat="42.33576" lon="8.88651">
        <ele>1633.42</ele>
        <time>2015-06-24T10:10:24Z</time>
      </trkpt>
      <trkpt lat="42.33574" lon="8.88654">
        <ele>1633.42</ele>
        <time>2015-06-24T10:10:43Z</time>
      </trkpt>
      <trkpt lat="42.33574" lon="8.88654">
        <ele>1633.42</ele>
        <time>2015-06-24T10:11:06Z</time>
      </trkpt>
      <trkpt lat="42.33575" lon="8.88653">
        <ele>1633.42</ele>
        <time>2015-06-24T10:11:31Z</time>
      </trkpt>
      <trkpt lat="42.33576" lon="8.88647">
        <ele>1633.42</ele>
        <time>2015-06-24T10:11:44Z</time>
      </trkpt>
      <trkpt lat="42.33579" lon="8.88641">
        <ele>1635.82</ele>
        <time>2015-06-24T10:11:58Z</time>
      </trkpt>
      <trkpt lat="42.33584" lon="8.88639">
        <ele>1636.78</ele>
        <time>2015-06-24T10:12:16Z</time>
      </trkpt>
      <trkpt lat="42.33589" lon="8.88644">
        <ele>1636.3</ele>
        <time>2015-06-24T10:12:35Z</time>
      </trkpt>
      <trkpt lat="42.33586" lon="8.88646">
        <ele>1636.3</ele>
        <time>2015-06-24T10:12:55Z</time>
      </trkpt>
      <trkpt lat="42.33587" lon="8.88647">
        <ele>1636.78</ele>
        <time>2015-06-24T10:13:16Z</time>
      </trkpt>
      <trkpt lat="42.33586" lon="8.88647">
        <ele>1636.3</ele>
        <time>2015-06-24T10:13:40Z</time>
      </trkpt>
      <trkpt lat="42.33584" lon="8.88647">
        <ele>1636.3</ele>
        <time>2015-06-24T10:14:00Z</time>
      </trkpt>
      <trkpt lat="42.33587" lon="8.88645">
        <ele>1636.78</ele>
        <time>2015-06-24T10:14:21Z</time>
      </trkpt>
      <trkpt lat="42.33586" lon="8.88648">
        <ele>1636.78</ele>
        <time>2015-06-24T10:14:54Z</time>
      </trkpt>
      <trkpt lat="42.33585" lon="8.8865">
        <ele>1636.78</ele>
        <time>2015-06-24T10:15:21Z</time>
      </trkpt>
      <trkpt lat="42.33586" lon="8.88649">
        <ele>1636.3</ele>
        <time>2015-06-24T10:15:41Z</time>
      </trkpt>
      <trkpt lat="42.33586" lon="8.8865">
        <ele>1636.3</ele>
        <time>2015-06-24T10:16:03Z</time>
      </trkpt>
      <trkpt lat="42.33586" lon="8.88649">
        <ele>1635.34</ele>
        <time>2015-06-24T10:16:18Z</time>
      </trkpt>
      <trkpt lat="42.33585" lon="8.88649">
        <ele>1635.34</ele>
        <time>2015-06-24T10:16:43Z</time>
      </trkpt>
      <trkpt lat="42.33592" lon="8.88638">
        <ele>1635.34</ele>
        <time>2015-06-24T10:16:44Z</time>
      </trkpt>
      <trkpt lat="42.33589" lon="8.88641">
        <ele>1635.34</ele>
        <time>2015-06-24T10:17:21Z</time>
      </trkpt>
      <trkpt lat="42.3359" lon="8.88641">
        <ele>1633.9</ele>
        <time>2015-06-24T10:17:26Z</time>
      </trkpt>
      <trkpt lat="42.33589" lon="8.88641">
        <ele>1635.82</ele>
        <time>2015-06-24T10:18:12Z</time>
      </trkpt>
      <trkpt lat="42.3359" lon="8.8864">
        <ele>1635.34</ele>
        <time>2015-06-24T10:18:47Z</time>
      </trkpt>
      <trkpt lat="42.3359" lon="8.88641">
        <ele>1636.3</ele>
        <time>2015-06-24T10:19:18Z</time>
      </trkpt>
      <trkpt lat="42.33589" lon="8.88642">
        <ele>1635.82</ele>
        <time>2015-06-24T10:19:22Z</time>
      </trkpt>
      <trkpt lat="42.3359" lon="8.88641">
        <ele>1631.98</ele>
        <time>2015-06-24T11:20:48Z</time>
      </trkpt>
      <trkpt lat="42.33588" lon="8.88647">
        <ele>1631.49</ele>
        <time>2015-06-24T11:20:56Z</time>
      </trkpt>
      <trkpt lat="42.33591" lon="8.88644">
        <ele>1632.94</ele>
        <time>2015-06-24T11:21:15Z</time>
      </trkpt>
      <trkpt lat="42.33591" lon="8.88646">
        <ele>1634.86</ele>
        <time>2015-06-24T11:21:35Z</time>
      </trkpt>
      <trkpt lat="42.3359" lon="8.88642">
        <ele>1635.34</ele>
        <time>2015-06-24T11:21:49Z</time>
      </trkpt>
      <trkpt lat="42.33588" lon="8.88642">
        <ele>1634.38</ele>
        <time>2015-06-24T11:21:55Z</time>
      </trkpt>
      <trkpt lat="42.33583" lon="8.88639">
        <ele>1634.86</ele>
        <time>2015-06-24T11:22:08Z</time>
      </trkpt>
      <trkpt lat="42.33578" lon="8.88642">
        <ele>1633.9</ele>
        <time>2015-06-24T11:22:23Z</time>
      </trkpt>
      <trkpt lat="42.33577" lon="8.8865">
        <ele>1631.98</ele>
        <time>2015-06-24T11:22:36Z</time>
      </trkpt>
      <trkpt lat="42.33567" lon="8.88653">
        <ele>1630.53</ele>
        <time>2015-06-24T11:22:49Z</time>
      </trkpt>
      <trkpt lat="42.33558" lon="8.88657">
        <ele>1629.57</ele>
        <time>2015-06-24T11:23:04Z</time>
      </trkpt>
      <trkpt lat="42.33551" lon="8.88665">
        <ele>1628.13</ele>
        <time>2015-06-24T11:23:18Z</time>
      </trkpt>
      <trkpt lat="42.33549" lon="8.88671">
        <ele>1628.13</ele>
        <time>2015-06-24T11:23:33Z</time>
      </trkpt>
      <trkpt lat="42.33545" lon="8.88678">
        <ele>1628.61</ele>
        <time>2015-06-24T11:23:48Z</time>
      </trkpt>
      <trkpt lat="42.33546" lon="8.88677">
        <ele>1629.57</ele>
        <time>2015-06-24T11:24:07Z</time>
      </trkpt>
      <trkpt lat="42.33549" lon="8.88676">
        <ele>1629.57</ele>
        <time>2015-06-24T11:24:34Z</time>
      </trkpt>
      <trkpt lat="42.33548" lon="8.88679">
        <ele>1630.05</ele>
        <time>2015-06-24T11:25:05Z</time>
      </trkpt>
      <trkpt lat="42.33544" lon="8.88685">
        <ele>1630.05</ele>
        <time>2015-06-24T11:25:14Z</time>
      </trkpt>
      <trkpt lat="42.33539" lon="8.88695">
        <ele>1627.17</ele>
        <time>2015-06-24T11:25:30Z</time>
      </trkpt>
      <trkpt lat="42.33543" lon="8.88696">
        <ele>1626.21</ele>
        <time>2015-06-24T11:25:44Z</time>
      </trkpt>
      <trkpt lat="42.33542" lon="8.88696">
        <ele>1626.21</ele>
        <time>2015-06-24T11:26:02Z</time>
      </trkpt>
      <trkpt lat="42.33547" lon="8.88694">
        <ele>1625.25</ele>
        <time>2015-06-24T11:26:16Z</time>
      </trkpt>
      <trkpt lat="42.33548" lon="8.88701">
        <ele>1622.84</ele>
        <time>2015-06-24T11:26:26Z</time>
      </trkpt>
      <trkpt lat="42.33548" lon="8.88702">
        <ele>1624.28</ele>
        <time>2015-06-24T11:26:29Z</time>
      </trkpt>
      <trkpt lat="42.33551" lon="8.88702">
        <ele>1621.4</ele>
        <time>2015-06-24T11:26:41Z</time>
      </trkpt>
      <trkpt lat="42.33558" lon="8.88706">
        <ele>1619.48</ele>
        <time>2015-06-24T11:26:55Z</time>
      </trkpt>
      <trkpt lat="42.33559" lon="8.8871">
        <ele>1617.07</ele>
        <time>2015-06-24T11:27:08Z</time>
      </trkpt>
      <trkpt lat="42.33557" lon="8.88717">
        <ele>1615.15</ele>
        <time>2015-06-24T11:27:22Z</time>
      </trkpt>
      <trkpt lat="42.33554" lon="8.88725">
        <ele>1613.23</ele>
        <time>2015-06-24T11:27:37Z</time>
      </trkpt>
      <trkpt lat="42.33552" lon="8.88732">
        <ele>1612.27</ele>
        <time>2015-06-24T11:27:51Z</time>
      </trkpt>
      <trkpt lat="42.33557" lon="8.88732">
        <ele>1611.31</ele>
        <time>2015-06-24T11:28:06Z</time>
      </trkpt>
      <trkpt lat="42.33562" lon="8.88738">
        <ele>1610.35</ele>
        <time>2015-06-24T11:28:18Z</time>
      </trkpt>
      <trkpt lat="42.33566" lon="8.88745">
        <ele>1609.38</ele>
        <time>2015-06-24T11:28:32Z</time>
      </trkpt>
      <trkpt lat="42.33565" lon="8.88749">
        <ele>1608.9</ele>
        <time>2015-06-24T11:28:46Z</time>
      </trkpt>
      <trkpt lat="42.33565" lon="8.88754">
        <ele>1609.86</ele>
        <time>2015-06-24T11:28:58Z</time>
      </trkpt>
      <trkpt lat="42.33563" lon="8.8876">
        <ele>1608.42</ele>
        <time>2015-06-24T11:29:10Z</time>
      </trkpt>
      <trkpt lat="42.33564" lon="8.88768">
        <ele>1606.98</ele>
        <time>2015-06-24T11:29:24Z</time>
      </trkpt>
      <trkpt lat="42.33566" lon="8.88776">
        <ele>1604.58</ele>
        <time>2015-06-24T11:29:38Z</time>
      </trkpt>
      <trkpt lat="42.33565" lon="8.88785">
        <ele>1602.66</ele>
        <time>2015-06-24T11:29:53Z</time>
      </trkpt>
      <trkpt lat="42.33564" lon="8.88794">
        <ele>1599.77</ele>
        <time>2015-06-24T11:30:06Z</time>
      </trkpt>
      <trkpt lat="42.33562" lon="8.88802">
        <ele>1597.85</ele>
        <time>2015-06-24T11:30:21Z</time>
      </trkpt>
      <trkpt lat="42.33564" lon="8.88813">
        <ele>1596.41</ele>
        <time>2015-06-24T11:30:35Z</time>
      </trkpt>
      <trkpt lat="42.33562" lon="8.88821">
        <ele>1593.52</ele>
        <time>2015-06-24T11:30:49Z</time>
      </trkpt>
      <trkpt lat="42.33561" lon="8.88823">
        <ele>1593.52</ele>
        <time>2015-06-24T11:30:52Z</time>
      </trkpt>
      <trkpt lat="42.33566" lon="8.88834">
        <ele>1590.16</ele>
        <time>2015-06-24T11:31:08Z</time>
      </trkpt>
      <trkpt lat="42.33565" lon="8.88838">
        <ele>1589.2</ele>
        <time>2015-06-24T11:31:12Z</time>
      </trkpt>
      <trkpt lat="42.33562" lon="8.88843">
        <ele>1587.75</ele>
        <time>2015-06-24T11:31:28Z</time>
      </trkpt>
      <trkpt lat="42.33566" lon="8.88848">
        <ele>1585.83</ele>
        <time>2015-06-24T11:31:42Z</time>
      </trkpt>
      <trkpt lat="42.33568" lon="8.88857">
        <ele>1582.95</ele>
        <time>2015-06-24T11:31:57Z</time>
      </trkpt>
      <trkpt lat="42.3357" lon="8.88862">
        <ele>1581.03</ele>
        <time>2015-06-24T11:32:12Z</time>
      </trkpt>
      <trkpt lat="42.33574" lon="8.88872">
        <ele>1579.1</ele>
        <time>2015-06-24T11:32:28Z</time>
      </trkpt>
      <trkpt lat="42.33572" lon="8.88875">
        <ele>1577.66</ele>
        <time>2015-06-24T11:32:44Z</time>
      </trkpt>
      <trkpt lat="42.33569" lon="8.88872">
        <ele>1576.22</ele>
        <time>2015-06-24T11:32:58Z</time>
      </trkpt>
      <trkpt lat="42.33567" lon="8.88871">
        <ele>1575.26</ele>
        <time>2015-06-24T11:33:12Z</time>
      </trkpt>
      <trkpt lat="42.33566" lon="8.88871">
        <ele>1572.85</ele>
        <time>2015-06-24T11:33:28Z</time>
      </trkpt>
      <trkpt lat="42.33563" lon="8.88873">
        <ele>1571.41</ele>
        <time>2015-06-24T11:33:40Z</time>
      </trkpt>
      <trkpt lat="42.33561" lon="8.88874">
        <ele>1570.45</ele>
        <time>2015-06-24T11:33:54Z</time>
      </trkpt>
      <trkpt lat="42.3356" lon="8.88872">
        <ele>1570.45</ele>
        <time>2015-06-24T11:34:05Z</time>
      </trkpt>
      <trkpt lat="42.3356" lon="8.88873">
        <ele>1570.45</ele>
        <time>2015-06-24T11:34:36Z</time>
      </trkpt>
      <trkpt lat="42.33561" lon="8.88873">
        <ele>1570.45</ele>
        <time>2015-06-24T11:35:09Z</time>
      </trkpt>
      <trkpt lat="42.3356" lon="8.88872">
        <ele>1570.45</ele>
        <time>2015-06-24T11:35:38Z</time>
      </trkpt>
      <trkpt lat="42.33559" lon="8.88874">
        <ele>1570.93</ele>
        <time>2015-06-24T11:36:00Z</time>
      </trkpt>
      <trkpt lat="42.3356" lon="8.88873">
        <ele>1570.93</ele>
        <time>2015-06-24T11:36:29Z</time>
      </trkpt>
      <trkpt lat="42.33562" lon="8.88876">
        <ele>1569.97</ele>
        <time>2015-06-24T11:36:44Z</time>
      </trkpt>
      <trkpt lat="42.33561" lon="8.8888">
        <ele>1568.53</ele>
        <time>2015-06-24T11:37:02Z</time>
      </trkpt>
      <trkpt lat="42.33562" lon="8.88886">
        <ele>1567.09</ele>
        <time>2015-06-24T11:37:16Z</time>
      </trkpt>
      <trkpt lat="42.33558" lon="8.88891">
        <ele>1564.68</ele>
        <time>2015-06-24T11:37:30Z</time>
      </trkpt>
      <trkpt lat="42.3356" lon="8.88897">
        <ele>1562.76</ele>
        <time>2015-06-24T11:37:43Z</time>
      </trkpt>
      <trkpt lat="42.33563" lon="8.88904">
        <ele>1560.84</ele>
        <time>2015-06-24T11:37:58Z</time>
      </trkpt>
      <trkpt lat="42.33562" lon="8.88913">
        <ele>1557.95</ele>
        <time>2015-06-24T11:38:12Z</time>
      </trkpt>
      <trkpt lat="42.33557" lon="8.88919">
        <ele>1555.07</ele>
        <time>2015-06-24T11:38:25Z</time>
      </trkpt>
      <trkpt lat="42.33559" lon="8.88925">
        <ele>1552.67</ele>
        <time>2015-06-24T11:38:33Z</time>
      </trkpt>
      <trkpt lat="42.33557" lon="8.88932">
        <ele>1550.74</ele>
        <time>2015-06-24T11:38:44Z</time>
      </trkpt>
      <trkpt lat="42.33551" lon="8.88941">
        <ele>1547.86</ele>
        <time>2015-06-24T11:38:59Z</time>
      </trkpt>
      <trkpt lat="42.33552" lon="8.88951">
        <ele>1544.98</ele>
        <time>2015-06-24T11:39:14Z</time>
      </trkpt>
      <trkpt lat="42.33549" lon="8.88959">
        <ele>1542.09</ele>
        <time>2015-06-24T11:39:27Z</time>
      </trkpt>
      <trkpt lat="42.33546" lon="8.88967">
        <ele>1539.69</ele>
        <time>2015-06-24T11:39:39Z</time>
      </trkpt>
      <trkpt lat="42.33541" lon="8.88972">
        <ele>1537.29</ele>
        <time>2015-06-24T11:39:53Z</time>
      </trkpt>
      <trkpt lat="42.33546" lon="8.88984">
        <ele>1533.92</ele>
        <time>2015-06-24T11:40:06Z</time>
      </trkpt>
      <trkpt lat="42.33546" lon="8.88994">
        <ele>1530.56</ele>
        <time>2015-06-24T11:40:19Z</time>
      </trkpt>
      <trkpt lat="42.33541" lon="8.89002">
        <ele>1528.15</ele>
        <time>2015-06-24T11:40:31Z</time>
      </trkpt>
      <trkpt lat="42.33541" lon="8.89012">
        <ele>1524.79</ele>
        <time>2015-06-24T11:40:45Z</time>
      </trkpt>
      <trkpt lat="42.33542" lon="8.8902">
        <ele>1521.9</ele>
        <time>2015-06-24T11:40:58Z</time>
      </trkpt>
      <trkpt lat="42.3354" lon="8.8903">
        <ele>1519.98</ele>
        <time>2015-06-24T11:41:11Z</time>
      </trkpt>
      <trkpt lat="42.33542" lon="8.89037">
        <ele>1518.06</ele>
        <time>2015-06-24T11:41:23Z</time>
      </trkpt>
      <trkpt lat="42.33545" lon="8.89043">
        <ele>1516.62</ele>
        <time>2015-06-24T11:41:41Z</time>
      </trkpt>
      <trkpt lat="42.33543" lon="8.89046">
        <ele>1516.14</ele>
        <time>2015-06-24T11:42:04Z</time>
      </trkpt>
      <trkpt lat="42.33545" lon="8.89053">
        <ele>1513.73</ele>
        <time>2015-06-24T11:42:19Z</time>
      </trkpt>
      <trkpt lat="42.33542" lon="8.89063">
        <ele>1511.81</ele>
        <time>2015-06-24T11:42:31Z</time>
      </trkpt>
      <trkpt lat="42.33543" lon="8.89068">
        <ele>1510.85</ele>
        <time>2015-06-24T11:42:43Z</time>
      </trkpt>
      <trkpt lat="42.33543" lon="8.89075">
        <ele>1508.93</ele>
        <time>2015-06-24T11:42:56Z</time>
      </trkpt>
      <trkpt lat="42.33548" lon="8.89082">
        <ele>1506.52</ele>
        <time>2015-06-24T11:43:09Z</time>
      </trkpt>
      <trkpt lat="42.33552" lon="8.8909">
        <ele>1504.12</ele>
        <time>2015-06-24T11:43:24Z</time>
      </trkpt>
      <trkpt lat="42.33555" lon="8.89094">
        <ele>1501.72</ele>
        <time>2015-06-24T11:43:38Z</time>
      </trkpt>
      <trkpt lat="42.33554" lon="8.89103">
        <ele>1499.31</ele>
        <time>2015-06-24T11:43:52Z</time>
      </trkpt>
      <trkpt lat="42.33556" lon="8.89109">
        <ele>1497.39</ele>
        <time>2015-06-24T11:44:06Z</time>
      </trkpt>
      <trkpt lat="42.33556" lon="8.89114">
        <ele>1495.47</ele>
        <time>2015-06-24T11:44:22Z</time>
      </trkpt>
      <trkpt lat="42.33556" lon="8.89116">
        <ele>1494.51</ele>
        <time>2015-06-24T11:44:39Z</time>
      </trkpt>
      <trkpt lat="42.33556" lon="8.89119">
        <ele>1493.06</ele>
        <time>2015-06-24T11:44:44Z</time>
      </trkpt>
      <trkpt lat="42.33556" lon="8.89129">
        <ele>1490.66</ele>
        <time>2015-06-24T11:44:57Z</time>
      </trkpt>
      <trkpt lat="42.3356" lon="8.89136">
        <ele>1487.78</ele>
        <time>2015-06-24T11:45:11Z</time>
      </trkpt>
      <trkpt lat="42.33559" lon="8.89146">
        <ele>1485.37</ele>
        <time>2015-06-24T11:45:25Z</time>
      </trkpt>
      <trkpt lat="42.33565" lon="8.89148">
        <ele>1482.49</ele>
        <time>2015-06-24T11:45:41Z</time>
      </trkpt>
      <trkpt lat="42.33566" lon="8.89153">
        <ele>1482.01</ele>
        <time>2015-06-24T11:45:59Z</time>
      </trkpt>
      <trkpt lat="42.33567" lon="8.89158">
        <ele>1480.57</ele>
        <time>2015-06-24T11:46:24Z</time>
      </trkpt>
      <trkpt lat="42.33562" lon="8.89166">
        <ele>1478.65</ele>
        <time>2015-06-24T11:46:38Z</time>
      </trkpt>
      <trkpt lat="42.33565" lon="8.89171">
        <ele>1476.24</ele>
        <time>2015-06-24T11:46:51Z</time>
      </trkpt>
      <trkpt lat="42.33572" lon="8.8918">
        <ele>1474.32</ele>
        <time>2015-06-24T11:47:06Z</time>
      </trkpt>
      <trkpt lat="42.33576" lon="8.89184">
        <ele>1473.36</ele>
        <time>2015-06-24T11:47:17Z</time>
      </trkpt>
      <trkpt lat="42.33579" lon="8.89192">
        <ele>1472.88</ele>
        <time>2015-06-24T11:47:28Z</time>
      </trkpt>
      <trkpt lat="42.33581" lon="8.89201">
        <ele>1469.51</ele>
        <time>2015-06-24T11:47:41Z</time>
      </trkpt>
      <trkpt lat="42.33585" lon="8.89204">
        <ele>1469.03</ele>
        <time>2015-06-24T11:47:52Z</time>
      </trkpt>
      <trkpt lat="42.33585" lon="8.89216">
        <ele>1467.11</ele>
        <time>2015-06-24T11:48:05Z</time>
      </trkpt>
      <trkpt lat="42.33582" lon="8.89223">
        <ele>1464.71</ele>
        <time>2015-06-24T11:48:18Z</time>
      </trkpt>
      <trkpt lat="42.33583" lon="8.89233">
        <ele>1462.3</ele>
        <time>2015-06-24T11:48:32Z</time>
      </trkpt>
      <trkpt lat="42.33584" lon="8.89245">
        <ele>1458.94</ele>
        <time>2015-06-24T11:48:47Z</time>
      </trkpt>
      <trkpt lat="42.33585" lon="8.89256">
        <ele>1456.53</ele>
        <time>2015-06-24T11:49:00Z</time>
      </trkpt>
      <trkpt lat="42.33585" lon="8.89257">
        <ele>1456.05</ele>
        <time>2015-06-24T11:49:02Z</time>
      </trkpt>
      <trkpt lat="42.33586" lon="8.89269">
        <ele>1454.13</ele>
        <time>2015-06-24T11:49:16Z</time>
      </trkpt>
      <trkpt lat="42.33591" lon="8.89279">
        <ele>1451.73</ele>
        <time>2015-06-24T11:49:31Z</time>
      </trkpt>
      <trkpt lat="42.33593" lon="8.89289">
        <ele>1449.81</ele>
        <time>2015-06-24T11:49:44Z</time>
      </trkpt>
      <trkpt lat="42.33594" lon="8.89301">
        <ele>1447.4</ele>
        <time>2015-06-24T11:49:59Z</time>
      </trkpt>
      <trkpt lat="42.33596" lon="8.89313">
        <ele>1445.96</ele>
        <time>2015-06-24T11:50:15Z</time>
      </trkpt>
      <trkpt lat="42.33594" lon="8.89328">
        <ele>1443.56</ele>
        <time>2015-06-24T11:50:31Z</time>
      </trkpt>
      <trkpt lat="42.33597" lon="8.89339">
        <ele>1442.11</ele>
        <time>2015-06-24T11:50:45Z</time>
      </trkpt>
      <trkpt lat="42.33601" lon="8.89352">
        <ele>1440.67</ele>
        <time>2015-06-24T11:51:01Z</time>
      </trkpt>
      <trkpt lat="42.33607" lon="8.89367">
        <ele>1437.79</ele>
        <time>2015-06-24T11:51:19Z</time>
      </trkpt>
      <trkpt lat="42.33608" lon="8.89383">
        <ele>1437.31</ele>
        <time>2015-06-24T11:51:33Z</time>
      </trkpt>
      <trkpt lat="42.33608" lon="8.89394">
        <ele>1435.39</ele>
        <time>2015-06-24T11:51:48Z</time>
      </trkpt>
      <trkpt lat="42.33614" lon="8.89406">
        <ele>1436.83</ele>
        <time>2015-06-24T11:52:03Z</time>
      </trkpt>
      <trkpt lat="42.3362" lon="8.89422">
        <ele>1435.87</ele>
        <time>2015-06-24T11:52:18Z</time>
      </trkpt>
      <trkpt lat="42.33626" lon="8.8944">
        <ele>1433.94</ele>
        <time>2015-06-24T11:52:36Z</time>
      </trkpt>
      <trkpt lat="42.3363" lon="8.89457">
        <ele>1432.98</ele>
        <time>2015-06-24T11:52:52Z</time>
      </trkpt>
      <trkpt lat="42.33631" lon="8.89469">
        <ele>1432.98</ele>
        <time>2015-06-24T11:53:06Z</time>
      </trkpt>
      <trkpt lat="42.33628" lon="8.89487">
        <ele>1432.02</ele>
        <time>2015-06-24T11:53:24Z</time>
      </trkpt>
      <trkpt lat="42.33626" lon="8.89498">
        <ele>1429.62</ele>
        <time>2015-06-24T11:53:40Z</time>
      </trkpt>
      <trkpt lat="42.33622" lon="8.89504">
        <ele>1426.73</ele>
        <time>2015-06-24T11:53:53Z</time>
      </trkpt>
      <trkpt lat="42.33626" lon="8.89513">
        <ele>1423.85</ele>
        <time>2015-06-24T11:54:08Z</time>
      </trkpt>
      <trkpt lat="42.33631" lon="8.89522">
        <ele>1425.77</ele>
        <time>2015-06-24T11:54:23Z</time>
      </trkpt>
      <trkpt lat="42.33633" lon="8.89531">
        <ele>1425.29</ele>
        <time>2015-06-24T11:54:37Z</time>
      </trkpt>
      <trkpt lat="42.33626" lon="8.89535">
        <ele>1425.29</ele>
        <time>2015-06-24T11:54:58Z</time>
      </trkpt>
      <trkpt lat="42.33628" lon="8.89535">
        <ele>1424.81</ele>
        <time>2015-06-24T11:55:22Z</time>
      </trkpt>
      <trkpt lat="42.33626" lon="8.89536">
        <ele>1424.81</ele>
        <time>2015-06-24T11:55:40Z</time>
      </trkpt>
      <trkpt lat="42.33628" lon="8.89528">
        <ele>1424.81</ele>
        <time>2015-06-24T11:56:08Z</time>
      </trkpt>
      <trkpt lat="42.33631" lon="8.89536">
        <ele>1423.85</ele>
        <time>2015-06-24T11:56:29Z</time>
      </trkpt>
      <trkpt lat="42.33631" lon="8.89541">
        <ele>1423.37</ele>
        <time>2015-06-24T11:56:51Z</time>
      </trkpt>
      <trkpt lat="42.33628" lon="8.89548">
        <ele>1421.93</ele>
        <time>2015-06-24T11:56:57Z</time>
      </trkpt>
      <trkpt lat="42.3363" lon="8.89562">
        <ele>1419.52</ele>
        <time>2015-06-24T11:57:12Z</time>
      </trkpt>
      <trkpt lat="42.33636" lon="8.89583">
        <ele>1416.64</ele>
        <time>2015-06-24T11:57:28Z</time>
      </trkpt>
      <trkpt lat="42.33639" lon="8.8959">
        <ele>1415.2</ele>
        <time>2015-06-24T11:57:34Z</time>
      </trkpt>
      <trkpt lat="42.33638" lon="8.89616">
        <ele>1413.28</ele>
        <time>2015-06-24T11:57:53Z</time>
      </trkpt>
      <trkpt lat="42.33639" lon="8.89635">
        <ele>1410.87</ele>
        <time>2015-06-24T11:58:11Z</time>
      </trkpt>
      <trkpt lat="42.3364" lon="8.89641">
        <ele>1409.43</ele>
        <time>2015-06-24T11:58:20Z</time>
      </trkpt>
      <trkpt lat="42.3365" lon="8.89658">
        <ele>1409.43</ele>
        <time>2015-06-24T11:58:36Z</time>
      </trkpt>
      <trkpt lat="42.33657" lon="8.89669">
        <ele>1410.87</ele>
        <time>2015-06-24T11:58:51Z</time>
      </trkpt>
      <trkpt lat="42.33664" lon="8.89685">
        <ele>1413.28</ele>
        <time>2015-06-24T11:59:05Z</time>
      </trkpt>
      <trkpt lat="42.33671" lon="8.89697">
        <ele>1413.28</ele>
        <time>2015-06-24T11:59:19Z</time>
      </trkpt>
      <trkpt lat="42.33676" lon="8.89707">
        <ele>1415.2</ele>
        <time>2015-06-24T11:59:33Z</time>
      </trkpt>
      <trkpt lat="42.3368" lon="8.89721">
        <ele>1417.6</ele>
        <time>2015-06-24T11:59:47Z</time>
      </trkpt>
      <trkpt lat="42.33684" lon="8.89737">
        <ele>1419.04</ele>
        <time>2015-06-24T12:00:02Z</time>
      </trkpt>
      <trkpt lat="42.33691" lon="8.89754">
        <ele>1419.52</ele>
        <time>2015-06-24T12:00:17Z</time>
      </trkpt>
      <trkpt lat="42.33692" lon="8.89768">
        <ele>1420</ele>
        <time>2015-06-24T12:00:30Z</time>
      </trkpt>
      <trkpt lat="42.33697" lon="8.89783">
        <ele>1420.97</ele>
        <time>2015-06-24T12:00:45Z</time>
      </trkpt>
      <trkpt lat="42.33702" lon="8.89795">
        <ele>1419.52</ele>
        <time>2015-06-24T12:01:00Z</time>
      </trkpt>
      <trkpt lat="42.33706" lon="8.89804">
        <ele>1416.64</ele>
        <time>2015-06-24T12:01:15Z</time>
      </trkpt>
      <trkpt lat="42.33708" lon="8.89811">
        <ele>1413.76</ele>
        <time>2015-06-24T12:01:31Z</time>
      </trkpt>
      <trkpt lat="42.33709" lon="8.89811">
        <ele>1413.76</ele>
        <time>2015-06-24T12:01:32Z</time>
      </trkpt>
      <trkpt lat="42.33713" lon="8.8981">
        <ele>1413.28</ele>
        <time>2015-06-24T12:01:38Z</time>
      </trkpt>
      <trkpt lat="42.33722" lon="8.89822">
        <ele>1409.91</ele>
        <time>2015-06-24T12:01:54Z</time>
      </trkpt>
      <trkpt lat="42.33724" lon="8.89827">
        <ele>1409.91</ele>
        <time>2015-06-24T12:01:59Z</time>
      </trkpt>
      <trkpt lat="42.33728" lon="8.89843">
        <ele>1408.47</ele>
        <time>2015-06-24T12:02:14Z</time>
      </trkpt>
      <trkpt lat="42.33734" lon="8.89857">
        <ele>1410.39</ele>
        <time>2015-06-24T12:02:29Z</time>
      </trkpt>
      <trkpt lat="42.3374" lon="8.89864">
        <ele>1409.91</ele>
        <time>2015-06-24T12:02:41Z</time>
      </trkpt>
      <trkpt lat="42.33748" lon="8.89876">
        <ele>1410.87</ele>
        <time>2015-06-24T12:02:56Z</time>
      </trkpt>
      <trkpt lat="42.33756" lon="8.89892">
        <ele>1411.35</ele>
        <time>2015-06-24T12:03:12Z</time>
      </trkpt>
      <trkpt lat="42.33762" lon="8.89907">
        <ele>1410.39</ele>
        <time>2015-06-24T12:03:26Z</time>
      </trkpt>
      <trkpt lat="42.33762" lon="8.89908">
        <ele>1410.87</ele>
        <time>2015-06-24T12:03:27Z</time>
      </trkpt>
      <trkpt lat="42.33762" lon="8.89911">
        <ele>1409.91</ele>
        <time>2015-06-24T12:03:29Z</time>
      </trkpt>
      <trkpt lat="42.33767" lon="8.89922">
        <ele>1410.87</ele>
        <time>2015-06-24T12:03:42Z</time>
      </trkpt>
      <trkpt lat="42.33774" lon="8.89929">
        <ele>1409.91</ele>
        <time>2015-06-24T12:03:54Z</time>
      </trkpt>
      <trkpt lat="42.3378" lon="8.89942">
        <ele>1407.99</ele>
        <time>2015-06-24T12:04:04Z</time>
      </trkpt>
      <trkpt lat="42.3379" lon="8.89959">
        <ele>1406.55</ele>
        <time>2015-06-24T12:04:19Z</time>
      </trkpt>
      <trkpt lat="42.33796" lon="8.89972">
        <ele>1405.58</ele>
        <time>2015-06-24T12:04:32Z</time>
      </trkpt>
      <trkpt lat="42.33798" lon="8.89992">
        <ele>1406.07</ele>
        <time>2015-06-24T12:04:48Z</time>
      </trkpt>
      <trkpt lat="42.33799" lon="8.89998">
        <ele>1406.55</ele>
        <time>2015-06-24T12:04:53Z</time>
      </trkpt>
      <trkpt lat="42.33807" lon="8.90009">
        <ele>1407.99</ele>
        <time>2015-06-24T12:05:06Z</time>
      </trkpt>
      <trkpt lat="42.33811" lon="8.90022">
        <ele>1408.47</ele>
        <time>2015-06-24T12:05:23Z</time>
      </trkpt>
      <trkpt lat="42.3381" lon="8.90039">
        <ele>1409.43</ele>
        <time>2015-06-24T12:05:39Z</time>
      </trkpt>
      <trkpt lat="42.33814" lon="8.90058">
        <ele>1408.47</ele>
        <time>2015-06-24T12:05:56Z</time>
      </trkpt>
      <trkpt lat="42.33815" lon="8.90071">
        <ele>1408.47</ele>
        <time>2015-06-24T12:06:09Z</time>
      </trkpt>
      <trkpt lat="42.3382" lon="8.90084">
        <ele>1409.91</ele>
        <time>2015-06-24T12:06:25Z</time>
      </trkpt>
      <trkpt lat="42.33821" lon="8.90099">
        <ele>1408.95</ele>
        <time>2015-06-24T12:06:39Z</time>
      </trkpt>
      <trkpt lat="42.33827" lon="8.90115">
        <ele>1407.99</ele>
        <time>2015-06-24T12:06:54Z</time>
      </trkpt>
      <trkpt lat="42.33831" lon="8.90119">
        <ele>1408.95</ele>
        <time>2015-06-24T12:07:11Z</time>
      </trkpt>
      <trkpt lat="42.33827" lon="8.90139">
        <ele>1407.99</ele>
        <time>2015-06-24T12:07:29Z</time>
      </trkpt>
      <trkpt lat="42.33818" lon="8.90141">
        <ele>1405.58</ele>
        <time>2015-06-24T12:07:44Z</time>
      </trkpt>
      <trkpt lat="42.33815" lon="8.90141">
        <ele>1405.58</ele>
        <time>2015-06-24T12:08:08Z</time>
      </trkpt>
      <trkpt lat="42.33822" lon="8.9014">
        <ele>1405.58</ele>
        <time>2015-06-24T12:08:48Z</time>
      </trkpt>
      <trkpt lat="42.33832" lon="8.90138">
        <ele>1407.99</ele>
        <time>2015-06-24T12:09:03Z</time>
      </trkpt>
      <trkpt lat="42.33845" lon="8.90156">
        <ele>1408.47</ele>
        <time>2015-06-24T12:09:19Z</time>
      </trkpt>
      <trkpt lat="42.33846" lon="8.90158">
        <ele>1408.47</ele>
        <time>2015-06-24T12:09:20Z</time>
      </trkpt>
      <trkpt lat="42.33852" lon="8.90173">
        <ele>1407.03</ele>
        <time>2015-06-24T12:09:31Z</time>
      </trkpt>
      <trkpt lat="42.33854" lon="8.90197">
        <ele>1405.1</ele>
        <time>2015-06-24T12:09:44Z</time>
      </trkpt>
      <trkpt lat="42.33863" lon="8.90214">
        <ele>1407.03</ele>
        <time>2015-06-24T12:09:59Z</time>
      </trkpt>
      <trkpt lat="42.33873" lon="8.90224">
        <ele>1407.03</ele>
        <time>2015-06-24T12:10:12Z</time>
      </trkpt>
      <trkpt lat="42.33877" lon="8.90222">
        <ele>1406.55</ele>
        <time>2015-06-24T12:10:15Z</time>
      </trkpt>
      <trkpt lat="42.33889" lon="8.90228">
        <ele>1404.62</ele>
        <time>2015-06-24T12:10:29Z</time>
      </trkpt>
      <trkpt lat="42.33892" lon="8.90233">
        <ele>1403.66</ele>
        <time>2015-06-24T12:10:33Z</time>
      </trkpt>
      <trkpt lat="42.33898" lon="8.90236">
        <ele>1403.18</ele>
        <time>2015-06-24T12:10:37Z</time>
      </trkpt>
      <trkpt lat="42.33918" lon="8.90232">
        <ele>1400.78</ele>
        <time>2015-06-24T12:10:52Z</time>
      </trkpt>
      <trkpt lat="42.33937" lon="8.90227">
        <ele>1398.86</ele>
        <time>2015-06-24T12:11:08Z</time>
      </trkpt>
      <trkpt lat="42.33947" lon="8.90223">
        <ele>1397.89</ele>
        <time>2015-06-24T12:11:17Z</time>
      </trkpt>
      <trkpt lat="42.33967" lon="8.90213">
        <ele>1399.34</ele>
        <time>2015-06-24T12:11:34Z</time>
      </trkpt>
      <trkpt lat="42.3398" lon="8.90205">
        <ele>1399.34</ele>
        <time>2015-06-24T12:11:49Z</time>
      </trkpt>
      <trkpt lat="42.33983" lon="8.90207">
        <ele>1399.34</ele>
        <time>2015-06-24T12:12:19Z</time>
      </trkpt>
      <trkpt lat="42.33984" lon="8.90208">
        <ele>1400.3</ele>
        <time>2015-06-24T12:12:50Z</time>
      </trkpt>
      <trkpt lat="42.33996" lon="8.90211">
        <ele>1398.37</ele>
        <time>2015-06-24T12:13:04Z</time>
      </trkpt>
      <trkpt lat="42.34" lon="8.90211">
        <ele>1396.93</ele>
        <time>2015-06-24T12:13:24Z</time>
      </trkpt>
      <trkpt lat="42.34005" lon="8.90215">
        <ele>1395.01</ele>
        <time>2015-06-24T12:13:35Z</time>
      </trkpt>
      <trkpt lat="42.34009" lon="8.90215">
        <ele>1394.53</ele>
        <time>2015-06-24T12:13:48Z</time>
      </trkpt>
      <trkpt lat="42.34009" lon="8.90216">
        <ele>1395.01</ele>
        <time>2015-06-24T12:14:13Z</time>
      </trkpt>
      <trkpt lat="42.3401" lon="8.90216">
        <ele>1395.01</ele>
        <time>2015-06-24T12:14:41Z</time>
      </trkpt>
      <trkpt lat="42.34021" lon="8.90214">
        <ele>1392.61</ele>
        <time>2015-06-24T12:14:58Z</time>
      </trkpt>
      <trkpt lat="42.34029" lon="8.9021">
        <ele>1392.61</ele>
        <time>2015-06-24T12:15:10Z</time>
      </trkpt>
      <trkpt lat="42.34031" lon="8.9021">
        <ele>1393.09</ele>
        <time>2015-06-24T12:15:12Z</time>
      </trkpt>
      <trkpt lat="42.3404" lon="8.90204">
        <ele>1395.49</ele>
        <time>2015-06-24T12:15:27Z</time>
      </trkpt>
      <trkpt lat="42.34049" lon="8.90201">
        <ele>1395.49</ele>
        <time>2015-06-24T12:15:40Z</time>
      </trkpt>
      <trkpt lat="42.34065" lon="8.90197">
        <ele>1395.97</ele>
        <time>2015-06-24T12:15:57Z</time>
      </trkpt>
      <trkpt lat="42.34077" lon="8.90195">
        <ele>1396.93</ele>
        <time>2015-06-24T12:16:11Z</time>
      </trkpt>
      <trkpt lat="42.34086" lon="8.90212">
        <ele>1398.86</ele>
        <time>2015-06-24T12:16:24Z</time>
      </trkpt>
      <trkpt lat="42.34086" lon="8.90204">
        <ele>1400.3</ele>
        <time>2015-06-24T12:16:37Z</time>
      </trkpt>
      <trkpt lat="42.34095" lon="8.90206">
        <ele>1402.22</ele>
        <time>2015-06-24T12:16:52Z</time>
      </trkpt>
      <trkpt lat="42.34103" lon="8.90208">
        <ele>1405.1</ele>
        <time>2015-06-24T12:17:11Z</time>
      </trkpt>
      <trkpt lat="42.34111" lon="8.90215">
        <ele>1408.47</ele>
        <time>2015-06-24T12:17:26Z</time>
      </trkpt>
      <trkpt lat="42.34122" lon="8.90211">
        <ele>1409.91</ele>
        <time>2015-06-24T12:17:42Z</time>
      </trkpt>
      <trkpt lat="42.3413" lon="8.90209">
        <ele>1408.47</ele>
        <time>2015-06-24T12:17:59Z</time>
      </trkpt>
      <trkpt lat="42.34139" lon="8.90209">
        <ele>1406.07</ele>
        <time>2015-06-24T12:18:20Z</time>
      </trkpt>
      <trkpt lat="42.34147" lon="8.90204">
        <ele>1405.1</ele>
        <time>2015-06-24T12:18:38Z</time>
      </trkpt>
      <trkpt lat="42.34152" lon="8.90203">
        <ele>1403.18</ele>
        <time>2015-06-24T12:18:53Z</time>
      </trkpt>
      <trkpt lat="42.34159" lon="8.902">
        <ele>1400.3</ele>
        <time>2015-06-24T12:19:09Z</time>
      </trkpt>
      <trkpt lat="42.3417" lon="8.90193">
        <ele>1397.41</ele>
        <time>2015-06-24T12:19:27Z</time>
      </trkpt>
      <trkpt lat="42.34183" lon="8.90184">
        <ele>1395.01</ele>
        <time>2015-06-24T12:19:42Z</time>
      </trkpt>
      <trkpt lat="42.34186" lon="8.90179">
        <ele>1395.01</ele>
        <time>2015-06-24T12:19:46Z</time>
      </trkpt>
      <trkpt lat="42.34196" lon="8.9017">
        <ele>1394.05</ele>
        <time>2015-06-24T12:19:58Z</time>
      </trkpt>
      <trkpt lat="42.34212" lon="8.9015">
        <ele>1394.53</ele>
        <time>2015-06-24T12:20:15Z</time>
      </trkpt>
      <trkpt lat="42.34227" lon="8.90137">
        <ele>1393.09</ele>
        <time>2015-06-24T12:20:31Z</time>
      </trkpt>
      <trkpt lat="42.34237" lon="8.90118">
        <ele>1394.53</ele>
        <time>2015-06-24T12:20:46Z</time>
      </trkpt>
      <trkpt lat="42.34248" lon="8.90104">
        <ele>1393.57</ele>
        <time>2015-06-24T12:21:01Z</time>
      </trkpt>
      <trkpt lat="42.3425" lon="8.9009">
        <ele>1395.01</ele>
        <time>2015-06-24T12:21:17Z</time>
      </trkpt>
      <trkpt lat="42.34258" lon="8.90077">
        <ele>1397.41</ele>
        <time>2015-06-24T12:21:31Z</time>
      </trkpt>
      <trkpt lat="42.34266" lon="8.9006">
        <ele>1397.41</ele>
        <time>2015-06-24T12:21:47Z</time>
      </trkpt>
      <trkpt lat="42.34275" lon="8.90052">
        <ele>1395.01</ele>
        <time>2015-06-24T12:22:05Z</time>
      </trkpt>
      <trkpt lat="42.34286" lon="8.90054">
        <ele>1392.13</ele>
        <time>2015-06-24T12:22:21Z</time>
      </trkpt>
      <trkpt lat="42.34296" lon="8.90049">
        <ele>1390.68</ele>
        <time>2015-06-24T12:22:39Z</time>
      </trkpt>
      <trkpt lat="42.34302" lon="8.90052">
        <ele>1389.24</ele>
        <time>2015-06-24T12:22:51Z</time>
      </trkpt>
      <trkpt lat="42.34312" lon="8.90046">
        <ele>1390.2</ele>
        <time>2015-06-24T12:23:07Z</time>
      </trkpt>
      <trkpt lat="42.34315" lon="8.90042">
        <ele>1389.72</ele>
        <time>2015-06-24T12:23:22Z</time>
      </trkpt>
      <trkpt lat="42.34314" lon="8.90039">
        <ele>1389.24</ele>
        <time>2015-06-24T12:23:46Z</time>
      </trkpt>
      <trkpt lat="42.34314" lon="8.90038">
        <ele>1389.72</ele>
        <time>2015-06-24T12:24:14Z</time>
      </trkpt>
      <trkpt lat="42.34316" lon="8.90038">
        <ele>1389.24</ele>
        <time>2015-06-24T12:24:16Z</time>
      </trkpt>
      <trkpt lat="42.34318" lon="8.90034">
        <ele>1390.68</ele>
        <time>2015-06-24T12:24:29Z</time>
      </trkpt>
      <trkpt lat="42.3432" lon="8.9003">
        <ele>1391.65</ele>
        <time>2015-06-24T12:24:44Z</time>
      </trkpt>
      <trkpt lat="42.34323" lon="8.90033">
        <ele>1391.65</ele>
        <time>2015-06-24T12:25:00Z</time>
      </trkpt>
      <trkpt lat="42.3433" lon="8.90036">
        <ele>1391.65</ele>
        <time>2015-06-24T12:25:14Z</time>
      </trkpt>
      <trkpt lat="42.34337" lon="8.90049">
        <ele>1392.61</ele>
        <time>2015-06-24T12:25:28Z</time>
      </trkpt>
      <trkpt lat="42.3434" lon="8.9005">
        <ele>1393.09</ele>
        <time>2015-06-24T12:25:32Z</time>
      </trkpt>
      <trkpt lat="42.34351" lon="8.90058">
        <ele>1392.61</ele>
        <time>2015-06-24T12:25:48Z</time>
      </trkpt>
      <trkpt lat="42.3436" lon="8.90076">
        <ele>1392.13</ele>
        <time>2015-06-24T12:26:06Z</time>
      </trkpt>
      <trkpt lat="42.3437" lon="8.90089">
        <ele>1391.65</ele>
        <time>2015-06-24T12:26:21Z</time>
      </trkpt>
      <trkpt lat="42.34375" lon="8.90107">
        <ele>1389.24</ele>
        <time>2015-06-24T12:26:39Z</time>
      </trkpt>
      <trkpt lat="42.34376" lon="8.90124">
        <ele>1386.36</ele>
        <time>2015-06-24T12:26:58Z</time>
      </trkpt>
      <trkpt lat="42.34376" lon="8.90125">
        <ele>1386.84</ele>
        <time>2015-06-24T12:26:59Z</time>
      </trkpt>
      <trkpt lat="42.34377" lon="8.90125">
        <ele>1386.36</ele>
        <time>2015-06-24T12:27:01Z</time>
      </trkpt>
      <trkpt lat="42.34386" lon="8.90122">
        <ele>1385.88</ele>
        <time>2015-06-24T12:27:18Z</time>
      </trkpt>
      <trkpt lat="42.3439" lon="8.90127">
        <ele>1385.88</ele>
        <time>2015-06-24T12:27:28Z</time>
      </trkpt>
      <trkpt lat="42.34391" lon="8.90127">
        <ele>1385.4</ele>
        <time>2015-06-24T12:27:40Z</time>
      </trkpt>
      <trkpt lat="42.344" lon="8.90132">
        <ele>1384.92</ele>
        <time>2015-06-24T12:27:56Z</time>
      </trkpt>
      <trkpt lat="42.34408" lon="8.90149">
        <ele>1384.92</ele>
        <time>2015-06-24T12:28:12Z</time>
      </trkpt>
      <trkpt lat="42.34413" lon="8.90157">
        <ele>1384.92</ele>
        <time>2015-06-24T12:28:28Z</time>
      </trkpt>
      <trkpt lat="42.34413" lon="8.90159">
        <ele>1384.92</ele>
        <time>2015-06-24T12:28:29Z</time>
      </trkpt>
      <trkpt lat="42.3441" lon="8.90179">
        <ele>1383.47</ele>
        <time>2015-06-24T12:28:46Z</time>
      </trkpt>
      <trkpt lat="42.34411" lon="8.9018">
        <ele>1383.96</ele>
        <time>2015-06-24T12:28:48Z</time>
      </trkpt>
      <trkpt lat="42.34414" lon="8.90193">
        <ele>1385.88</ele>
        <time>2015-06-24T12:29:03Z</time>
      </trkpt>
      <trkpt lat="42.34423" lon="8.90196">
        <ele>1387.8</ele>
        <time>2015-06-24T12:29:18Z</time>
      </trkpt>
      <trkpt lat="42.34426" lon="8.90214">
        <ele>1389.24</ele>
        <time>2015-06-24T12:29:32Z</time>
      </trkpt>
      <trkpt lat="42.34429" lon="8.90221">
        <ele>1389.72</ele>
        <time>2015-06-24T12:29:38Z</time>
      </trkpt>
      <trkpt lat="42.34436" lon="8.90241">
        <ele>1390.68</ele>
        <time>2015-06-24T12:29:54Z</time>
      </trkpt>
      <trkpt lat="42.34441" lon="8.90252">
        <ele>1392.13</ele>
        <time>2015-06-24T12:30:08Z</time>
      </trkpt>
      <trkpt lat="42.34444" lon="8.90261">
        <ele>1392.61</ele>
        <time>2015-06-24T12:30:16Z</time>
      </trkpt>
      <trkpt lat="42.34449" lon="8.90278">
        <ele>1393.09</ele>
        <time>2015-06-24T12:30:31Z</time>
      </trkpt>
      <trkpt lat="42.34453" lon="8.90291">
        <ele>1393.09</ele>
        <time>2015-06-24T12:30:41Z</time>
      </trkpt>
      <trkpt lat="42.34456" lon="8.90305">
        <ele>1394.05</ele>
        <time>2015-06-24T12:30:57Z</time>
      </trkpt>
      <trkpt lat="42.34463" lon="8.90319">
        <ele>1395.49</ele>
        <time>2015-06-24T12:31:13Z</time>
      </trkpt>
      <trkpt lat="42.34472" lon="8.90331">
        <ele>1397.41</ele>
        <time>2015-06-24T12:31:28Z</time>
      </trkpt>
      <trkpt lat="42.34475" lon="8.90334">
        <ele>1398.37</ele>
        <time>2015-06-24T12:31:44Z</time>
      </trkpt>
      <trkpt lat="42.34477" lon="8.90338">
        <ele>1398.86</ele>
        <time>2015-06-24T12:31:47Z</time>
      </trkpt>
      <trkpt lat="42.34478" lon="8.90341">
        <ele>1398.37</ele>
        <time>2015-06-24T12:31:49Z</time>
      </trkpt>
      <trkpt lat="42.3449" lon="8.90356">
        <ele>1398.86</ele>
        <time>2015-06-24T12:32:05Z</time>
      </trkpt>
      <trkpt lat="42.34502" lon="8.90355">
        <ele>1401.74</ele>
        <time>2015-06-24T12:32:20Z</time>
      </trkpt>
      <trkpt lat="42.3451" lon="8.90364">
        <ele>1403.18</ele>
        <time>2015-06-24T12:32:31Z</time>
      </trkpt>
      <trkpt lat="42.3452" lon="8.90363">
        <ele>1403.18</ele>
        <time>2015-06-24T12:32:46Z</time>
      </trkpt>
      <trkpt lat="42.34533" lon="8.90362">
        <ele>1402.22</ele>
        <time>2015-06-24T12:33:01Z</time>
      </trkpt>
      <trkpt lat="42.34539" lon="8.90365">
        <ele>1402.22</ele>
        <time>2015-06-24T12:33:08Z</time>
      </trkpt>
      <trkpt lat="42.34554" lon="8.90377">
        <ele>1402.22</ele>
        <time>2015-06-24T12:33:27Z</time>
      </trkpt>
      <trkpt lat="42.34558" lon="8.90376">
        <ele>1403.66</ele>
        <time>2015-06-24T12:33:34Z</time>
      </trkpt>
      <trkpt lat="42.34573" lon="8.90387">
        <ele>1402.7</ele>
        <time>2015-06-24T12:33:50Z</time>
      </trkpt>
      <trkpt lat="42.3458" lon="8.904">
        <ele>1400.78</ele>
        <time>2015-06-24T12:34:05Z</time>
      </trkpt>
      <trkpt lat="42.34581" lon="8.90401">
        <ele>1400.3</ele>
        <time>2015-06-24T12:34:06Z</time>
      </trkpt>
      <trkpt lat="42.34595" lon="8.90402">
        <ele>1401.74</ele>
        <time>2015-06-24T12:34:23Z</time>
      </trkpt>
      <trkpt lat="42.34609" lon="8.90393">
        <ele>1404.62</ele>
        <time>2015-06-24T12:34:39Z</time>
      </trkpt>
      <trkpt lat="42.34618" lon="8.90409">
        <ele>1406.07</ele>
        <time>2015-06-24T12:34:54Z</time>
      </trkpt>
      <trkpt lat="42.34621" lon="8.90423">
        <ele>1405.58</ele>
        <time>2015-06-24T12:35:06Z</time>
      </trkpt>
      <trkpt lat="42.34623" lon="8.90432">
        <ele>1405.58</ele>
        <time>2015-06-24T12:35:13Z</time>
      </trkpt>
      <trkpt lat="42.34629" lon="8.90446">
        <ele>1404.62</ele>
        <time>2015-06-24T12:35:29Z</time>
      </trkpt>
      <trkpt lat="42.34636" lon="8.90458">
        <ele>1405.58</ele>
        <time>2015-06-24T12:35:43Z</time>
      </trkpt>
      <trkpt lat="42.34642" lon="8.90463">
        <ele>1407.51</ele>
        <time>2015-06-24T12:35:56Z</time>
      </trkpt>
      <trkpt lat="42.34649" lon="8.90473">
        <ele>1409.91</ele>
        <time>2015-06-24T12:36:10Z</time>
      </trkpt>
      <trkpt lat="42.34654" lon="8.90475">
        <ele>1411.35</ele>
        <time>2015-06-24T12:36:18Z</time>
      </trkpt>
      <trkpt lat="42.34665" lon="8.90487">
        <ele>1413.28</ele>
        <time>2015-06-24T12:36:35Z</time>
      </trkpt>
      <trkpt lat="42.34674" lon="8.90494">
        <ele>1414.72</ele>
        <time>2015-06-24T12:36:51Z</time>
      </trkpt>
      <trkpt lat="42.34683" lon="8.90499">
        <ele>1417.12</ele>
        <time>2015-06-24T12:37:05Z</time>
      </trkpt>
      <trkpt lat="42.34693" lon="8.90506">
        <ele>1419.52</ele>
        <time>2015-06-24T12:37:23Z</time>
      </trkpt>
      <trkpt lat="42.34708" lon="8.90513">
        <ele>1420.97</ele>
        <time>2015-06-24T12:37:39Z</time>
      </trkpt>
      <trkpt lat="42.34712" lon="8.90515">
        <ele>1421.45</ele>
        <time>2015-06-24T12:37:46Z</time>
      </trkpt>
      <trkpt lat="42.34725" lon="8.90526">
        <ele>1422.41</ele>
        <time>2015-06-24T12:38:05Z</time>
      </trkpt>
      <trkpt lat="42.34744" lon="8.90532">
        <ele>1422.41</ele>
        <time>2015-06-24T12:38:22Z</time>
      </trkpt>
      <trkpt lat="42.34756" lon="8.90536">
        <ele>1424.81</ele>
        <time>2015-06-24T12:38:37Z</time>
      </trkpt>
      <trkpt lat="42.34763" lon="8.90541">
        <ele>1427.21</ele>
        <time>2015-06-24T12:38:55Z</time>
      </trkpt>
      <trkpt lat="42.34769" lon="8.90556">
        <ele>1426.73</ele>
        <time>2015-06-24T12:39:10Z</time>
      </trkpt>
      <trkpt lat="42.34775" lon="8.90572">
        <ele>1426.73</ele>
        <time>2015-06-24T12:39:26Z</time>
      </trkpt>
      <trkpt lat="42.34793" lon="8.90579">
        <ele>1428.66</ele>
        <time>2015-06-24T12:39:42Z</time>
      </trkpt>
      <trkpt lat="42.34794" lon="8.90591">
        <ele>1427.21</ele>
        <time>2015-06-24T12:40:00Z</time>
      </trkpt>
      <trkpt lat="42.34797" lon="8.90596">
        <ele>1426.73</ele>
        <time>2015-06-24T12:40:24Z</time>
      </trkpt>
      <trkpt lat="42.34795" lon="8.90602">
        <ele>1426.25</ele>
        <time>2015-06-24T12:40:45Z</time>
      </trkpt>
      <trkpt lat="42.34798" lon="8.90613">
        <ele>1424.81</ele>
        <time>2015-06-24T12:40:59Z</time>
      </trkpt>
      <trkpt lat="42.34804" lon="8.90624">
        <ele>1422.89</ele>
        <time>2015-06-24T12:41:14Z</time>
      </trkpt>
      <trkpt lat="42.34817" lon="8.90628">
        <ele>1422.41</ele>
        <time>2015-06-24T12:41:29Z</time>
      </trkpt>
      <trkpt lat="42.34826" lon="8.90632">
        <ele>1421.93</ele>
        <time>2015-06-24T12:41:43Z</time>
      </trkpt>
      <trkpt lat="42.34835" lon="8.90634">
        <ele>1420.97</ele>
        <time>2015-06-24T12:41:58Z</time>
      </trkpt>
      <trkpt lat="42.34843" lon="8.90637">
        <ele>1419.52</ele>
        <time>2015-06-24T12:42:13Z</time>
      </trkpt>
      <trkpt lat="42.34856" lon="8.90635">
        <ele>1421.93</ele>
        <time>2015-06-24T12:42:28Z</time>
      </trkpt>
      <trkpt lat="42.34862" lon="8.90634">
        <ele>1422.41</ele>
        <time>2015-06-24T12:42:33Z</time>
      </trkpt>
      <trkpt lat="42.34881" lon="8.90636">
        <ele>1421.93</ele>
        <time>2015-06-24T12:42:49Z</time>
      </trkpt>
      <trkpt lat="42.34882" lon="8.90635">
        <ele>1422.41</ele>
        <time>2015-06-24T12:42:51Z</time>
      </trkpt>
      <trkpt lat="42.34893" lon="8.90637">
        <ele>1421.45</ele>
        <time>2015-06-24T12:43:07Z</time>
      </trkpt>
      <trkpt lat="42.34904" lon="8.9064">
        <ele>1420.49</ele>
        <time>2015-06-24T12:43:24Z</time>
      </trkpt>
      <trkpt lat="42.34916" lon="8.9064">
        <ele>1419.52</ele>
        <time>2015-06-24T12:43:37Z</time>
      </trkpt>
      <trkpt lat="42.34932" lon="8.90645">
        <ele>1418.08</ele>
        <time>2015-06-24T12:43:53Z</time>
      </trkpt>
      <trkpt lat="42.34938" lon="8.90654">
        <ele>1416.16</ele>
        <time>2015-06-24T12:44:09Z</time>
      </trkpt>
      <trkpt lat="42.34955" lon="8.90658">
        <ele>1414.72</ele>
        <time>2015-06-24T12:44:28Z</time>
      </trkpt>
      <trkpt lat="42.34969" lon="8.90665">
        <ele>1415.2</ele>
        <time>2015-06-24T12:44:45Z</time>
      </trkpt>
      <trkpt lat="42.34975" lon="8.90671">
        <ele>1415.2</ele>
        <time>2015-06-24T12:44:52Z</time>
      </trkpt>
      <trkpt lat="42.34984" lon="8.90678">
        <ele>1414.72</ele>
        <time>2015-06-24T12:45:07Z</time>
      </trkpt>
      <trkpt lat="42.34996" lon="8.90678">
        <ele>1415.2</ele>
        <time>2015-06-24T12:45:25Z</time>
      </trkpt>
      <trkpt lat="42.35006" lon="8.90673">
        <ele>1415.2</ele>
        <time>2015-06-24T12:45:41Z</time>
      </trkpt>
      <trkpt lat="42.35013" lon="8.90661">
        <ele>1417.12</ele>
        <time>2015-06-24T12:45:59Z</time>
      </trkpt>
      <trkpt lat="42.35013" lon="8.9066">
        <ele>1417.6</ele>
        <time>2015-06-24T12:46:00Z</time>
      </trkpt>
      <trkpt lat="42.35028" lon="8.90656">
        <ele>1418.56</ele>
        <time>2015-06-24T12:46:16Z</time>
      </trkpt>
      <trkpt lat="42.35043" lon="8.90653">
        <ele>1420.49</ele>
        <time>2015-06-24T12:46:32Z</time>
      </trkpt>
      <trkpt lat="42.35052" lon="8.90658">
        <ele>1420.97</ele>
        <time>2015-06-24T12:46:43Z</time>
      </trkpt>
      <trkpt lat="42.35063" lon="8.90661">
        <ele>1421.93</ele>
        <time>2015-06-24T12:46:58Z</time>
      </trkpt>
      <trkpt lat="42.35071" lon="8.90662">
        <ele>1423.37</ele>
        <time>2015-06-24T12:47:15Z</time>
      </trkpt>
      <trkpt lat="42.35084" lon="8.90667">
        <ele>1425.29</ele>
        <time>2015-06-24T12:47:32Z</time>
      </trkpt>
      <trkpt lat="42.3509" lon="8.90672">
        <ele>1425.29</ele>
        <time>2015-06-24T12:47:47Z</time>
      </trkpt>
      <trkpt lat="42.35098" lon="8.90675">
        <ele>1426.73</ele>
        <time>2015-06-24T12:48:02Z</time>
      </trkpt>
      <trkpt lat="42.35103" lon="8.90683">
        <ele>1427.21</ele>
        <time>2015-06-24T12:48:09Z</time>
      </trkpt>
      <trkpt lat="42.35108" lon="8.9069">
        <ele>1426.25</ele>
        <time>2015-06-24T12:48:22Z</time>
      </trkpt>
      <trkpt lat="42.35112" lon="8.90694">
        <ele>1424.33</ele>
        <time>2015-06-24T12:48:38Z</time>
      </trkpt>
      <trkpt lat="42.35124" lon="8.90702">
        <ele>1423.37</ele>
        <time>2015-06-24T12:48:53Z</time>
      </trkpt>
      <trkpt lat="42.35135" lon="8.90711">
        <ele>1422.41</ele>
        <time>2015-06-24T12:49:09Z</time>
      </trkpt>
      <trkpt lat="42.35145" lon="8.90717">
        <ele>1421.93</ele>
        <time>2015-06-24T12:49:23Z</time>
      </trkpt>
      <trkpt lat="42.35151" lon="8.90719">
        <ele>1423.37</ele>
        <time>2015-06-24T12:49:33Z</time>
      </trkpt>
      <trkpt lat="42.35157" lon="8.9072">
        <ele>1424.33</ele>
        <time>2015-06-24T12:49:40Z</time>
      </trkpt>
      <trkpt lat="42.35172" lon="8.90719">
        <ele>1425.29</ele>
        <time>2015-06-24T12:49:54Z</time>
      </trkpt>
      <trkpt lat="42.3518" lon="8.90716">
        <ele>1426.73</ele>
        <time>2015-06-24T12:50:08Z</time>
      </trkpt>
      <trkpt lat="42.35188" lon="8.90715">
        <ele>1429.14</ele>
        <time>2015-06-24T12:50:25Z</time>
      </trkpt>
      <trkpt lat="42.352" lon="8.90722">
        <ele>1430.1</ele>
        <time>2015-06-24T12:50:42Z</time>
      </trkpt>
      <trkpt lat="42.35202" lon="8.90724">
        <ele>1430.1</ele>
        <time>2015-06-24T12:50:45Z</time>
      </trkpt>
      <trkpt lat="42.35207" lon="8.90736">
        <ele>1430.1</ele>
        <time>2015-06-24T12:51:01Z</time>
      </trkpt>
      <trkpt lat="42.35213" lon="8.90741">
        <ele>1432.98</ele>
        <time>2015-06-24T12:51:15Z</time>
      </trkpt>
      <trkpt lat="42.35218" lon="8.90737">
        <ele>1434.42</ele>
        <time>2015-06-24T12:51:29Z</time>
      </trkpt>
      <trkpt lat="42.35225" lon="8.90736">
        <ele>1436.83</ele>
        <time>2015-06-24T12:51:43Z</time>
      </trkpt>
      <trkpt lat="42.35232" lon="8.90732">
        <ele>1438.27</ele>
        <time>2015-06-24T12:51:59Z</time>
      </trkpt>
      <trkpt lat="42.35239" lon="8.90741">
        <ele>1440.19</ele>
        <time>2015-06-24T12:52:17Z</time>
      </trkpt>
      <trkpt lat="42.35243" lon="8.90741">
        <ele>1441.63</ele>
        <time>2015-06-24T12:52:29Z</time>
      </trkpt>
      <trkpt lat="42.35251" lon="8.90748">
        <ele>1443.56</ele>
        <time>2015-06-24T12:52:43Z</time>
      </trkpt>
      <trkpt lat="42.3526" lon="8.90747">
        <ele>1445.48</ele>
        <time>2015-06-24T12:52:57Z</time>
      </trkpt>
      <trkpt lat="42.35267" lon="8.90747">
        <ele>1445.96</ele>
        <time>2015-06-24T12:53:06Z</time>
      </trkpt>
      <trkpt lat="42.35272" lon="8.90748">
        <ele>1446.92</ele>
        <time>2015-06-24T12:53:13Z</time>
      </trkpt>
      <trkpt lat="42.35285" lon="8.90753">
        <ele>1445.96</ele>
        <time>2015-06-24T12:53:28Z</time>
      </trkpt>
      <trkpt lat="42.3529" lon="8.9076">
        <ele>1445.48</ele>
        <time>2015-06-24T12:53:43Z</time>
      </trkpt>
      <trkpt lat="42.35287" lon="8.9077">
        <ele>1446.92</ele>
        <time>2015-06-24T12:53:58Z</time>
      </trkpt>
    </trkseg>
  </trk>
</gpx>